<?xml version="1.0" encoding="UTF-8" standalone="no" ?>
<gpx xmlns="http://www.topografix.com/GPX/1/1" xmlns:xsi="http://www.w3.org/2001/XMLSchema-instance" xsi:schemaLocation="http://www.topografix.com/GPX/1/1 http://www.topografix.com/GPX/1/1/gpx.xsd" version="1.1" creator="VisuGPX - https://www.visugpx.com">
  <metadata>
    <name>83-Me-Rebouillon</name>
    <desc><![CDATA[83-Me-Rebouillon : Col de la Grange
2022-01-19]]></desc>
  </metadata>
  <trk>
    <name><![CDATA[2022-01-19-Me]]></name>
    <extensions>
      <line xmlns="http://www.topografix.com/GPX/gpx_style/0/2">
        <width>4</width>
      </line>
    </extensions>
    <trkseg>
      <trkpt lat="43.57668" lon="6.42388">
        <ele>265.6</ele>
        <time>2022-01-19T13:04:52.000Z</time>
      </trkpt>
      <trkpt lat="43.57668" lon="6.42389">
        <ele>265.6</ele>
        <time>2022-01-19T13:04:53.000Z</time>
      </trkpt>
      <trkpt lat="43.57664" lon="6.42392">
        <ele>264.6</ele>
        <time>2022-01-19T13:05:55.000Z</time>
      </trkpt>
      <trkpt lat="43.5766" lon="6.42395">
        <ele>264.9</ele>
        <time>2022-01-19T13:08:08.000Z</time>
      </trkpt>
      <trkpt lat="43.57655" lon="6.42395">
        <ele>265</ele>
        <time>2022-01-19T13:08:22.000Z</time>
      </trkpt>
      <trkpt lat="43.57655" lon="6.42388">
        <ele>264.1</ele>
        <time>2022-01-19T13:08:59.000Z</time>
      </trkpt>
      <trkpt lat="43.57658" lon="6.42383">
        <ele>263.7</ele>
        <time>2022-01-19T13:09:11.000Z</time>
      </trkpt>
      <trkpt lat="43.5766" lon="6.42378">
        <ele>263.7</ele>
        <time>2022-01-19T13:09:24.000Z</time>
      </trkpt>
      <trkpt lat="43.5766" lon="6.42372">
        <ele>263.5</ele>
        <time>2022-01-19T13:09:32.000Z</time>
      </trkpt>
      <trkpt lat="43.57659" lon="6.42365">
        <ele>263.2</ele>
        <time>2022-01-19T13:09:41.000Z</time>
      </trkpt>
      <trkpt lat="43.57658" lon="6.42358">
        <ele>263.1</ele>
        <time>2022-01-19T13:09:50.000Z</time>
      </trkpt>
      <trkpt lat="43.57655" lon="6.42352">
        <ele>263.2</ele>
        <time>2022-01-19T13:09:56.000Z</time>
      </trkpt>
      <trkpt lat="43.57651" lon="6.42348">
        <ele>263.4</ele>
        <time>2022-01-19T13:10:01.000Z</time>
      </trkpt>
      <trkpt lat="43.57648" lon="6.42343">
        <ele>264</ele>
        <time>2022-01-19T13:10:07.000Z</time>
      </trkpt>
      <trkpt lat="43.57644" lon="6.4234">
        <ele>264.5</ele>
        <time>2022-01-19T13:10:12.000Z</time>
      </trkpt>
      <trkpt lat="43.5764" lon="6.42336">
        <ele>265.1</ele>
        <time>2022-01-19T13:10:17.000Z</time>
      </trkpt>
      <trkpt lat="43.57635" lon="6.42335">
        <ele>265.4</ele>
        <time>2022-01-19T13:10:21.000Z</time>
      </trkpt>
      <trkpt lat="43.5763" lon="6.42333">
        <ele>265.7</ele>
        <time>2022-01-19T13:10:25.000Z</time>
      </trkpt>
      <trkpt lat="43.57626" lon="6.4233">
        <ele>265.9</ele>
        <time>2022-01-19T13:10:29.000Z</time>
      </trkpt>
      <trkpt lat="43.57621" lon="6.42328">
        <ele>266</ele>
        <time>2022-01-19T13:10:33.000Z</time>
      </trkpt>
      <trkpt lat="43.57616" lon="6.42328">
        <ele>266.2</ele>
        <time>2022-01-19T13:10:37.000Z</time>
      </trkpt>
      <trkpt lat="43.57611" lon="6.42328">
        <ele>266.5</ele>
        <time>2022-01-19T13:10:41.000Z</time>
      </trkpt>
      <trkpt lat="43.57606" lon="6.42329">
        <ele>266.8</ele>
        <time>2022-01-19T13:10:45.000Z</time>
      </trkpt>
      <trkpt lat="43.57601" lon="6.4233">
        <ele>267.1</ele>
        <time>2022-01-19T13:10:49.000Z</time>
      </trkpt>
      <trkpt lat="43.57596" lon="6.42329">
        <ele>267.2</ele>
        <time>2022-01-19T13:10:53.000Z</time>
      </trkpt>
      <trkpt lat="43.57592" lon="6.4233">
        <ele>267.2</ele>
        <time>2022-01-19T13:10:57.000Z</time>
      </trkpt>
      <trkpt lat="43.57587" lon="6.42328">
        <ele>267</ele>
        <time>2022-01-19T13:11:01.000Z</time>
      </trkpt>
      <trkpt lat="43.57583" lon="6.42324">
        <ele>266.7</ele>
        <time>2022-01-19T13:11:05.000Z</time>
      </trkpt>
      <trkpt lat="43.57579" lon="6.42319">
        <ele>266.5</ele>
        <time>2022-01-19T13:11:09.000Z</time>
      </trkpt>
      <trkpt lat="43.57574" lon="6.42316">
        <ele>266.4</ele>
        <time>2022-01-19T13:11:13.000Z</time>
      </trkpt>
      <trkpt lat="43.57569" lon="6.42318">
        <ele>266.3</ele>
        <time>2022-01-19T13:11:16.000Z</time>
      </trkpt>
      <trkpt lat="43.57565" lon="6.42321">
        <ele>266.3</ele>
        <time>2022-01-19T13:11:20.000Z</time>
      </trkpt>
      <trkpt lat="43.5756" lon="6.42322">
        <ele>266.3</ele>
        <time>2022-01-19T13:11:24.000Z</time>
      </trkpt>
      <trkpt lat="43.57555" lon="6.42323">
        <ele>266.4</ele>
        <time>2022-01-19T13:11:28.000Z</time>
      </trkpt>
      <trkpt lat="43.5755" lon="6.42323">
        <ele>266.5</ele>
        <time>2022-01-19T13:11:34.000Z</time>
      </trkpt>
      <trkpt lat="43.57545" lon="6.42324">
        <ele>266.6</ele>
        <time>2022-01-19T13:11:39.000Z</time>
      </trkpt>
      <trkpt lat="43.57539" lon="6.42324">
        <ele>266.6</ele>
        <time>2022-01-19T13:11:44.000Z</time>
      </trkpt>
      <trkpt lat="43.57534" lon="6.42326">
        <ele>266.3</ele>
        <time>2022-01-19T13:11:50.000Z</time>
      </trkpt>
      <trkpt lat="43.57529" lon="6.42329">
        <ele>266</ele>
        <time>2022-01-19T13:11:55.000Z</time>
      </trkpt>
      <trkpt lat="43.57524" lon="6.42332">
        <ele>265.7</ele>
        <time>2022-01-19T13:12:00.000Z</time>
      </trkpt>
      <trkpt lat="43.5752" lon="6.42337">
        <ele>265.5</ele>
        <time>2022-01-19T13:12:05.000Z</time>
      </trkpt>
      <trkpt lat="43.57516" lon="6.42342">
        <ele>265.2</ele>
        <time>2022-01-19T13:12:10.000Z</time>
      </trkpt>
      <trkpt lat="43.57512" lon="6.42347">
        <ele>265</ele>
        <time>2022-01-19T13:12:13.000Z</time>
      </trkpt>
      <trkpt lat="43.57507" lon="6.42352">
        <ele>264.7</ele>
        <time>2022-01-19T13:12:17.000Z</time>
      </trkpt>
      <trkpt lat="43.57502" lon="6.42355">
        <ele>264.6</ele>
        <time>2022-01-19T13:12:20.000Z</time>
      </trkpt>
      <trkpt lat="43.57498" lon="6.42358">
        <ele>264.5</ele>
        <time>2022-01-19T13:12:24.000Z</time>
      </trkpt>
      <trkpt lat="43.57493" lon="6.42363">
        <ele>264.3</ele>
        <time>2022-01-19T13:12:29.000Z</time>
      </trkpt>
      <trkpt lat="43.57488" lon="6.42364">
        <ele>263.7</ele>
        <time>2022-01-19T13:12:34.000Z</time>
      </trkpt>
      <trkpt lat="43.57482" lon="6.42365">
        <ele>263.3</ele>
        <time>2022-01-19T13:12:38.000Z</time>
      </trkpt>
      <trkpt lat="43.57477" lon="6.42363">
        <ele>262.8</ele>
        <time>2022-01-19T13:12:43.000Z</time>
      </trkpt>
      <trkpt lat="43.57472" lon="6.42363">
        <ele>262.6</ele>
        <time>2022-01-19T13:12:47.000Z</time>
      </trkpt>
      <trkpt lat="43.57467" lon="6.42362">
        <ele>262.4</ele>
        <time>2022-01-19T13:12:51.000Z</time>
      </trkpt>
      <trkpt lat="43.57461" lon="6.42361">
        <ele>262.2</ele>
        <time>2022-01-19T13:12:55.000Z</time>
      </trkpt>
      <trkpt lat="43.57456" lon="6.4236">
        <ele>262.1</ele>
        <time>2022-01-19T13:12:59.000Z</time>
      </trkpt>
      <trkpt lat="43.5745" lon="6.42359">
        <ele>261.9</ele>
        <time>2022-01-19T13:13:03.000Z</time>
      </trkpt>
      <trkpt lat="43.57445" lon="6.42358">
        <ele>261.6</ele>
        <time>2022-01-19T13:13:07.000Z</time>
      </trkpt>
      <trkpt lat="43.5744" lon="6.42358">
        <ele>261.4</ele>
        <time>2022-01-19T13:13:10.000Z</time>
      </trkpt>
      <trkpt lat="43.57435" lon="6.42358">
        <ele>261.2</ele>
        <time>2022-01-19T13:13:13.000Z</time>
      </trkpt>
      <trkpt lat="43.57429" lon="6.42357">
        <ele>261.3</ele>
        <time>2022-01-19T13:13:17.000Z</time>
      </trkpt>
      <trkpt lat="43.57424" lon="6.42356">
        <ele>261.3</ele>
        <time>2022-01-19T13:13:21.000Z</time>
      </trkpt>
      <trkpt lat="43.57419" lon="6.42354">
        <ele>261.4</ele>
        <time>2022-01-19T13:13:25.000Z</time>
      </trkpt>
      <trkpt lat="43.57413" lon="6.42353">
        <ele>261.2</ele>
        <time>2022-01-19T13:13:29.000Z</time>
      </trkpt>
      <trkpt lat="43.57408" lon="6.42354">
        <ele>261.1</ele>
        <time>2022-01-19T13:13:33.000Z</time>
      </trkpt>
      <trkpt lat="43.57403" lon="6.42354">
        <ele>260.9</ele>
        <time>2022-01-19T13:13:37.000Z</time>
      </trkpt>
      <trkpt lat="43.57397" lon="6.42353">
        <ele>260.5</ele>
        <time>2022-01-19T13:13:41.000Z</time>
      </trkpt>
      <trkpt lat="43.57393" lon="6.42352">
        <ele>260.1</ele>
        <time>2022-01-19T13:13:45.000Z</time>
      </trkpt>
      <trkpt lat="43.57388" lon="6.42351">
        <ele>259.9</ele>
        <time>2022-01-19T13:13:49.000Z</time>
      </trkpt>
      <trkpt lat="43.57384" lon="6.42347">
        <ele>259.8</ele>
        <time>2022-01-19T13:13:53.000Z</time>
      </trkpt>
      <trkpt lat="43.57379" lon="6.42346">
        <ele>259.8</ele>
        <time>2022-01-19T13:13:58.000Z</time>
      </trkpt>
      <trkpt lat="43.57373" lon="6.42345">
        <ele>259.8</ele>
        <time>2022-01-19T13:14:02.000Z</time>
      </trkpt>
      <trkpt lat="43.57369" lon="6.42344">
        <ele>259.7</ele>
        <time>2022-01-19T13:14:06.000Z</time>
      </trkpt>
      <trkpt lat="43.57364" lon="6.42341">
        <ele>259.8</ele>
        <time>2022-01-19T13:14:11.000Z</time>
      </trkpt>
      <trkpt lat="43.57359" lon="6.4234">
        <ele>259.9</ele>
        <time>2022-01-19T13:14:15.000Z</time>
      </trkpt>
      <trkpt lat="43.57353" lon="6.4234">
        <ele>260</ele>
        <time>2022-01-19T13:14:19.000Z</time>
      </trkpt>
      <trkpt lat="43.57349" lon="6.4234">
        <ele>259.9</ele>
        <time>2022-01-19T13:14:23.000Z</time>
      </trkpt>
      <trkpt lat="43.57344" lon="6.42339">
        <ele>259.7</ele>
        <time>2022-01-19T13:14:27.000Z</time>
      </trkpt>
      <trkpt lat="43.57339" lon="6.42337">
        <ele>259.6</ele>
        <time>2022-01-19T13:14:32.000Z</time>
      </trkpt>
      <trkpt lat="43.57334" lon="6.42336">
        <ele>259.4</ele>
        <time>2022-01-19T13:14:36.000Z</time>
      </trkpt>
      <trkpt lat="43.57329" lon="6.42335">
        <ele>259.3</ele>
        <time>2022-01-19T13:14:41.000Z</time>
      </trkpt>
      <trkpt lat="43.57323" lon="6.42333">
        <ele>259.3</ele>
        <time>2022-01-19T13:14:46.000Z</time>
      </trkpt>
      <trkpt lat="43.57318" lon="6.42332">
        <ele>259.3</ele>
        <time>2022-01-19T13:14:50.000Z</time>
      </trkpt>
      <trkpt lat="43.57312" lon="6.42332">
        <ele>259.3</ele>
        <time>2022-01-19T13:14:54.000Z</time>
      </trkpt>
      <trkpt lat="43.57307" lon="6.42331">
        <ele>259.3</ele>
        <time>2022-01-19T13:14:58.000Z</time>
      </trkpt>
      <trkpt lat="43.57302" lon="6.42331">
        <ele>259.3</ele>
        <time>2022-01-19T13:15:02.000Z</time>
      </trkpt>
      <trkpt lat="43.57297" lon="6.42329">
        <ele>259.3</ele>
        <time>2022-01-19T13:15:06.000Z</time>
      </trkpt>
      <trkpt lat="43.57291" lon="6.42328">
        <ele>259</ele>
        <time>2022-01-19T13:15:10.000Z</time>
      </trkpt>
      <trkpt lat="43.57285" lon="6.42328">
        <ele>258.9</ele>
        <time>2022-01-19T13:15:14.000Z</time>
      </trkpt>
      <trkpt lat="43.57279" lon="6.42328">
        <ele>258.7</ele>
        <time>2022-01-19T13:15:17.000Z</time>
      </trkpt>
      <trkpt lat="43.57274" lon="6.42328">
        <ele>258.8</ele>
        <time>2022-01-19T13:15:20.000Z</time>
      </trkpt>
      <trkpt lat="43.57269" lon="6.42327">
        <ele>258.7</ele>
        <time>2022-01-19T13:15:23.000Z</time>
      </trkpt>
      <trkpt lat="43.57265" lon="6.42325">
        <ele>258.6</ele>
        <time>2022-01-19T13:15:26.000Z</time>
      </trkpt>
      <trkpt lat="43.5726" lon="6.42322">
        <ele>258.5</ele>
        <time>2022-01-19T13:15:30.000Z</time>
      </trkpt>
      <trkpt lat="43.57256" lon="6.42319">
        <ele>258.4</ele>
        <time>2022-01-19T13:15:34.000Z</time>
      </trkpt>
      <trkpt lat="43.57251" lon="6.42316">
        <ele>258.2</ele>
        <time>2022-01-19T13:15:38.000Z</time>
      </trkpt>
      <trkpt lat="43.57247" lon="6.42314">
        <ele>258.2</ele>
        <time>2022-01-19T13:15:42.000Z</time>
      </trkpt>
      <trkpt lat="43.57241" lon="6.42312">
        <ele>258.2</ele>
        <time>2022-01-19T13:15:46.000Z</time>
      </trkpt>
      <trkpt lat="43.57236" lon="6.4231">
        <ele>258.2</ele>
        <time>2022-01-19T13:15:50.000Z</time>
      </trkpt>
      <trkpt lat="43.57231" lon="6.42308">
        <ele>258</ele>
        <time>2022-01-19T13:15:55.000Z</time>
      </trkpt>
      <trkpt lat="43.57227" lon="6.42306">
        <ele>257.8</ele>
        <time>2022-01-19T13:15:59.000Z</time>
      </trkpt>
      <trkpt lat="43.57221" lon="6.42304">
        <ele>257.4</ele>
        <time>2022-01-19T13:16:03.000Z</time>
      </trkpt>
      <trkpt lat="43.57215" lon="6.42302">
        <ele>257.3</ele>
        <time>2022-01-19T13:16:07.000Z</time>
      </trkpt>
      <trkpt lat="43.57209" lon="6.42301">
        <ele>257.2</ele>
        <time>2022-01-19T13:16:11.000Z</time>
      </trkpt>
      <trkpt lat="43.57205" lon="6.42299">
        <ele>257.2</ele>
        <time>2022-01-19T13:16:14.000Z</time>
      </trkpt>
      <trkpt lat="43.572" lon="6.42296">
        <ele>257.1</ele>
        <time>2022-01-19T13:16:18.000Z</time>
      </trkpt>
      <trkpt lat="43.57195" lon="6.42294">
        <ele>257.1</ele>
        <time>2022-01-19T13:16:21.000Z</time>
      </trkpt>
      <trkpt lat="43.5719" lon="6.42292">
        <ele>257</ele>
        <time>2022-01-19T13:16:24.000Z</time>
      </trkpt>
      <trkpt lat="43.57185" lon="6.4229">
        <ele>256.9</ele>
        <time>2022-01-19T13:16:27.000Z</time>
      </trkpt>
      <trkpt lat="43.57181" lon="6.42285">
        <ele>256.7</ele>
        <time>2022-01-19T13:16:31.000Z</time>
      </trkpt>
      <trkpt lat="43.57177" lon="6.42281">
        <ele>256.4</ele>
        <time>2022-01-19T13:16:35.000Z</time>
      </trkpt>
      <trkpt lat="43.57173" lon="6.42278">
        <ele>256.4</ele>
        <time>2022-01-19T13:16:38.000Z</time>
      </trkpt>
      <trkpt lat="43.57168" lon="6.42274">
        <ele>256.3</ele>
        <time>2022-01-19T13:16:42.000Z</time>
      </trkpt>
      <trkpt lat="43.57163" lon="6.42271">
        <ele>256.3</ele>
        <time>2022-01-19T13:16:46.000Z</time>
      </trkpt>
      <trkpt lat="43.57158" lon="6.42267">
        <ele>256.2</ele>
        <time>2022-01-19T13:16:50.000Z</time>
      </trkpt>
      <trkpt lat="43.57153" lon="6.42263">
        <ele>256.2</ele>
        <time>2022-01-19T13:16:54.000Z</time>
      </trkpt>
      <trkpt lat="43.57149" lon="6.4226">
        <ele>256.2</ele>
        <time>2022-01-19T13:16:58.000Z</time>
      </trkpt>
      <trkpt lat="43.57145" lon="6.42254">
        <ele>256.1</ele>
        <time>2022-01-19T13:17:03.000Z</time>
      </trkpt>
      <trkpt lat="43.57141" lon="6.42249">
        <ele>255.6</ele>
        <time>2022-01-19T13:17:07.000Z</time>
      </trkpt>
      <trkpt lat="43.57138" lon="6.42244">
        <ele>255.3</ele>
        <time>2022-01-19T13:17:11.000Z</time>
      </trkpt>
      <trkpt lat="43.57133" lon="6.4224">
        <ele>255.2</ele>
        <time>2022-01-19T13:17:15.000Z</time>
      </trkpt>
      <trkpt lat="43.57129" lon="6.42237">
        <ele>255.2</ele>
        <time>2022-01-19T13:17:18.000Z</time>
      </trkpt>
      <trkpt lat="43.57124" lon="6.42233">
        <ele>255.1</ele>
        <time>2022-01-19T13:17:22.000Z</time>
      </trkpt>
      <trkpt lat="43.57119" lon="6.42229">
        <ele>255</ele>
        <time>2022-01-19T13:17:26.000Z</time>
      </trkpt>
      <trkpt lat="43.57115" lon="6.42223">
        <ele>254.9</ele>
        <time>2022-01-19T13:17:30.000Z</time>
      </trkpt>
      <trkpt lat="43.57112" lon="6.4222">
        <ele>254.8</ele>
        <time>2022-01-19T13:17:34.000Z</time>
      </trkpt>
      <trkpt lat="43.57107" lon="6.42216">
        <ele>254.7</ele>
        <time>2022-01-19T13:17:38.000Z</time>
      </trkpt>
      <trkpt lat="43.57102" lon="6.42213">
        <ele>254.7</ele>
        <time>2022-01-19T13:17:42.000Z</time>
      </trkpt>
      <trkpt lat="43.57099" lon="6.42207">
        <ele>254.6</ele>
        <time>2022-01-19T13:17:46.000Z</time>
      </trkpt>
      <trkpt lat="43.57098" lon="6.42201">
        <ele>254.6</ele>
        <time>2022-01-19T13:17:49.000Z</time>
      </trkpt>
      <trkpt lat="43.57095" lon="6.42195">
        <ele>254.5</ele>
        <time>2022-01-19T13:17:53.000Z</time>
      </trkpt>
      <trkpt lat="43.57091" lon="6.42191">
        <ele>254.5</ele>
        <time>2022-01-19T13:17:57.000Z</time>
      </trkpt>
      <trkpt lat="43.57089" lon="6.42184">
        <ele>254.6</ele>
        <time>2022-01-19T13:18:01.000Z</time>
      </trkpt>
      <trkpt lat="43.57086" lon="6.42179">
        <ele>254.5</ele>
        <time>2022-01-19T13:18:05.000Z</time>
      </trkpt>
      <trkpt lat="43.57082" lon="6.42174">
        <ele>254.6</ele>
        <time>2022-01-19T13:18:09.000Z</time>
      </trkpt>
      <trkpt lat="43.57079" lon="6.42169">
        <ele>254.6</ele>
        <time>2022-01-19T13:18:12.000Z</time>
      </trkpt>
      <trkpt lat="43.57075" lon="6.42165">
        <ele>254.7</ele>
        <time>2022-01-19T13:18:15.000Z</time>
      </trkpt>
      <trkpt lat="43.57071" lon="6.4216">
        <ele>254.6</ele>
        <time>2022-01-19T13:18:19.000Z</time>
      </trkpt>
      <trkpt lat="43.57067" lon="6.42155">
        <ele>254.5</ele>
        <time>2022-01-19T13:18:23.000Z</time>
      </trkpt>
      <trkpt lat="43.57063" lon="6.42152">
        <ele>254.5</ele>
        <time>2022-01-19T13:18:27.000Z</time>
      </trkpt>
      <trkpt lat="43.57059" lon="6.42148">
        <ele>254.4</ele>
        <time>2022-01-19T13:18:31.000Z</time>
      </trkpt>
      <trkpt lat="43.57054" lon="6.42146">
        <ele>254.3</ele>
        <time>2022-01-19T13:18:35.000Z</time>
      </trkpt>
      <trkpt lat="43.5705" lon="6.42142">
        <ele>254.3</ele>
        <time>2022-01-19T13:18:40.000Z</time>
      </trkpt>
      <trkpt lat="43.57045" lon="6.42138">
        <ele>254.3</ele>
        <time>2022-01-19T13:18:44.000Z</time>
      </trkpt>
      <trkpt lat="43.57041" lon="6.42136">
        <ele>254.3</ele>
        <time>2022-01-19T13:18:48.000Z</time>
      </trkpt>
      <trkpt lat="43.57036" lon="6.42135">
        <ele>254.4</ele>
        <time>2022-01-19T13:18:52.000Z</time>
      </trkpt>
      <trkpt lat="43.57031" lon="6.42132">
        <ele>254.5</ele>
        <time>2022-01-19T13:18:57.000Z</time>
      </trkpt>
      <trkpt lat="43.57027" lon="6.4213">
        <ele>254.7</ele>
        <time>2022-01-19T13:19:01.000Z</time>
      </trkpt>
      <trkpt lat="43.57022" lon="6.42128">
        <ele>254.8</ele>
        <time>2022-01-19T13:19:05.000Z</time>
      </trkpt>
      <trkpt lat="43.57017" lon="6.42128">
        <ele>254.8</ele>
        <time>2022-01-19T13:19:09.000Z</time>
      </trkpt>
      <trkpt lat="43.57012" lon="6.42128">
        <ele>254.7</ele>
        <time>2022-01-19T13:19:12.000Z</time>
      </trkpt>
      <trkpt lat="43.57007" lon="6.42128">
        <ele>254.6</ele>
        <time>2022-01-19T13:19:15.000Z</time>
      </trkpt>
      <trkpt lat="43.57002" lon="6.42128">
        <ele>254.5</ele>
        <time>2022-01-19T13:19:19.000Z</time>
      </trkpt>
      <trkpt lat="43.56997" lon="6.42127">
        <ele>254.4</ele>
        <time>2022-01-19T13:19:23.000Z</time>
      </trkpt>
      <trkpt lat="43.56991" lon="6.42126">
        <ele>254.3</ele>
        <time>2022-01-19T13:19:27.000Z</time>
      </trkpt>
      <trkpt lat="43.56987" lon="6.42123">
        <ele>254.1</ele>
        <time>2022-01-19T13:19:31.000Z</time>
      </trkpt>
      <trkpt lat="43.56982" lon="6.4212">
        <ele>254</ele>
        <time>2022-01-19T13:19:35.000Z</time>
      </trkpt>
      <trkpt lat="43.56977" lon="6.42117">
        <ele>254.1</ele>
        <time>2022-01-19T13:19:39.000Z</time>
      </trkpt>
      <trkpt lat="43.56971" lon="6.42115">
        <ele>254.1</ele>
        <time>2022-01-19T13:19:43.000Z</time>
      </trkpt>
      <trkpt lat="43.56966" lon="6.42113">
        <ele>254.1</ele>
        <time>2022-01-19T13:19:47.000Z</time>
      </trkpt>
      <trkpt lat="43.56961" lon="6.4211">
        <ele>254.2</ele>
        <time>2022-01-19T13:19:50.000Z</time>
      </trkpt>
      <trkpt lat="43.56955" lon="6.42109">
        <ele>254.3</ele>
        <time>2022-01-19T13:19:54.000Z</time>
      </trkpt>
      <trkpt lat="43.5695" lon="6.42107">
        <ele>254.5</ele>
        <time>2022-01-19T13:19:58.000Z</time>
      </trkpt>
      <trkpt lat="43.56945" lon="6.42105">
        <ele>254.6</ele>
        <time>2022-01-19T13:20:02.000Z</time>
      </trkpt>
      <trkpt lat="43.5694" lon="6.42102">
        <ele>254.7</ele>
        <time>2022-01-19T13:20:07.000Z</time>
      </trkpt>
      <trkpt lat="43.56935" lon="6.42103">
        <ele>254.7</ele>
        <time>2022-01-19T13:20:11.000Z</time>
      </trkpt>
      <trkpt lat="43.56929" lon="6.42103">
        <ele>254.7</ele>
        <time>2022-01-19T13:20:15.000Z</time>
      </trkpt>
      <trkpt lat="43.56924" lon="6.42103">
        <ele>254.8</ele>
        <time>2022-01-19T13:20:19.000Z</time>
      </trkpt>
      <trkpt lat="43.56919" lon="6.42103">
        <ele>254.9</ele>
        <time>2022-01-19T13:20:22.000Z</time>
      </trkpt>
      <trkpt lat="43.56915" lon="6.42103">
        <ele>254.9</ele>
        <time>2022-01-19T13:20:26.000Z</time>
      </trkpt>
      <trkpt lat="43.5691" lon="6.42103">
        <ele>254.8</ele>
        <time>2022-01-19T13:20:30.000Z</time>
      </trkpt>
      <trkpt lat="43.56904" lon="6.42105">
        <ele>254.6</ele>
        <time>2022-01-19T13:20:34.000Z</time>
      </trkpt>
      <trkpt lat="43.56899" lon="6.42106">
        <ele>254.5</ele>
        <time>2022-01-19T13:20:37.000Z</time>
      </trkpt>
      <trkpt lat="43.56894" lon="6.42107">
        <ele>254.4</ele>
        <time>2022-01-19T13:20:41.000Z</time>
      </trkpt>
      <trkpt lat="43.56888" lon="6.42106">
        <ele>254.3</ele>
        <time>2022-01-19T13:20:45.000Z</time>
      </trkpt>
      <trkpt lat="43.56884" lon="6.42104">
        <ele>254.2</ele>
        <time>2022-01-19T13:20:49.000Z</time>
      </trkpt>
      <trkpt lat="43.5688" lon="6.421">
        <ele>254.1</ele>
        <time>2022-01-19T13:20:53.000Z</time>
      </trkpt>
      <trkpt lat="43.56877" lon="6.42095">
        <ele>254.1</ele>
        <time>2022-01-19T13:20:57.000Z</time>
      </trkpt>
      <trkpt lat="43.56876" lon="6.42088">
        <ele>254</ele>
        <time>2022-01-19T13:21:01.000Z</time>
      </trkpt>
      <trkpt lat="43.56875" lon="6.42082">
        <ele>254</ele>
        <time>2022-01-19T13:21:05.000Z</time>
      </trkpt>
      <trkpt lat="43.56875" lon="6.42075">
        <ele>254.2</ele>
        <time>2022-01-19T13:21:09.000Z</time>
      </trkpt>
      <trkpt lat="43.56874" lon="6.42069">
        <ele>254.5</ele>
        <time>2022-01-19T13:21:13.000Z</time>
      </trkpt>
      <trkpt lat="43.56873" lon="6.42062">
        <ele>254.7</ele>
        <time>2022-01-19T13:21:17.000Z</time>
      </trkpt>
      <trkpt lat="43.56872" lon="6.42056">
        <ele>254.9</ele>
        <time>2022-01-19T13:21:21.000Z</time>
      </trkpt>
      <trkpt lat="43.5687" lon="6.4205">
        <ele>255.1</ele>
        <time>2022-01-19T13:21:25.000Z</time>
      </trkpt>
      <trkpt lat="43.56868" lon="6.42045">
        <ele>255.3</ele>
        <time>2022-01-19T13:21:29.000Z</time>
      </trkpt>
      <trkpt lat="43.56864" lon="6.42041">
        <ele>255.6</ele>
        <time>2022-01-19T13:21:33.000Z</time>
      </trkpt>
      <trkpt lat="43.5686" lon="6.42035">
        <ele>255.8</ele>
        <time>2022-01-19T13:21:38.000Z</time>
      </trkpt>
      <trkpt lat="43.56858" lon="6.42029">
        <ele>256</ele>
        <time>2022-01-19T13:21:42.000Z</time>
      </trkpt>
      <trkpt lat="43.56854" lon="6.42025">
        <ele>256.4</ele>
        <time>2022-01-19T13:21:48.000Z</time>
      </trkpt>
      <trkpt lat="43.5685" lon="6.42021">
        <ele>256.5</ele>
        <time>2022-01-19T13:21:51.000Z</time>
      </trkpt>
      <trkpt lat="43.56846" lon="6.42016">
        <ele>256.7</ele>
        <time>2022-01-19T13:21:55.000Z</time>
      </trkpt>
      <trkpt lat="43.56842" lon="6.42013">
        <ele>257.2</ele>
        <time>2022-01-19T13:22:01.000Z</time>
      </trkpt>
      <trkpt lat="43.56841" lon="6.42007">
        <ele>258.2</ele>
        <time>2022-01-19T13:22:17.000Z</time>
      </trkpt>
      <trkpt lat="43.56841" lon="6.42">
        <ele>258.8</ele>
        <time>2022-01-19T13:22:29.000Z</time>
      </trkpt>
      <trkpt lat="43.5684" lon="6.41994">
        <ele>259.9</ele>
        <time>2022-01-19T13:22:46.000Z</time>
      </trkpt>
      <trkpt lat="43.56839" lon="6.41987">
        <ele>260.7</ele>
        <time>2022-01-19T13:22:58.000Z</time>
      </trkpt>
      <trkpt lat="43.56839" lon="6.4198">
        <ele>261.6</ele>
        <time>2022-01-19T13:23:08.000Z</time>
      </trkpt>
      <trkpt lat="43.56839" lon="6.41974">
        <ele>262.4</ele>
        <time>2022-01-19T13:23:18.000Z</time>
      </trkpt>
      <trkpt lat="43.5684" lon="6.41967">
        <ele>263.1</ele>
        <time>2022-01-19T13:23:25.000Z</time>
      </trkpt>
      <trkpt lat="43.56843" lon="6.41961">
        <ele>264.1</ele>
        <time>2022-01-19T13:23:34.000Z</time>
      </trkpt>
      <trkpt lat="43.56845" lon="6.41955">
        <ele>265</ele>
        <time>2022-01-19T13:23:41.000Z</time>
      </trkpt>
      <trkpt lat="43.56847" lon="6.4195">
        <ele>265.6</ele>
        <time>2022-01-19T13:23:45.000Z</time>
      </trkpt>
      <trkpt lat="43.56848" lon="6.41942">
        <ele>266.8</ele>
        <time>2022-01-19T13:23:53.000Z</time>
      </trkpt>
      <trkpt lat="43.56847" lon="6.41936">
        <ele>267.6</ele>
        <time>2022-01-19T13:23:59.000Z</time>
      </trkpt>
      <trkpt lat="43.5685" lon="6.41931">
        <ele>269.8</ele>
        <time>2022-01-19T13:24:15.000Z</time>
      </trkpt>
      <trkpt lat="43.56855" lon="6.41928">
        <ele>271.6</ele>
        <time>2022-01-19T13:24:27.000Z</time>
      </trkpt>
      <trkpt lat="43.56859" lon="6.41923">
        <ele>272</ele>
        <time>2022-01-19T13:24:31.000Z</time>
      </trkpt>
      <trkpt lat="43.56864" lon="6.4192">
        <ele>272.4</ele>
        <time>2022-01-19T13:24:35.000Z</time>
      </trkpt>
      <trkpt lat="43.56868" lon="6.41918">
        <ele>273</ele>
        <time>2022-01-19T13:24:44.000Z</time>
      </trkpt>
      <trkpt lat="43.56872" lon="6.41913">
        <ele>273.6</ele>
        <time>2022-01-19T13:24:51.000Z</time>
      </trkpt>
      <trkpt lat="43.56872" lon="6.41906">
        <ele>277.2</ele>
        <time>2022-01-19T13:25:14.000Z</time>
      </trkpt>
      <trkpt lat="43.56873" lon="6.419">
        <ele>278.2</ele>
        <time>2022-01-19T13:25:20.000Z</time>
      </trkpt>
      <trkpt lat="43.56874" lon="6.41894">
        <ele>279.3</ele>
        <time>2022-01-19T13:25:27.000Z</time>
      </trkpt>
      <trkpt lat="43.56878" lon="6.4189">
        <ele>283.4</ele>
        <time>2022-01-19T13:25:56.000Z</time>
      </trkpt>
      <trkpt lat="43.56882" lon="6.41887">
        <ele>286.4</ele>
        <time>2022-01-19T13:26:13.000Z</time>
      </trkpt>
      <trkpt lat="43.56884" lon="6.41882">
        <ele>287.8</ele>
        <time>2022-01-19T13:26:23.000Z</time>
      </trkpt>
      <trkpt lat="43.56885" lon="6.41875">
        <ele>289.2</ele>
        <time>2022-01-19T13:26:32.000Z</time>
      </trkpt>
      <trkpt lat="43.56888" lon="6.41869">
        <ele>290.4</ele>
        <time>2022-01-19T13:26:44.000Z</time>
      </trkpt>
      <trkpt lat="43.56891" lon="6.41865">
        <ele>291</ele>
        <time>2022-01-19T13:26:51.000Z</time>
      </trkpt>
      <trkpt lat="43.56892" lon="6.41858">
        <ele>291.9</ele>
        <time>2022-01-19T13:26:59.000Z</time>
      </trkpt>
      <trkpt lat="43.56893" lon="6.41852">
        <ele>292.9</ele>
        <time>2022-01-19T13:27:08.000Z</time>
      </trkpt>
      <trkpt lat="43.56894" lon="6.41845">
        <ele>293.6</ele>
        <time>2022-01-19T13:27:13.000Z</time>
      </trkpt>
      <trkpt lat="43.56896" lon="6.41839">
        <ele>295.1</ele>
        <time>2022-01-19T13:27:26.000Z</time>
      </trkpt>
      <trkpt lat="43.56894" lon="6.41833">
        <ele>296.3</ele>
        <time>2022-01-19T13:27:35.000Z</time>
      </trkpt>
      <trkpt lat="43.56895" lon="6.41826">
        <ele>297.2</ele>
        <time>2022-01-19T13:27:44.000Z</time>
      </trkpt>
      <trkpt lat="43.56893" lon="6.4182">
        <ele>299</ele>
        <time>2022-01-19T13:27:57.000Z</time>
      </trkpt>
      <trkpt lat="43.56893" lon="6.41813">
        <ele>300.3</ele>
        <time>2022-01-19T13:28:06.000Z</time>
      </trkpt>
      <trkpt lat="43.56893" lon="6.41807">
        <ele>301.6</ele>
        <time>2022-01-19T13:28:14.000Z</time>
      </trkpt>
      <trkpt lat="43.56894" lon="6.41801">
        <ele>303.5</ele>
        <time>2022-01-19T13:28:27.000Z</time>
      </trkpt>
      <trkpt lat="43.5689" lon="6.41798">
        <ele>304.6</ele>
        <time>2022-01-19T13:28:37.000Z</time>
      </trkpt>
      <trkpt lat="43.56888" lon="6.41792">
        <ele>306.3</ele>
        <time>2022-01-19T13:28:52.000Z</time>
      </trkpt>
      <trkpt lat="43.56891" lon="6.41786">
        <ele>307.5</ele>
        <time>2022-01-19T13:29:03.000Z</time>
      </trkpt>
      <trkpt lat="43.56893" lon="6.41781">
        <ele>308</ele>
        <time>2022-01-19T13:29:11.000Z</time>
      </trkpt>
      <trkpt lat="43.56895" lon="6.41774">
        <ele>309.2</ele>
        <time>2022-01-19T13:29:30.000Z</time>
      </trkpt>
      <trkpt lat="43.56897" lon="6.41768">
        <ele>309.9</ele>
        <time>2022-01-19T13:29:38.000Z</time>
      </trkpt>
      <trkpt lat="43.56899" lon="6.41761">
        <ele>310.9</ele>
        <time>2022-01-19T13:29:49.000Z</time>
      </trkpt>
      <trkpt lat="43.56902" lon="6.41755">
        <ele>311.5</ele>
        <time>2022-01-19T13:29:55.000Z</time>
      </trkpt>
      <trkpt lat="43.56905" lon="6.4175">
        <ele>312.5</ele>
        <time>2022-01-19T13:30:05.000Z</time>
      </trkpt>
      <trkpt lat="43.56907" lon="6.41743">
        <ele>313</ele>
        <time>2022-01-19T13:30:13.000Z</time>
      </trkpt>
      <trkpt lat="43.56909" lon="6.41736">
        <ele>313.5</ele>
        <time>2022-01-19T13:30:17.899Z</time>
      </trkpt>
      <trkpt lat="43.56912" lon="6.41731">
        <ele>314.1</ele>
        <time>2022-01-19T13:30:24.000Z</time>
      </trkpt>
      <trkpt lat="43.56914" lon="6.41724">
        <ele>314.7</ele>
        <time>2022-01-19T13:30:32.000Z</time>
      </trkpt>
      <trkpt lat="43.56916" lon="6.41719">
        <ele>315.3</ele>
        <time>2022-01-19T13:30:38.000Z</time>
      </trkpt>
      <trkpt lat="43.56919" lon="6.41713">
        <ele>316.4</ele>
        <time>2022-01-19T13:30:47.000Z</time>
      </trkpt>
      <trkpt lat="43.56922" lon="6.41707">
        <ele>316.9</ele>
        <time>2022-01-19T13:30:51.000Z</time>
      </trkpt>
      <trkpt lat="43.56924" lon="6.417">
        <ele>318.6</ele>
        <time>2022-01-19T13:31:04.000Z</time>
      </trkpt>
      <trkpt lat="43.56919" lon="6.41698">
        <ele>319.9</ele>
        <time>2022-01-19T13:31:13.000Z</time>
      </trkpt>
      <trkpt lat="43.56915" lon="6.41699">
        <ele>320.4</ele>
        <time>2022-01-19T13:31:17.000Z</time>
      </trkpt>
      <trkpt lat="43.56915" lon="6.41692">
        <ele>321.8</ele>
        <time>2022-01-19T13:31:25.000Z</time>
      </trkpt>
      <trkpt lat="43.5691" lon="6.41694">
        <ele>322.5</ele>
        <time>2022-01-19T13:31:29.000Z</time>
      </trkpt>
      <trkpt lat="43.56906" lon="6.4169">
        <ele>323.9</ele>
        <time>2022-01-19T13:31:38.000Z</time>
      </trkpt>
      <trkpt lat="43.56907" lon="6.41684">
        <ele>325</ele>
        <time>2022-01-19T13:31:44.000Z</time>
      </trkpt>
      <trkpt lat="43.56907" lon="6.41677">
        <ele>328.9</ele>
        <time>2022-01-19T13:32:11.000Z</time>
      </trkpt>
      <trkpt lat="43.56909" lon="6.41671">
        <ele>330.6</ele>
        <time>2022-01-19T13:32:22.000Z</time>
      </trkpt>
      <trkpt lat="43.56913" lon="6.41666">
        <ele>331.6</ele>
        <time>2022-01-19T13:32:31.000Z</time>
      </trkpt>
      <trkpt lat="43.56915" lon="6.41661">
        <ele>332.3</ele>
        <time>2022-01-19T13:32:42.000Z</time>
      </trkpt>
      <trkpt lat="43.56918" lon="6.41654">
        <ele>332.9</ele>
        <time>2022-01-19T13:32:49.000Z</time>
      </trkpt>
      <trkpt lat="43.5692" lon="6.41648">
        <ele>334</ele>
        <time>2022-01-19T13:32:57.000Z</time>
      </trkpt>
      <trkpt lat="43.56924" lon="6.41647">
        <ele>335</ele>
        <time>2022-01-19T13:33:05.000Z</time>
      </trkpt>
      <trkpt lat="43.56929" lon="6.41644">
        <ele>335.9</ele>
        <time>2022-01-19T13:33:16.000Z</time>
      </trkpt>
      <trkpt lat="43.56934" lon="6.4164">
        <ele>336.7</ele>
        <time>2022-01-19T13:33:23.000Z</time>
      </trkpt>
      <trkpt lat="43.56938" lon="6.41639">
        <ele>338.4</ele>
        <time>2022-01-19T13:33:37.000Z</time>
      </trkpt>
      <trkpt lat="43.56943" lon="6.41635">
        <ele>340.3</ele>
        <time>2022-01-19T13:33:54.000Z</time>
      </trkpt>
      <trkpt lat="43.56946" lon="6.41631">
        <ele>341.4</ele>
        <time>2022-01-19T13:34:16.000Z</time>
      </trkpt>
      <trkpt lat="43.56951" lon="6.41633">
        <ele>342.1</ele>
        <time>2022-01-19T13:34:40.000Z</time>
      </trkpt>
      <trkpt lat="43.56956" lon="6.41634">
        <ele>342.2</ele>
        <time>2022-01-19T13:34:49.000Z</time>
      </trkpt>
      <trkpt lat="43.56961" lon="6.41636">
        <ele>342.3</ele>
        <time>2022-01-19T13:34:58.000Z</time>
      </trkpt>
      <trkpt lat="43.56966" lon="6.41635">
        <ele>342.1</ele>
        <time>2022-01-19T13:35:05.000Z</time>
      </trkpt>
      <trkpt lat="43.5697" lon="6.41637">
        <ele>341.9</ele>
        <time>2022-01-19T13:35:16.000Z</time>
      </trkpt>
      <trkpt lat="43.56973" lon="6.41643">
        <ele>342.5</ele>
        <time>2022-01-19T13:35:26.000Z</time>
      </trkpt>
      <trkpt lat="43.56977" lon="6.41646">
        <ele>343</ele>
        <time>2022-01-19T13:35:33.000Z</time>
      </trkpt>
      <trkpt lat="43.56982" lon="6.41647">
        <ele>343.4</ele>
        <time>2022-01-19T13:35:38.000Z</time>
      </trkpt>
      <trkpt lat="43.56986" lon="6.41645">
        <ele>344.1</ele>
        <time>2022-01-19T13:35:45.000Z</time>
      </trkpt>
      <trkpt lat="43.5699" lon="6.41642">
        <ele>344.7</ele>
        <time>2022-01-19T13:35:50.000Z</time>
      </trkpt>
      <trkpt lat="43.56994" lon="6.41644">
        <ele>346.3</ele>
        <time>2022-01-19T13:36:04.000Z</time>
      </trkpt>
      <trkpt lat="43.56999" lon="6.41643">
        <ele>347.2</ele>
        <time>2022-01-19T13:36:14.000Z</time>
      </trkpt>
      <trkpt lat="43.57004" lon="6.41643">
        <ele>348.3</ele>
        <time>2022-01-19T13:36:22.000Z</time>
      </trkpt>
      <trkpt lat="43.57009" lon="6.41642">
        <ele>349.2</ele>
        <time>2022-01-19T13:36:30.000Z</time>
      </trkpt>
      <trkpt lat="43.57012" lon="6.41638">
        <ele>349.9</ele>
        <time>2022-01-19T13:36:36.000Z</time>
      </trkpt>
      <trkpt lat="43.57015" lon="6.41632">
        <ele>350.8</ele>
        <time>2022-01-19T13:36:45.000Z</time>
      </trkpt>
      <trkpt lat="43.57019" lon="6.41629">
        <ele>352.3</ele>
        <time>2022-01-19T13:36:56.000Z</time>
      </trkpt>
      <trkpt lat="43.57023" lon="6.41627">
        <ele>354.3</ele>
        <time>2022-01-19T13:37:08.000Z</time>
      </trkpt>
      <trkpt lat="43.57027" lon="6.41623">
        <ele>356.6</ele>
        <time>2022-01-19T13:37:21.000Z</time>
      </trkpt>
      <trkpt lat="43.57031" lon="6.41619">
        <ele>357.6</ele>
        <time>2022-01-19T13:37:28.000Z</time>
      </trkpt>
      <trkpt lat="43.57035" lon="6.41615">
        <ele>358.8</ele>
        <time>2022-01-19T13:37:36.000Z</time>
      </trkpt>
      <trkpt lat="43.5704" lon="6.41611">
        <ele>360.4</ele>
        <time>2022-01-19T13:37:50.000Z</time>
      </trkpt>
      <trkpt lat="43.57042" lon="6.41605">
        <ele>361.2</ele>
        <time>2022-01-19T13:37:55.000Z</time>
      </trkpt>
      <trkpt lat="43.57045" lon="6.416">
        <ele>362.3</ele>
        <time>2022-01-19T13:38:05.000Z</time>
      </trkpt>
      <trkpt lat="43.57048" lon="6.41596">
        <ele>363.1</ele>
        <time>2022-01-19T13:38:14.000Z</time>
      </trkpt>
      <trkpt lat="43.57046" lon="6.4159">
        <ele>365.2</ele>
        <time>2022-01-19T13:38:35.000Z</time>
      </trkpt>
      <trkpt lat="43.57046" lon="6.41583">
        <ele>366.6</ele>
        <time>2022-01-19T13:38:47.000Z</time>
      </trkpt>
      <trkpt lat="43.57044" lon="6.41576">
        <ele>367.9</ele>
        <time>2022-01-19T13:38:55.000Z</time>
      </trkpt>
      <trkpt lat="43.57043" lon="6.4157">
        <ele>369.4</ele>
        <time>2022-01-19T13:39:04.000Z</time>
      </trkpt>
      <trkpt lat="43.57045" lon="6.41564">
        <ele>370.6</ele>
        <time>2022-01-19T13:39:11.000Z</time>
      </trkpt>
      <trkpt lat="43.57046" lon="6.41558">
        <ele>372.1</ele>
        <time>2022-01-19T13:39:22.000Z</time>
      </trkpt>
      <trkpt lat="43.5705" lon="6.41554">
        <ele>373.7</ele>
        <time>2022-01-19T13:39:33.000Z</time>
      </trkpt>
      <trkpt lat="43.57052" lon="6.41549">
        <ele>375.4</ele>
        <time>2022-01-19T13:39:48.000Z</time>
      </trkpt>
      <trkpt lat="43.57052" lon="6.41542">
        <ele>376.8</ele>
        <time>2022-01-19T13:39:57.000Z</time>
      </trkpt>
      <trkpt lat="43.57054" lon="6.41536">
        <ele>378</ele>
        <time>2022-01-19T13:40:05.000Z</time>
      </trkpt>
      <trkpt lat="43.57056" lon="6.41531">
        <ele>379.5</ele>
        <time>2022-01-19T13:40:14.000Z</time>
      </trkpt>
      <trkpt lat="43.57058" lon="6.41525">
        <ele>381</ele>
        <time>2022-01-19T13:40:24.000Z</time>
      </trkpt>
      <trkpt lat="43.57059" lon="6.41519">
        <ele>382.2</ele>
        <time>2022-01-19T13:40:33.000Z</time>
      </trkpt>
      <trkpt lat="43.57059" lon="6.41513">
        <ele>383.5</ele>
        <time>2022-01-19T13:40:39.000Z</time>
      </trkpt>
      <trkpt lat="43.57059" lon="6.41506">
        <ele>385.1</ele>
        <time>2022-01-19T13:40:50.000Z</time>
      </trkpt>
      <trkpt lat="43.57061" lon="6.415">
        <ele>386.7</ele>
        <time>2022-01-19T13:41:00.000Z</time>
      </trkpt>
      <trkpt lat="43.57061" lon="6.41493">
        <ele>388.1</ele>
        <time>2022-01-19T13:41:08.000Z</time>
      </trkpt>
      <trkpt lat="43.57063" lon="6.41488">
        <ele>388.8</ele>
        <time>2022-01-19T13:41:12.000Z</time>
      </trkpt>
      <trkpt lat="43.57066" lon="6.41482">
        <ele>390.2</ele>
        <time>2022-01-19T13:41:20.000Z</time>
      </trkpt>
      <trkpt lat="43.57068" lon="6.41477">
        <ele>392.4</ele>
        <time>2022-01-19T13:41:33.000Z</time>
      </trkpt>
      <trkpt lat="43.5707" lon="6.41471">
        <ele>394.3</ele>
        <time>2022-01-19T13:41:45.000Z</time>
      </trkpt>
      <trkpt lat="43.57073" lon="6.41466">
        <ele>395.3</ele>
        <time>2022-01-19T13:41:52.000Z</time>
      </trkpt>
      <trkpt lat="43.57075" lon="6.4146">
        <ele>395.7</ele>
        <time>2022-01-19T13:41:56.000Z</time>
      </trkpt>
      <trkpt lat="43.57079" lon="6.41456">
        <ele>396.2</ele>
        <time>2022-01-19T13:42:02.000Z</time>
      </trkpt>
      <trkpt lat="43.57082" lon="6.41451">
        <ele>397</ele>
        <time>2022-01-19T13:42:10.000Z</time>
      </trkpt>
      <trkpt lat="43.57083" lon="6.41444">
        <ele>398</ele>
        <time>2022-01-19T13:42:22.000Z</time>
      </trkpt>
      <trkpt lat="43.57083" lon="6.41438">
        <ele>401</ele>
        <time>2022-01-19T13:42:34.000Z</time>
      </trkpt>
      <trkpt lat="43.57084" lon="6.41431">
        <ele>402.3</ele>
        <time>2022-01-19T13:42:41.000Z</time>
      </trkpt>
      <trkpt lat="43.57086" lon="6.41425">
        <ele>403.2</ele>
        <time>2022-01-19T13:42:47.000Z</time>
      </trkpt>
      <trkpt lat="43.57083" lon="6.41421">
        <ele>405</ele>
        <time>2022-01-19T13:42:58.000Z</time>
      </trkpt>
      <trkpt lat="43.57083" lon="6.41414">
        <ele>406.3</ele>
        <time>2022-01-19T13:43:07.000Z</time>
      </trkpt>
      <trkpt lat="43.57086" lon="6.41408">
        <ele>407.3</ele>
        <time>2022-01-19T13:43:13.000Z</time>
      </trkpt>
      <trkpt lat="43.57087" lon="6.41402">
        <ele>408.4</ele>
        <time>2022-01-19T13:43:21.000Z</time>
      </trkpt>
      <trkpt lat="43.57089" lon="6.41396">
        <ele>409.6</ele>
        <time>2022-01-19T13:43:29.000Z</time>
      </trkpt>
      <trkpt lat="43.57091" lon="6.41391">
        <ele>410.9</ele>
        <time>2022-01-19T13:43:36.000Z</time>
      </trkpt>
      <trkpt lat="43.57094" lon="6.41384">
        <ele>411.6</ele>
        <time>2022-01-19T13:43:41.000Z</time>
      </trkpt>
      <trkpt lat="43.57097" lon="6.41377">
        <ele>412.3</ele>
        <time>2022-01-19T13:43:46.000Z</time>
      </trkpt>
      <trkpt lat="43.57097" lon="6.4137">
        <ele>414.1</ele>
        <time>2022-01-19T13:43:57.000Z</time>
      </trkpt>
      <trkpt lat="43.57099" lon="6.41364">
        <ele>415.2</ele>
        <time>2022-01-19T13:44:04.000Z</time>
      </trkpt>
      <trkpt lat="43.571" lon="6.41358">
        <ele>417.5</ele>
        <time>2022-01-19T13:44:17.000Z</time>
      </trkpt>
      <trkpt lat="43.57103" lon="6.41352">
        <ele>419.5</ele>
        <time>2022-01-19T13:44:28.000Z</time>
      </trkpt>
      <trkpt lat="43.57103" lon="6.41345">
        <ele>420.8</ele>
        <time>2022-01-19T13:44:36.000Z</time>
      </trkpt>
      <trkpt lat="43.57101" lon="6.4134">
        <ele>422.5</ele>
        <time>2022-01-19T13:44:46.000Z</time>
      </trkpt>
      <trkpt lat="43.571" lon="6.41333">
        <ele>423.4</ele>
        <time>2022-01-19T13:44:52.000Z</time>
      </trkpt>
      <trkpt lat="43.57101" lon="6.41327">
        <ele>424.4</ele>
        <time>2022-01-19T13:45:01.000Z</time>
      </trkpt>
      <trkpt lat="43.57106" lon="6.41325">
        <ele>425.5</ele>
        <time>2022-01-19T13:45:11.000Z</time>
      </trkpt>
      <trkpt lat="43.57107" lon="6.41319">
        <ele>426.3</ele>
        <time>2022-01-19T13:45:18.000Z</time>
      </trkpt>
      <trkpt lat="43.5711" lon="6.41313">
        <ele>427.1</ele>
        <time>2022-01-19T13:45:24.000Z</time>
      </trkpt>
      <trkpt lat="43.5711" lon="6.41306">
        <ele>428</ele>
        <time>2022-01-19T13:45:32.000Z</time>
      </trkpt>
      <trkpt lat="43.57113" lon="6.413">
        <ele>428.6</ele>
        <time>2022-01-19T13:45:37.000Z</time>
      </trkpt>
      <trkpt lat="43.57115" lon="6.41294">
        <ele>429.1</ele>
        <time>2022-01-19T13:45:42.000Z</time>
      </trkpt>
      <trkpt lat="43.57119" lon="6.4129">
        <ele>429.9</ele>
        <time>2022-01-19T13:45:49.000Z</time>
      </trkpt>
      <trkpt lat="43.57122" lon="6.41285">
        <ele>430.7</ele>
        <time>2022-01-19T13:45:54.000Z</time>
      </trkpt>
      <trkpt lat="43.57125" lon="6.4128">
        <ele>431.5</ele>
        <time>2022-01-19T13:46:01.000Z</time>
      </trkpt>
      <trkpt lat="43.57128" lon="6.41274">
        <ele>432.4</ele>
        <time>2022-01-19T13:46:08.000Z</time>
      </trkpt>
      <trkpt lat="43.57133" lon="6.4127">
        <ele>433</ele>
        <time>2022-01-19T13:46:14.000Z</time>
      </trkpt>
      <trkpt lat="43.57136" lon="6.41265">
        <ele>433.7</ele>
        <time>2022-01-19T13:46:22.000Z</time>
      </trkpt>
      <trkpt lat="43.57136" lon="6.41258">
        <ele>434.5</ele>
        <time>2022-01-19T13:46:30.000Z</time>
      </trkpt>
      <trkpt lat="43.57136" lon="6.41251">
        <ele>435</ele>
        <time>2022-01-19T13:46:37.000Z</time>
      </trkpt>
      <trkpt lat="43.57136" lon="6.41243">
        <ele>435.3</ele>
        <time>2022-01-19T13:46:43.000Z</time>
      </trkpt>
      <trkpt lat="43.57136" lon="6.41237">
        <ele>435.4</ele>
        <time>2022-01-19T13:46:46.000Z</time>
      </trkpt>
      <trkpt lat="43.57135" lon="6.4123">
        <ele>435.8</ele>
        <time>2022-01-19T13:46:51.000Z</time>
      </trkpt>
      <trkpt lat="43.57133" lon="6.41224">
        <ele>436.4</ele>
        <time>2022-01-19T13:46:56.000Z</time>
      </trkpt>
      <trkpt lat="43.57133" lon="6.41217">
        <ele>437.7</ele>
        <time>2022-01-19T13:47:04.000Z</time>
      </trkpt>
      <trkpt lat="43.57134" lon="6.41211">
        <ele>438.4</ele>
        <time>2022-01-19T13:47:09.000Z</time>
      </trkpt>
      <trkpt lat="43.57136" lon="6.41204">
        <ele>439</ele>
        <time>2022-01-19T13:47:13.000Z</time>
      </trkpt>
      <trkpt lat="43.57137" lon="6.41197">
        <ele>439.4</ele>
        <time>2022-01-19T13:47:17.000Z</time>
      </trkpt>
      <trkpt lat="43.5714" lon="6.41191">
        <ele>440.3</ele>
        <time>2022-01-19T13:47:23.000Z</time>
      </trkpt>
      <trkpt lat="43.57143" lon="6.41185">
        <ele>440.9</ele>
        <time>2022-01-19T13:47:28.000Z</time>
      </trkpt>
      <trkpt lat="43.57145" lon="6.41179">
        <ele>441.4</ele>
        <time>2022-01-19T13:47:35.000Z</time>
      </trkpt>
      <trkpt lat="43.57147" lon="6.41173">
        <ele>441.9</ele>
        <time>2022-01-19T13:47:40.000Z</time>
      </trkpt>
      <trkpt lat="43.57149" lon="6.41166">
        <ele>442.2</ele>
        <time>2022-01-19T13:47:44.000Z</time>
      </trkpt>
      <trkpt lat="43.57149" lon="6.4116">
        <ele>442.6</ele>
        <time>2022-01-19T13:47:49.000Z</time>
      </trkpt>
      <trkpt lat="43.57152" lon="6.41154">
        <ele>443</ele>
        <time>2022-01-19T13:47:58.000Z</time>
      </trkpt>
      <trkpt lat="43.57156" lon="6.41149">
        <ele>443.1</ele>
        <time>2022-01-19T13:48:03.000Z</time>
      </trkpt>
      <trkpt lat="43.57157" lon="6.41143">
        <ele>443.4</ele>
        <time>2022-01-19T13:48:13.000Z</time>
      </trkpt>
      <trkpt lat="43.57153" lon="6.41142">
        <ele>445</ele>
        <time>2022-01-19T13:49:52.000Z</time>
      </trkpt>
      <trkpt lat="43.57155" lon="6.41136">
        <ele>445.6</ele>
        <time>2022-01-19T13:51:10.000Z</time>
      </trkpt>
      <trkpt lat="43.57158" lon="6.41131">
        <ele>445.8</ele>
        <time>2022-01-19T13:51:19.000Z</time>
      </trkpt>
      <trkpt lat="43.57159" lon="6.41124">
        <ele>445.9</ele>
        <time>2022-01-19T13:51:24.000Z</time>
      </trkpt>
      <trkpt lat="43.57162" lon="6.41118">
        <ele>445.8</ele>
        <time>2022-01-19T13:51:29.000Z</time>
      </trkpt>
      <trkpt lat="43.57165" lon="6.41112">
        <ele>445.7</ele>
        <time>2022-01-19T13:51:35.000Z</time>
      </trkpt>
      <trkpt lat="43.57166" lon="6.41104">
        <ele>445.5</ele>
        <time>2022-01-19T13:51:39.000Z</time>
      </trkpt>
      <trkpt lat="43.57168" lon="6.41097">
        <ele>445.4</ele>
        <time>2022-01-19T13:51:43.000Z</time>
      </trkpt>
      <trkpt lat="43.57172" lon="6.41091">
        <ele>445.2</ele>
        <time>2022-01-19T13:51:51.000Z</time>
      </trkpt>
      <trkpt lat="43.57175" lon="6.41087">
        <ele>445.1</ele>
        <time>2022-01-19T13:51:54.000Z</time>
      </trkpt>
      <trkpt lat="43.57178" lon="6.41082">
        <ele>445.1</ele>
        <time>2022-01-19T13:51:58.000Z</time>
      </trkpt>
      <trkpt lat="43.5718" lon="6.41076">
        <ele>445.1</ele>
        <time>2022-01-19T13:52:01.000Z</time>
      </trkpt>
      <trkpt lat="43.57181" lon="6.4107">
        <ele>445</ele>
        <time>2022-01-19T13:52:07.000Z</time>
      </trkpt>
      <trkpt lat="43.57182" lon="6.41063">
        <ele>445.2</ele>
        <time>2022-01-19T13:52:13.000Z</time>
      </trkpt>
      <trkpt lat="43.57184" lon="6.41057">
        <ele>445.3</ele>
        <time>2022-01-19T13:52:17.000Z</time>
      </trkpt>
      <trkpt lat="43.57187" lon="6.41052">
        <ele>445.7</ele>
        <time>2022-01-19T13:52:26.000Z</time>
      </trkpt>
      <trkpt lat="43.57191" lon="6.41045">
        <ele>446.1</ele>
        <time>2022-01-19T13:52:31.000Z</time>
      </trkpt>
      <trkpt lat="43.57194" lon="6.41039">
        <ele>446.7</ele>
        <time>2022-01-19T13:52:36.000Z</time>
      </trkpt>
      <trkpt lat="43.57197" lon="6.41033">
        <ele>447.1</ele>
        <time>2022-01-19T13:52:41.000Z</time>
      </trkpt>
      <trkpt lat="43.57199" lon="6.41026">
        <ele>447.5</ele>
        <time>2022-01-19T13:52:45.000Z</time>
      </trkpt>
      <trkpt lat="43.572" lon="6.41019">
        <ele>448</ele>
        <time>2022-01-19T13:52:50.000Z</time>
      </trkpt>
      <trkpt lat="43.57194" lon="6.41018">
        <ele>449.2</ele>
        <time>2022-01-19T13:53:00.000Z</time>
      </trkpt>
      <trkpt lat="43.5719" lon="6.4102">
        <ele>449.6</ele>
        <time>2022-01-19T13:53:03.000Z</time>
      </trkpt>
      <trkpt lat="43.57185" lon="6.41021">
        <ele>450.1</ele>
        <time>2022-01-19T13:53:07.000Z</time>
      </trkpt>
      <trkpt lat="43.5718" lon="6.41022">
        <ele>451</ele>
        <time>2022-01-19T13:53:13.000Z</time>
      </trkpt>
      <trkpt lat="43.57177" lon="6.41018">
        <ele>453.4</ele>
        <time>2022-01-19T13:53:28.000Z</time>
      </trkpt>
      <trkpt lat="43.57173" lon="6.41015">
        <ele>454.6</ele>
        <time>2022-01-19T13:53:35.000Z</time>
      </trkpt>
      <trkpt lat="43.57173" lon="6.41009">
        <ele>455.8</ele>
        <time>2022-01-19T13:53:41.000Z</time>
      </trkpt>
      <trkpt lat="43.57169" lon="6.41007">
        <ele>456.9</ele>
        <time>2022-01-19T13:53:49.000Z</time>
      </trkpt>
      <trkpt lat="43.57164" lon="6.41005">
        <ele>457.9</ele>
        <time>2022-01-19T13:53:59.000Z</time>
      </trkpt>
      <trkpt lat="43.57159" lon="6.41005">
        <ele>458.3</ele>
        <time>2022-01-19T13:54:04.000Z</time>
      </trkpt>
      <trkpt lat="43.57155" lon="6.41003">
        <ele>458.9</ele>
        <time>2022-01-19T13:54:13.000Z</time>
      </trkpt>
      <trkpt lat="43.5715" lon="6.41003">
        <ele>459.7</ele>
        <time>2022-01-19T13:54:31.000Z</time>
      </trkpt>
      <trkpt lat="43.5715" lon="6.40996">
        <ele>461.6</ele>
        <time>2022-01-19T13:56:05.000Z</time>
      </trkpt>
      <trkpt lat="43.57145" lon="6.40995">
        <ele>462</ele>
        <time>2022-01-19T13:56:48.000Z</time>
      </trkpt>
      <trkpt lat="43.5715" lon="6.40997">
        <ele>462.4</ele>
        <time>2022-01-19T13:57:20.000Z</time>
      </trkpt>
      <trkpt lat="43.57155" lon="6.40999">
        <ele>462.6</ele>
        <time>2022-01-19T13:57:39.000Z</time>
      </trkpt>
      <trkpt lat="43.57151" lon="6.41004">
        <ele>461.6</ele>
        <time>2022-01-19T13:58:34.000Z</time>
      </trkpt>
      <trkpt lat="43.57151" lon="6.4101">
        <ele>461.4</ele>
        <time>2022-01-19T13:58:46.000Z</time>
      </trkpt>
      <trkpt lat="43.57152" lon="6.41017">
        <ele>461.2</ele>
        <time>2022-01-19T13:58:56.000Z</time>
      </trkpt>
      <trkpt lat="43.57152" lon="6.41023">
        <ele>461.1</ele>
        <time>2022-01-19T13:59:03.000Z</time>
      </trkpt>
      <trkpt lat="43.57153" lon="6.4103">
        <ele>460.7</ele>
        <time>2022-01-19T13:59:18.000Z</time>
      </trkpt>
      <trkpt lat="43.57149" lon="6.41025">
        <ele>460.7</ele>
        <time>2022-01-19T13:59:36.000Z</time>
      </trkpt>
      <trkpt lat="43.57145" lon="6.41023">
        <ele>460.8</ele>
        <time>2022-01-19T13:59:50.000Z</time>
      </trkpt>
      <trkpt lat="43.57142" lon="6.41018">
        <ele>460.8</ele>
        <time>2022-01-19T13:59:58.000Z</time>
      </trkpt>
      <trkpt lat="43.57138" lon="6.41015">
        <ele>460.8</ele>
        <time>2022-01-19T14:00:21.000Z</time>
      </trkpt>
      <trkpt lat="43.57141" lon="6.41011">
        <ele>460.8</ele>
        <time>2022-01-19T14:00:57.000Z</time>
      </trkpt>
      <trkpt lat="43.57146" lon="6.4101">
        <ele>460.8</ele>
        <time>2022-01-19T14:01:03.000Z</time>
      </trkpt>
      <trkpt lat="43.57151" lon="6.41009">
        <ele>460.8</ele>
        <time>2022-01-19T14:01:17.000Z</time>
      </trkpt>
      <trkpt lat="43.57156" lon="6.41008">
        <ele>460.7</ele>
        <time>2022-01-19T14:01:25.000Z</time>
      </trkpt>
      <trkpt lat="43.57152" lon="6.41013">
        <ele>460.4</ele>
        <time>2022-01-19T14:01:42.000Z</time>
      </trkpt>
      <trkpt lat="43.57152" lon="6.4102">
        <ele>460.3</ele>
        <time>2022-01-19T14:01:47.000Z</time>
      </trkpt>
      <trkpt lat="43.57149" lon="6.41025">
        <ele>460.4</ele>
        <time>2022-01-19T14:01:52.000Z</time>
      </trkpt>
      <trkpt lat="43.57146" lon="6.4103">
        <ele>460.4</ele>
        <time>2022-01-19T14:01:58.000Z</time>
      </trkpt>
      <trkpt lat="43.57145" lon="6.41037">
        <ele>460.4</ele>
        <time>2022-01-19T14:02:05.000Z</time>
      </trkpt>
      <trkpt lat="43.57141" lon="6.41041">
        <ele>460.3</ele>
        <time>2022-01-19T14:02:10.000Z</time>
      </trkpt>
      <trkpt lat="43.57137" lon="6.41044">
        <ele>460.3</ele>
        <time>2022-01-19T14:02:17.000Z</time>
      </trkpt>
      <trkpt lat="43.57132" lon="6.41046">
        <ele>460.9</ele>
        <time>2022-01-19T14:02:23.000Z</time>
      </trkpt>
      <trkpt lat="43.57128" lon="6.41048">
        <ele>461.1</ele>
        <time>2022-01-19T14:02:27.000Z</time>
      </trkpt>
      <trkpt lat="43.57122" lon="6.4105">
        <ele>461.6</ele>
        <time>2022-01-19T14:02:32.000Z</time>
      </trkpt>
      <trkpt lat="43.57117" lon="6.4105">
        <ele>462.1</ele>
        <time>2022-01-19T14:02:36.000Z</time>
      </trkpt>
      <trkpt lat="43.57112" lon="6.41049">
        <ele>462.8</ele>
        <time>2022-01-19T14:02:41.000Z</time>
      </trkpt>
      <trkpt lat="43.57107" lon="6.41048">
        <ele>463.8</ele>
        <time>2022-01-19T14:02:46.000Z</time>
      </trkpt>
      <trkpt lat="43.57102" lon="6.41047">
        <ele>464.9</ele>
        <time>2022-01-19T14:02:52.000Z</time>
      </trkpt>
      <trkpt lat="43.57097" lon="6.41044">
        <ele>466.2</ele>
        <time>2022-01-19T14:03:00.000Z</time>
      </trkpt>
      <trkpt lat="43.57092" lon="6.41045">
        <ele>467.4</ele>
        <time>2022-01-19T14:03:09.000Z</time>
      </trkpt>
      <trkpt lat="43.57088" lon="6.41049">
        <ele>467.8</ele>
        <time>2022-01-19T14:03:15.000Z</time>
      </trkpt>
      <trkpt lat="43.57084" lon="6.41053">
        <ele>468.2</ele>
        <time>2022-01-19T14:03:21.000Z</time>
      </trkpt>
      <trkpt lat="43.57078" lon="6.41054">
        <ele>468.8</ele>
        <time>2022-01-19T14:03:28.000Z</time>
      </trkpt>
      <trkpt lat="43.57074" lon="6.41054">
        <ele>469.1</ele>
        <time>2022-01-19T14:03:34.000Z</time>
      </trkpt>
      <trkpt lat="43.57069" lon="6.41056">
        <ele>469.5</ele>
        <time>2022-01-19T14:03:42.000Z</time>
      </trkpt>
      <trkpt lat="43.57064" lon="6.41058">
        <ele>469.6</ele>
        <time>2022-01-19T14:03:46.000Z</time>
      </trkpt>
      <trkpt lat="43.57066" lon="6.41052">
        <ele>469.9</ele>
        <time>2022-01-19T14:04:06.000Z</time>
      </trkpt>
      <trkpt lat="43.57069" lon="6.41048">
        <ele>469.8</ele>
        <time>2022-01-19T14:04:12.000Z</time>
      </trkpt>
      <trkpt lat="43.57064" lon="6.41048">
        <ele>470.5</ele>
        <time>2022-01-19T14:04:32.000Z</time>
      </trkpt>
      <trkpt lat="43.5706" lon="6.41052">
        <ele>470.7</ele>
        <time>2022-01-19T14:04:38.000Z</time>
      </trkpt>
      <trkpt lat="43.57055" lon="6.41053">
        <ele>470.9</ele>
        <time>2022-01-19T14:04:47.000Z</time>
      </trkpt>
      <trkpt lat="43.57052" lon="6.41057">
        <ele>470.9</ele>
        <time>2022-01-19T14:04:52.000Z</time>
      </trkpt>
      <trkpt lat="43.57047" lon="6.41059">
        <ele>471</ele>
        <time>2022-01-19T14:04:58.000Z</time>
      </trkpt>
      <trkpt lat="43.57042" lon="6.4106">
        <ele>471.4</ele>
        <time>2022-01-19T14:05:03.000Z</time>
      </trkpt>
      <trkpt lat="43.57038" lon="6.41062">
        <ele>471.8</ele>
        <time>2022-01-19T14:05:09.000Z</time>
      </trkpt>
      <trkpt lat="43.57033" lon="6.41063">
        <ele>472</ele>
        <time>2022-01-19T14:05:15.000Z</time>
      </trkpt>
      <trkpt lat="43.57028" lon="6.41064">
        <ele>472.6</ele>
        <time>2022-01-19T14:05:22.000Z</time>
      </trkpt>
      <trkpt lat="43.57023" lon="6.41065">
        <ele>473.1</ele>
        <time>2022-01-19T14:05:29.000Z</time>
      </trkpt>
      <trkpt lat="43.57018" lon="6.41065">
        <ele>473.3</ele>
        <time>2022-01-19T14:05:36.000Z</time>
      </trkpt>
      <trkpt lat="43.57013" lon="6.41062">
        <ele>473.4</ele>
        <time>2022-01-19T14:05:40.000Z</time>
      </trkpt>
      <trkpt lat="43.57009" lon="6.41058">
        <ele>473.5</ele>
        <time>2022-01-19T14:05:45.000Z</time>
      </trkpt>
      <trkpt lat="43.57004" lon="6.41057">
        <ele>473.7</ele>
        <time>2022-01-19T14:05:50.000Z</time>
      </trkpt>
      <trkpt lat="43.57" lon="6.41057">
        <ele>473.8</ele>
        <time>2022-01-19T14:05:55.000Z</time>
      </trkpt>
      <trkpt lat="43.56995" lon="6.41057">
        <ele>474.1</ele>
        <time>2022-01-19T14:06:02.000Z</time>
      </trkpt>
      <trkpt lat="43.5699" lon="6.41056">
        <ele>474.4</ele>
        <time>2022-01-19T14:06:07.000Z</time>
      </trkpt>
      <trkpt lat="43.56985" lon="6.41056">
        <ele>474.8</ele>
        <time>2022-01-19T14:06:13.000Z</time>
      </trkpt>
      <trkpt lat="43.5698" lon="6.41057">
        <ele>475.3</ele>
        <time>2022-01-19T14:06:20.000Z</time>
      </trkpt>
      <trkpt lat="43.56976" lon="6.41054">
        <ele>475.6</ele>
        <time>2022-01-19T14:06:25.000Z</time>
      </trkpt>
      <trkpt lat="43.56971" lon="6.41054">
        <ele>476.2</ele>
        <time>2022-01-19T14:06:32.000Z</time>
      </trkpt>
      <trkpt lat="43.56966" lon="6.41052">
        <ele>476.7</ele>
        <time>2022-01-19T14:06:38.000Z</time>
      </trkpt>
      <trkpt lat="43.56961" lon="6.41053">
        <ele>477.1</ele>
        <time>2022-01-19T14:06:44.000Z</time>
      </trkpt>
      <trkpt lat="43.56956" lon="6.41051">
        <ele>477.7</ele>
        <time>2022-01-19T14:06:52.000Z</time>
      </trkpt>
      <trkpt lat="43.56951" lon="6.41054">
        <ele>478.1</ele>
        <time>2022-01-19T14:06:56.000Z</time>
      </trkpt>
      <trkpt lat="43.56946" lon="6.41055">
        <ele>478.7</ele>
        <time>2022-01-19T14:07:03.000Z</time>
      </trkpt>
      <trkpt lat="43.5694" lon="6.41056">
        <ele>479.4</ele>
        <time>2022-01-19T14:07:08.000Z</time>
      </trkpt>
      <trkpt lat="43.56936" lon="6.41057">
        <ele>480.2</ele>
        <time>2022-01-19T14:07:15.000Z</time>
      </trkpt>
      <trkpt lat="43.56929" lon="6.41057">
        <ele>481.2</ele>
        <time>2022-01-19T14:07:26.000Z</time>
      </trkpt>
      <trkpt lat="43.56923" lon="6.41059">
        <ele>481.8</ele>
        <time>2022-01-19T14:07:30.000Z</time>
      </trkpt>
      <trkpt lat="43.56918" lon="6.41061">
        <ele>482.2</ele>
        <time>2022-01-19T14:07:34.000Z</time>
      </trkpt>
      <trkpt lat="43.56913" lon="6.41065">
        <ele>482.5</ele>
        <time>2022-01-19T14:07:38.000Z</time>
      </trkpt>
      <trkpt lat="43.56908" lon="6.41066">
        <ele>482.9</ele>
        <time>2022-01-19T14:07:42.000Z</time>
      </trkpt>
      <trkpt lat="43.56904" lon="6.41065">
        <ele>483.5</ele>
        <time>2022-01-19T14:07:47.000Z</time>
      </trkpt>
      <trkpt lat="43.56899" lon="6.41066">
        <ele>484</ele>
        <time>2022-01-19T14:07:53.000Z</time>
      </trkpt>
      <trkpt lat="43.56894" lon="6.41069">
        <ele>484.6</ele>
        <time>2022-01-19T14:07:58.000Z</time>
      </trkpt>
      <trkpt lat="43.5689" lon="6.41073">
        <ele>484.9</ele>
        <time>2022-01-19T14:08:02.000Z</time>
      </trkpt>
      <trkpt lat="43.56885" lon="6.41076">
        <ele>485.2</ele>
        <time>2022-01-19T14:08:06.000Z</time>
      </trkpt>
      <trkpt lat="43.56881" lon="6.41077">
        <ele>485.7</ele>
        <time>2022-01-19T14:08:11.000Z</time>
      </trkpt>
      <trkpt lat="43.56876" lon="6.4108">
        <ele>486.1</ele>
        <time>2022-01-19T14:08:16.000Z</time>
      </trkpt>
      <trkpt lat="43.56871" lon="6.41081">
        <ele>486.7</ele>
        <time>2022-01-19T14:08:21.000Z</time>
      </trkpt>
      <trkpt lat="43.56867" lon="6.41079">
        <ele>487.1</ele>
        <time>2022-01-19T14:08:25.000Z</time>
      </trkpt>
      <trkpt lat="43.56862" lon="6.41076">
        <ele>487.6</ele>
        <time>2022-01-19T14:08:30.000Z</time>
      </trkpt>
      <trkpt lat="43.56857" lon="6.41074">
        <ele>488</ele>
        <time>2022-01-19T14:08:34.000Z</time>
      </trkpt>
      <trkpt lat="43.56852" lon="6.41074">
        <ele>488.4</ele>
        <time>2022-01-19T14:08:39.000Z</time>
      </trkpt>
      <trkpt lat="43.56847" lon="6.41072">
        <ele>488.9</ele>
        <time>2022-01-19T14:08:44.000Z</time>
      </trkpt>
      <trkpt lat="43.56843" lon="6.4107">
        <ele>489.3</ele>
        <time>2022-01-19T14:08:48.000Z</time>
      </trkpt>
      <trkpt lat="43.56838" lon="6.41068">
        <ele>489.7</ele>
        <time>2022-01-19T14:08:53.000Z</time>
      </trkpt>
      <trkpt lat="43.56833" lon="6.41068">
        <ele>490.1</ele>
        <time>2022-01-19T14:08:58.000Z</time>
      </trkpt>
      <trkpt lat="43.56828" lon="6.41066">
        <ele>490.6</ele>
        <time>2022-01-19T14:09:04.000Z</time>
      </trkpt>
      <trkpt lat="43.56823" lon="6.41064">
        <ele>491</ele>
        <time>2022-01-19T14:09:10.000Z</time>
      </trkpt>
      <trkpt lat="43.56818" lon="6.41062">
        <ele>491.6</ele>
        <time>2022-01-19T14:09:15.000Z</time>
      </trkpt>
      <trkpt lat="43.56814" lon="6.4106">
        <ele>492.1</ele>
        <time>2022-01-19T14:09:21.000Z</time>
      </trkpt>
      <trkpt lat="43.56809" lon="6.41058">
        <ele>492.4</ele>
        <time>2022-01-19T14:09:26.000Z</time>
      </trkpt>
      <trkpt lat="43.56804" lon="6.41056">
        <ele>492.6</ele>
        <time>2022-01-19T14:09:30.000Z</time>
      </trkpt>
      <trkpt lat="43.568" lon="6.41054">
        <ele>492.9</ele>
        <time>2022-01-19T14:09:35.000Z</time>
      </trkpt>
      <trkpt lat="43.56797" lon="6.41049">
        <ele>493.1</ele>
        <time>2022-01-19T14:09:39.000Z</time>
      </trkpt>
      <trkpt lat="43.56792" lon="6.41046">
        <ele>493.7</ele>
        <time>2022-01-19T14:09:45.000Z</time>
      </trkpt>
      <trkpt lat="43.56787" lon="6.41042">
        <ele>494.1</ele>
        <time>2022-01-19T14:09:50.000Z</time>
      </trkpt>
      <trkpt lat="43.56783" lon="6.41038">
        <ele>494.5</ele>
        <time>2022-01-19T14:09:55.000Z</time>
      </trkpt>
      <trkpt lat="43.56778" lon="6.41038">
        <ele>495.1</ele>
        <time>2022-01-19T14:10:00.000Z</time>
      </trkpt>
      <trkpt lat="43.56773" lon="6.41036">
        <ele>495.7</ele>
        <time>2022-01-19T14:10:05.000Z</time>
      </trkpt>
      <trkpt lat="43.56768" lon="6.41032">
        <ele>496.3</ele>
        <time>2022-01-19T14:10:10.000Z</time>
      </trkpt>
      <trkpt lat="43.56764" lon="6.41026">
        <ele>496.7</ele>
        <time>2022-01-19T14:10:15.000Z</time>
      </trkpt>
      <trkpt lat="43.5676" lon="6.41021">
        <ele>497</ele>
        <time>2022-01-19T14:10:19.000Z</time>
      </trkpt>
      <trkpt lat="43.56756" lon="6.41017">
        <ele>497.4</ele>
        <time>2022-01-19T14:10:24.000Z</time>
      </trkpt>
      <trkpt lat="43.56752" lon="6.41013">
        <ele>497.9</ele>
        <time>2022-01-19T14:10:30.000Z</time>
      </trkpt>
      <trkpt lat="43.56749" lon="6.41009">
        <ele>498.2</ele>
        <time>2022-01-19T14:10:35.000Z</time>
      </trkpt>
      <trkpt lat="43.56746" lon="6.41004">
        <ele>498.5</ele>
        <time>2022-01-19T14:10:40.000Z</time>
      </trkpt>
      <trkpt lat="43.56743" lon="6.40998">
        <ele>498.8</ele>
        <time>2022-01-19T14:10:44.000Z</time>
      </trkpt>
      <trkpt lat="43.5674" lon="6.40993">
        <ele>499.2</ele>
        <time>2022-01-19T14:10:50.000Z</time>
      </trkpt>
      <trkpt lat="43.56735" lon="6.40988">
        <ele>499.8</ele>
        <time>2022-01-19T14:10:56.000Z</time>
      </trkpt>
      <trkpt lat="43.56732" lon="6.40983">
        <ele>500.3</ele>
        <time>2022-01-19T14:11:01.000Z</time>
      </trkpt>
      <trkpt lat="43.56727" lon="6.4098">
        <ele>500.6</ele>
        <time>2022-01-19T14:11:06.000Z</time>
      </trkpt>
      <trkpt lat="43.56725" lon="6.40974">
        <ele>501.1</ele>
        <time>2022-01-19T14:11:11.000Z</time>
      </trkpt>
      <trkpt lat="43.56722" lon="6.40969">
        <ele>501.9</ele>
        <time>2022-01-19T14:11:18.000Z</time>
      </trkpt>
      <trkpt lat="43.56719" lon="6.40964">
        <ele>502.5</ele>
        <time>2022-01-19T14:11:22.000Z</time>
      </trkpt>
      <trkpt lat="43.56715" lon="6.40959">
        <ele>503.1</ele>
        <time>2022-01-19T14:11:27.000Z</time>
      </trkpt>
      <trkpt lat="43.56713" lon="6.40953">
        <ele>503.5</ele>
        <time>2022-01-19T14:11:31.000Z</time>
      </trkpt>
      <trkpt lat="43.5671" lon="6.40948">
        <ele>503.8</ele>
        <time>2022-01-19T14:11:36.000Z</time>
      </trkpt>
      <trkpt lat="43.56707" lon="6.40942">
        <ele>504.2</ele>
        <time>2022-01-19T14:11:41.000Z</time>
      </trkpt>
      <trkpt lat="43.56704" lon="6.40938">
        <ele>504.7</ele>
        <time>2022-01-19T14:11:47.000Z</time>
      </trkpt>
      <trkpt lat="43.56702" lon="6.4093">
        <ele>505.1</ele>
        <time>2022-01-19T14:11:52.000Z</time>
      </trkpt>
      <trkpt lat="43.56701" lon="6.40923">
        <ele>505.3</ele>
        <time>2022-01-19T14:11:56.000Z</time>
      </trkpt>
      <trkpt lat="43.56699" lon="6.40917">
        <ele>505.8</ele>
        <time>2022-01-19T14:12:02.000Z</time>
      </trkpt>
      <trkpt lat="43.56698" lon="6.4091">
        <ele>506.3</ele>
        <time>2022-01-19T14:12:08.000Z</time>
      </trkpt>
      <trkpt lat="43.56696" lon="6.40904">
        <ele>506.8</ele>
        <time>2022-01-19T14:12:16.000Z</time>
      </trkpt>
      <trkpt lat="43.56698" lon="6.40898">
        <ele>507.6</ele>
        <time>2022-01-19T14:12:38.000Z</time>
      </trkpt>
      <trkpt lat="43.56702" lon="6.409">
        <ele>506.8</ele>
        <time>2022-01-19T14:15:39.000Z</time>
      </trkpt>
      <trkpt lat="43.56707" lon="6.40902">
        <ele>507.1</ele>
        <time>2022-01-19T14:15:48.000Z</time>
      </trkpt>
      <trkpt lat="43.56711" lon="6.40906">
        <ele>507.6</ele>
        <time>2022-01-19T14:15:55.000Z</time>
      </trkpt>
      <trkpt lat="43.56715" lon="6.4091">
        <ele>508.4</ele>
        <time>2022-01-19T14:16:03.000Z</time>
      </trkpt>
      <trkpt lat="43.56718" lon="6.40914">
        <ele>509.1</ele>
        <time>2022-01-19T14:16:10.000Z</time>
      </trkpt>
      <trkpt lat="43.56723" lon="6.40917">
        <ele>509.7</ele>
        <time>2022-01-19T14:16:17.000Z</time>
      </trkpt>
      <trkpt lat="43.56727" lon="6.4092">
        <ele>510.3</ele>
        <time>2022-01-19T14:16:22.000Z</time>
      </trkpt>
      <trkpt lat="43.56732" lon="6.40922">
        <ele>511</ele>
        <time>2022-01-19T14:16:28.000Z</time>
      </trkpt>
      <trkpt lat="43.56736" lon="6.40926">
        <ele>511.7</ele>
        <time>2022-01-19T14:16:34.000Z</time>
      </trkpt>
      <trkpt lat="43.5674" lon="6.40931">
        <ele>512.6</ele>
        <time>2022-01-19T14:16:40.000Z</time>
      </trkpt>
      <trkpt lat="43.56745" lon="6.40933">
        <ele>513.5</ele>
        <time>2022-01-19T14:16:47.000Z</time>
      </trkpt>
      <trkpt lat="43.5675" lon="6.40935">
        <ele>514.2</ele>
        <time>2022-01-19T14:16:53.000Z</time>
      </trkpt>
      <trkpt lat="43.56755" lon="6.40938">
        <ele>515</ele>
        <time>2022-01-19T14:16:59.000Z</time>
      </trkpt>
      <trkpt lat="43.5676" lon="6.4094">
        <ele>515.7</ele>
        <time>2022-01-19T14:17:05.000Z</time>
      </trkpt>
      <trkpt lat="43.56764" lon="6.40941">
        <ele>516.4</ele>
        <time>2022-01-19T14:17:10.000Z</time>
      </trkpt>
      <trkpt lat="43.5677" lon="6.4094">
        <ele>517.2</ele>
        <time>2022-01-19T14:17:16.000Z</time>
      </trkpt>
      <trkpt lat="43.56774" lon="6.4094">
        <ele>518</ele>
        <time>2022-01-19T14:17:22.000Z</time>
      </trkpt>
      <trkpt lat="43.56779" lon="6.40938">
        <ele>518.5</ele>
        <time>2022-01-19T14:17:27.000Z</time>
      </trkpt>
      <trkpt lat="43.56784" lon="6.40939">
        <ele>519.2</ele>
        <time>2022-01-19T14:17:32.000Z</time>
      </trkpt>
      <trkpt lat="43.56789" lon="6.40938">
        <ele>520</ele>
        <time>2022-01-19T14:17:38.000Z</time>
      </trkpt>
      <trkpt lat="43.56793" lon="6.40935">
        <ele>520.9</ele>
        <time>2022-01-19T14:17:44.000Z</time>
      </trkpt>
      <trkpt lat="43.56798" lon="6.40931">
        <ele>521.6</ele>
        <time>2022-01-19T14:17:50.000Z</time>
      </trkpt>
      <trkpt lat="43.56802" lon="6.40929">
        <ele>522.2</ele>
        <time>2022-01-19T14:17:56.000Z</time>
      </trkpt>
      <trkpt lat="43.56806" lon="6.40926">
        <ele>522.8</ele>
        <time>2022-01-19T14:18:01.000Z</time>
      </trkpt>
      <trkpt lat="43.5681" lon="6.40923">
        <ele>523.5</ele>
        <time>2022-01-19T14:18:08.000Z</time>
      </trkpt>
      <trkpt lat="43.56815" lon="6.40921">
        <ele>524.1</ele>
        <time>2022-01-19T14:18:14.000Z</time>
      </trkpt>
      <trkpt lat="43.5682" lon="6.40919">
        <ele>524.5</ele>
        <time>2022-01-19T14:18:19.000Z</time>
      </trkpt>
      <trkpt lat="43.56825" lon="6.40918">
        <ele>525.2</ele>
        <time>2022-01-19T14:18:26.000Z</time>
      </trkpt>
      <trkpt lat="43.56829" lon="6.40915">
        <ele>526.3</ele>
        <time>2022-01-19T14:18:33.000Z</time>
      </trkpt>
      <trkpt lat="43.56834" lon="6.40911">
        <ele>527</ele>
        <time>2022-01-19T14:18:38.000Z</time>
      </trkpt>
      <trkpt lat="43.56838" lon="6.40906">
        <ele>527.6</ele>
        <time>2022-01-19T14:18:44.000Z</time>
      </trkpt>
      <trkpt lat="43.5684" lon="6.409">
        <ele>528.3</ele>
        <time>2022-01-19T14:18:49.000Z</time>
      </trkpt>
      <trkpt lat="43.56842" lon="6.40894">
        <ele>528.9</ele>
        <time>2022-01-19T14:18:54.000Z</time>
      </trkpt>
      <trkpt lat="43.56841" lon="6.40887">
        <ele>529.4</ele>
        <time>2022-01-19T14:19:00.000Z</time>
      </trkpt>
      <trkpt lat="43.56839" lon="6.4088">
        <ele>529.9</ele>
        <time>2022-01-19T14:19:07.000Z</time>
      </trkpt>
      <trkpt lat="43.56835" lon="6.40876">
        <ele>530.4</ele>
        <time>2022-01-19T14:19:13.000Z</time>
      </trkpt>
      <trkpt lat="43.56831" lon="6.40873">
        <ele>531</ele>
        <time>2022-01-19T14:19:19.000Z</time>
      </trkpt>
      <trkpt lat="43.56826" lon="6.40871">
        <ele>531.5</ele>
        <time>2022-01-19T14:19:25.000Z</time>
      </trkpt>
      <trkpt lat="43.56821" lon="6.40868">
        <ele>532</ele>
        <time>2022-01-19T14:19:33.000Z</time>
      </trkpt>
      <trkpt lat="43.56818" lon="6.40864">
        <ele>532.5</ele>
        <time>2022-01-19T14:19:38.000Z</time>
      </trkpt>
      <trkpt lat="43.56815" lon="6.40858">
        <ele>533.3</ele>
        <time>2022-01-19T14:19:45.000Z</time>
      </trkpt>
      <trkpt lat="43.56814" lon="6.40851">
        <ele>533.7</ele>
        <time>2022-01-19T14:19:50.000Z</time>
      </trkpt>
      <trkpt lat="43.56813" lon="6.40844">
        <ele>534.1</ele>
        <time>2022-01-19T14:19:55.000Z</time>
      </trkpt>
      <trkpt lat="43.56811" lon="6.40837">
        <ele>534.6</ele>
        <time>2022-01-19T14:20:02.000Z</time>
      </trkpt>
      <trkpt lat="43.56815" lon="6.40833">
        <ele>534.9</ele>
        <time>2022-01-19T14:20:10.000Z</time>
      </trkpt>
      <trkpt lat="43.56813" lon="6.40827">
        <ele>535</ele>
        <time>2022-01-19T14:20:32.000Z</time>
      </trkpt>
      <trkpt lat="43.5681" lon="6.40822">
        <ele>534.9</ele>
        <time>2022-01-19T14:21:03.000Z</time>
      </trkpt>
      <trkpt lat="43.56815" lon="6.40821">
        <ele>534.7</ele>
        <time>2022-01-19T14:21:32.000Z</time>
      </trkpt>
      <trkpt lat="43.56819" lon="6.40825">
        <ele>534.6</ele>
        <time>2022-01-19T14:21:47.000Z</time>
      </trkpt>
      <trkpt lat="43.56824" lon="6.40825">
        <ele>534.4</ele>
        <time>2022-01-19T14:22:01.000Z</time>
      </trkpt>
      <trkpt lat="43.56828" lon="6.40822">
        <ele>534.4</ele>
        <time>2022-01-19T14:22:10.000Z</time>
      </trkpt>
      <trkpt lat="43.56833" lon="6.40819">
        <ele>534.9</ele>
        <time>2022-01-19T14:22:17.000Z</time>
      </trkpt>
      <trkpt lat="43.56836" lon="6.40813">
        <ele>535.5</ele>
        <time>2022-01-19T14:22:26.000Z</time>
      </trkpt>
      <trkpt lat="43.56837" lon="6.40806">
        <ele>536.4</ele>
        <time>2022-01-19T14:22:36.000Z</time>
      </trkpt>
      <trkpt lat="43.56835" lon="6.40799">
        <ele>536.7</ele>
        <time>2022-01-19T14:22:42.000Z</time>
      </trkpt>
      <trkpt lat="43.56835" lon="6.40792">
        <ele>537</ele>
        <time>2022-01-19T14:22:46.000Z</time>
      </trkpt>
      <trkpt lat="43.56835" lon="6.40785">
        <ele>537.4</ele>
        <time>2022-01-19T14:22:50.000Z</time>
      </trkpt>
      <trkpt lat="43.56836" lon="6.40778">
        <ele>537.7</ele>
        <time>2022-01-19T14:22:54.000Z</time>
      </trkpt>
      <trkpt lat="43.56839" lon="6.40772">
        <ele>538</ele>
        <time>2022-01-19T14:22:58.000Z</time>
      </trkpt>
      <trkpt lat="43.56842" lon="6.40766">
        <ele>538.3</ele>
        <time>2022-01-19T14:23:02.000Z</time>
      </trkpt>
      <trkpt lat="43.56845" lon="6.40759">
        <ele>538.6</ele>
        <time>2022-01-19T14:23:08.000Z</time>
      </trkpt>
      <trkpt lat="43.56847" lon="6.40753">
        <ele>538.8</ele>
        <time>2022-01-19T14:23:14.000Z</time>
      </trkpt>
      <trkpt lat="43.5685" lon="6.40748">
        <ele>538.9</ele>
        <time>2022-01-19T14:23:19.000Z</time>
      </trkpt>
      <trkpt lat="43.56852" lon="6.40741">
        <ele>539</ele>
        <time>2022-01-19T14:23:25.000Z</time>
      </trkpt>
      <trkpt lat="43.56854" lon="6.40734">
        <ele>539.4</ele>
        <time>2022-01-19T14:23:32.000Z</time>
      </trkpt>
      <trkpt lat="43.56855" lon="6.40728">
        <ele>539.7</ele>
        <time>2022-01-19T14:23:36.000Z</time>
      </trkpt>
      <trkpt lat="43.56857" lon="6.40722">
        <ele>539.9</ele>
        <time>2022-01-19T14:23:41.000Z</time>
      </trkpt>
      <trkpt lat="43.56859" lon="6.40716">
        <ele>540.2</ele>
        <time>2022-01-19T14:23:46.000Z</time>
      </trkpt>
      <trkpt lat="43.56861" lon="6.4071">
        <ele>540.5</ele>
        <time>2022-01-19T14:23:50.000Z</time>
      </trkpt>
      <trkpt lat="43.56864" lon="6.40705">
        <ele>540.9</ele>
        <time>2022-01-19T14:23:55.000Z</time>
      </trkpt>
      <trkpt lat="43.56869" lon="6.40702">
        <ele>541.6</ele>
        <time>2022-01-19T14:24:00.000Z</time>
      </trkpt>
      <trkpt lat="43.56874" lon="6.407">
        <ele>542.1</ele>
        <time>2022-01-19T14:24:05.000Z</time>
      </trkpt>
      <trkpt lat="43.56878" lon="6.40698">
        <ele>542.8</ele>
        <time>2022-01-19T14:24:10.000Z</time>
      </trkpt>
      <trkpt lat="43.56883" lon="6.40695">
        <ele>543.6</ele>
        <time>2022-01-19T14:24:16.000Z</time>
      </trkpt>
      <trkpt lat="43.56888" lon="6.40692">
        <ele>544</ele>
        <time>2022-01-19T14:24:21.000Z</time>
      </trkpt>
      <trkpt lat="43.56892" lon="6.40688">
        <ele>544.5</ele>
        <time>2022-01-19T14:24:27.000Z</time>
      </trkpt>
      <trkpt lat="43.56897" lon="6.40685">
        <ele>545</ele>
        <time>2022-01-19T14:24:32.000Z</time>
      </trkpt>
      <trkpt lat="43.56901" lon="6.4068">
        <ele>545.7</ele>
        <time>2022-01-19T14:24:38.000Z</time>
      </trkpt>
      <trkpt lat="43.56904" lon="6.40674">
        <ele>546.7</ele>
        <time>2022-01-19T14:24:45.000Z</time>
      </trkpt>
      <trkpt lat="43.56907" lon="6.40668">
        <ele>547.4</ele>
        <time>2022-01-19T14:24:51.000Z</time>
      </trkpt>
      <trkpt lat="43.56909" lon="6.40662">
        <ele>548</ele>
        <time>2022-01-19T14:24:56.000Z</time>
      </trkpt>
      <trkpt lat="43.5691" lon="6.40656">
        <ele>548.5</ele>
        <time>2022-01-19T14:25:01.000Z</time>
      </trkpt>
      <trkpt lat="43.56912" lon="6.40649">
        <ele>549.1</ele>
        <time>2022-01-19T14:25:06.000Z</time>
      </trkpt>
      <trkpt lat="43.56914" lon="6.40643">
        <ele>549.7</ele>
        <time>2022-01-19T14:25:11.000Z</time>
      </trkpt>
      <trkpt lat="43.56913" lon="6.40636">
        <ele>550.3</ele>
        <time>2022-01-19T14:25:16.000Z</time>
      </trkpt>
      <trkpt lat="43.56912" lon="6.4063">
        <ele>550.8</ele>
        <time>2022-01-19T14:25:22.000Z</time>
      </trkpt>
      <trkpt lat="43.56911" lon="6.40623">
        <ele>551.2</ele>
        <time>2022-01-19T14:25:28.000Z</time>
      </trkpt>
      <trkpt lat="43.56909" lon="6.40616">
        <ele>551.6</ele>
        <time>2022-01-19T14:25:34.000Z</time>
      </trkpt>
      <trkpt lat="43.56908" lon="6.4061">
        <ele>552</ele>
        <time>2022-01-19T14:25:38.000Z</time>
      </trkpt>
      <trkpt lat="43.56906" lon="6.40604">
        <ele>552.2</ele>
        <time>2022-01-19T14:25:42.000Z</time>
      </trkpt>
      <trkpt lat="43.56906" lon="6.40596">
        <ele>552.4</ele>
        <time>2022-01-19T14:25:46.000Z</time>
      </trkpt>
      <trkpt lat="43.56906" lon="6.40588">
        <ele>552.6</ele>
        <time>2022-01-19T14:25:50.000Z</time>
      </trkpt>
      <trkpt lat="43.56907" lon="6.40581">
        <ele>552.8</ele>
        <time>2022-01-19T14:25:54.000Z</time>
      </trkpt>
      <trkpt lat="43.56909" lon="6.40575">
        <ele>553</ele>
        <time>2022-01-19T14:25:58.000Z</time>
      </trkpt>
      <trkpt lat="43.56912" lon="6.4057">
        <ele>553.1</ele>
        <time>2022-01-19T14:26:02.000Z</time>
      </trkpt>
      <trkpt lat="43.56917" lon="6.40567">
        <ele>553.5</ele>
        <time>2022-01-19T14:26:08.000Z</time>
      </trkpt>
      <trkpt lat="43.56921" lon="6.40564">
        <ele>553.7</ele>
        <time>2022-01-19T14:26:13.000Z</time>
      </trkpt>
      <trkpt lat="43.56924" lon="6.40559">
        <ele>553.8</ele>
        <time>2022-01-19T14:26:19.000Z</time>
      </trkpt>
      <trkpt lat="43.56929" lon="6.40555">
        <ele>553.7</ele>
        <time>2022-01-19T14:26:24.000Z</time>
      </trkpt>
      <trkpt lat="43.56934" lon="6.40555">
        <ele>553.6</ele>
        <time>2022-01-19T14:26:29.000Z</time>
      </trkpt>
      <trkpt lat="43.56937" lon="6.40551">
        <ele>553.6</ele>
        <time>2022-01-19T14:26:33.000Z</time>
      </trkpt>
      <trkpt lat="43.5694" lon="6.40543">
        <ele>553.6</ele>
        <time>2022-01-19T14:26:38.000Z</time>
      </trkpt>
      <trkpt lat="43.56943" lon="6.40536">
        <ele>553.5</ele>
        <time>2022-01-19T14:26:43.000Z</time>
      </trkpt>
      <trkpt lat="43.56945" lon="6.40531">
        <ele>553.4</ele>
        <time>2022-01-19T14:26:47.000Z</time>
      </trkpt>
      <trkpt lat="43.56948" lon="6.40524">
        <ele>553.3</ele>
        <time>2022-01-19T14:26:52.000Z</time>
      </trkpt>
      <trkpt lat="43.5695" lon="6.40517">
        <ele>553.2</ele>
        <time>2022-01-19T14:26:57.000Z</time>
      </trkpt>
      <trkpt lat="43.56953" lon="6.40512">
        <ele>553.1</ele>
        <time>2022-01-19T14:27:01.000Z</time>
      </trkpt>
      <trkpt lat="43.56953" lon="6.40505">
        <ele>553</ele>
        <time>2022-01-19T14:27:07.000Z</time>
      </trkpt>
      <trkpt lat="43.56953" lon="6.40497">
        <ele>552.9</ele>
        <time>2022-01-19T14:27:11.000Z</time>
      </trkpt>
      <trkpt lat="43.56954" lon="6.40491">
        <ele>552.8</ele>
        <time>2022-01-19T14:27:15.000Z</time>
      </trkpt>
      <trkpt lat="43.56955" lon="6.40483">
        <ele>552.8</ele>
        <time>2022-01-19T14:27:20.000Z</time>
      </trkpt>
      <trkpt lat="43.56957" lon="6.40478">
        <ele>552.7</ele>
        <time>2022-01-19T14:27:24.000Z</time>
      </trkpt>
      <trkpt lat="43.56959" lon="6.40472">
        <ele>552.7</ele>
        <time>2022-01-19T14:27:28.000Z</time>
      </trkpt>
      <trkpt lat="43.5696" lon="6.40464">
        <ele>552.6</ele>
        <time>2022-01-19T14:27:32.000Z</time>
      </trkpt>
      <trkpt lat="43.56961" lon="6.40457">
        <ele>552.5</ele>
        <time>2022-01-19T14:27:36.000Z</time>
      </trkpt>
      <trkpt lat="43.56964" lon="6.40451">
        <ele>552.5</ele>
        <time>2022-01-19T14:27:40.000Z</time>
      </trkpt>
      <trkpt lat="43.56966" lon="6.40446">
        <ele>552.5</ele>
        <time>2022-01-19T14:27:44.000Z</time>
      </trkpt>
      <trkpt lat="43.56968" lon="6.40439">
        <ele>552.6</ele>
        <time>2022-01-19T14:27:48.000Z</time>
      </trkpt>
      <trkpt lat="43.5697" lon="6.40434">
        <ele>552.7</ele>
        <time>2022-01-19T14:27:53.000Z</time>
      </trkpt>
      <trkpt lat="43.56973" lon="6.40428">
        <ele>552.9</ele>
        <time>2022-01-19T14:27:58.000Z</time>
      </trkpt>
      <trkpt lat="43.56976" lon="6.40423">
        <ele>553.1</ele>
        <time>2022-01-19T14:28:04.000Z</time>
      </trkpt>
      <trkpt lat="43.56979" lon="6.40419">
        <ele>553.1</ele>
        <time>2022-01-19T14:28:09.000Z</time>
      </trkpt>
      <trkpt lat="43.56983" lon="6.40415">
        <ele>553.1</ele>
        <time>2022-01-19T14:28:14.000Z</time>
      </trkpt>
      <trkpt lat="43.56988" lon="6.40411">
        <ele>553.1</ele>
        <time>2022-01-19T14:28:19.000Z</time>
      </trkpt>
      <trkpt lat="43.56992" lon="6.40407">
        <ele>553.1</ele>
        <time>2022-01-19T14:28:23.000Z</time>
      </trkpt>
      <trkpt lat="43.56996" lon="6.40403">
        <ele>553</ele>
        <time>2022-01-19T14:28:28.000Z</time>
      </trkpt>
      <trkpt lat="43.57" lon="6.404">
        <ele>553</ele>
        <time>2022-01-19T14:28:40.000Z</time>
      </trkpt>
      <trkpt lat="43.57002" lon="6.40394">
        <ele>552.7</ele>
        <time>2022-01-19T14:28:58.000Z</time>
      </trkpt>
      <trkpt lat="43.57007" lon="6.40395">
        <ele>552</ele>
        <time>2022-01-19T14:29:28.000Z</time>
      </trkpt>
      <trkpt lat="43.57011" lon="6.40396">
        <ele>551.8</ele>
        <time>2022-01-19T14:29:39.000Z</time>
      </trkpt>
      <trkpt lat="43.57007" lon="6.40395">
        <ele>551.4</ele>
        <time>2022-01-19T14:30:02.000Z</time>
      </trkpt>
      <trkpt lat="43.57007" lon="6.40401">
        <ele>551</ele>
        <time>2022-01-19T14:32:09.000Z</time>
      </trkpt>
      <trkpt lat="43.57003" lon="6.40407">
        <ele>551.1</ele>
        <time>2022-01-19T14:32:14.000Z</time>
      </trkpt>
      <trkpt lat="43.56997" lon="6.40409">
        <ele>551.1</ele>
        <time>2022-01-19T14:32:19.000Z</time>
      </trkpt>
      <trkpt lat="43.56993" lon="6.40411">
        <ele>551.1</ele>
        <time>2022-01-19T14:32:23.000Z</time>
      </trkpt>
      <trkpt lat="43.56989" lon="6.40415">
        <ele>551.1</ele>
        <time>2022-01-19T14:32:28.000Z</time>
      </trkpt>
      <trkpt lat="43.56984" lon="6.40418">
        <ele>551.2</ele>
        <time>2022-01-19T14:32:34.000Z</time>
      </trkpt>
      <trkpt lat="43.5698" lon="6.4042">
        <ele>551.3</ele>
        <time>2022-01-19T14:32:39.000Z</time>
      </trkpt>
      <trkpt lat="43.56975" lon="6.40424">
        <ele>551.4</ele>
        <time>2022-01-19T14:32:43.000Z</time>
      </trkpt>
      <trkpt lat="43.5697" lon="6.40424">
        <ele>551.2</ele>
        <time>2022-01-19T14:32:49.000Z</time>
      </trkpt>
      <trkpt lat="43.56966" lon="6.40421">
        <ele>550.8</ele>
        <time>2022-01-19T14:32:55.000Z</time>
      </trkpt>
      <trkpt lat="43.56961" lon="6.40419">
        <ele>550.6</ele>
        <time>2022-01-19T14:33:02.000Z</time>
      </trkpt>
      <trkpt lat="43.5696" lon="6.40413">
        <ele>550.5</ele>
        <time>2022-01-19T14:33:11.000Z</time>
      </trkpt>
      <trkpt lat="43.5696" lon="6.40406">
        <ele>550.3</ele>
        <time>2022-01-19T14:33:20.000Z</time>
      </trkpt>
      <trkpt lat="43.5696" lon="6.404">
        <ele>550.3</ele>
        <time>2022-01-19T14:33:26.000Z</time>
      </trkpt>
      <trkpt lat="43.56959" lon="6.40393">
        <ele>550.3</ele>
        <time>2022-01-19T14:33:30.000Z</time>
      </trkpt>
      <trkpt lat="43.5696" lon="6.40387">
        <ele>550.2</ele>
        <time>2022-01-19T14:33:35.000Z</time>
      </trkpt>
      <trkpt lat="43.56959" lon="6.4038">
        <ele>550.1</ele>
        <time>2022-01-19T14:33:40.000Z</time>
      </trkpt>
      <trkpt lat="43.56956" lon="6.40374">
        <ele>550</ele>
        <time>2022-01-19T14:33:45.000Z</time>
      </trkpt>
      <trkpt lat="43.56954" lon="6.40367">
        <ele>549.9</ele>
        <time>2022-01-19T14:33:50.000Z</time>
      </trkpt>
      <trkpt lat="43.56954" lon="6.4036">
        <ele>549.8</ele>
        <time>2022-01-19T14:33:56.000Z</time>
      </trkpt>
      <trkpt lat="43.56956" lon="6.40353">
        <ele>549.8</ele>
        <time>2022-01-19T14:34:02.000Z</time>
      </trkpt>
      <trkpt lat="43.56957" lon="6.40347">
        <ele>549.9</ele>
        <time>2022-01-19T14:34:08.000Z</time>
      </trkpt>
      <trkpt lat="43.5696" lon="6.40341">
        <ele>550.4</ele>
        <time>2022-01-19T14:34:13.000Z</time>
      </trkpt>
      <trkpt lat="43.5696" lon="6.40335">
        <ele>550.6</ele>
        <time>2022-01-19T14:34:18.000Z</time>
      </trkpt>
      <trkpt lat="43.56959" lon="6.40328">
        <ele>550.8</ele>
        <time>2022-01-19T14:34:23.000Z</time>
      </trkpt>
      <trkpt lat="43.56958" lon="6.40321">
        <ele>551.2</ele>
        <time>2022-01-19T14:34:28.000Z</time>
      </trkpt>
      <trkpt lat="43.56957" lon="6.40314">
        <ele>551.8</ele>
        <time>2022-01-19T14:34:35.000Z</time>
      </trkpt>
      <trkpt lat="43.56957" lon="6.40308">
        <ele>552</ele>
        <time>2022-01-19T14:34:39.000Z</time>
      </trkpt>
      <trkpt lat="43.5696" lon="6.40301">
        <ele>552.3</ele>
        <time>2022-01-19T14:34:45.000Z</time>
      </trkpt>
      <trkpt lat="43.5696" lon="6.40295">
        <ele>553.1</ele>
        <time>2022-01-19T14:34:52.000Z</time>
      </trkpt>
      <trkpt lat="43.56961" lon="6.40288">
        <ele>553.9</ele>
        <time>2022-01-19T14:35:00.000Z</time>
      </trkpt>
      <trkpt lat="43.56963" lon="6.40282">
        <ele>554.6</ele>
        <time>2022-01-19T14:35:06.000Z</time>
      </trkpt>
      <trkpt lat="43.56965" lon="6.40275">
        <ele>555.5</ele>
        <time>2022-01-19T14:35:13.000Z</time>
      </trkpt>
      <trkpt lat="43.56965" lon="6.40268">
        <ele>556.2</ele>
        <time>2022-01-19T14:35:19.000Z</time>
      </trkpt>
      <trkpt lat="43.56968" lon="6.40262">
        <ele>557.5</ele>
        <time>2022-01-19T14:35:28.000Z</time>
      </trkpt>
      <trkpt lat="43.5697" lon="6.40256">
        <ele>558.2</ele>
        <time>2022-01-19T14:35:35.000Z</time>
      </trkpt>
      <trkpt lat="43.56973" lon="6.40251">
        <ele>558.8</ele>
        <time>2022-01-19T14:35:40.000Z</time>
      </trkpt>
      <trkpt lat="43.56975" lon="6.40245">
        <ele>559.5</ele>
        <time>2022-01-19T14:35:46.000Z</time>
      </trkpt>
      <trkpt lat="43.56978" lon="6.40239">
        <ele>560.3</ele>
        <time>2022-01-19T14:35:52.000Z</time>
      </trkpt>
      <trkpt lat="43.56982" lon="6.40235">
        <ele>561</ele>
        <time>2022-01-19T14:35:58.000Z</time>
      </trkpt>
      <trkpt lat="43.56985" lon="6.40229">
        <ele>561.9</ele>
        <time>2022-01-19T14:36:04.000Z</time>
      </trkpt>
      <trkpt lat="43.56987" lon="6.40223">
        <ele>562.5</ele>
        <time>2022-01-19T14:36:09.000Z</time>
      </trkpt>
      <trkpt lat="43.56989" lon="6.40217">
        <ele>563.2</ele>
        <time>2022-01-19T14:36:14.000Z</time>
      </trkpt>
      <trkpt lat="43.56991" lon="6.4021">
        <ele>563.7</ele>
        <time>2022-01-19T14:36:19.000Z</time>
      </trkpt>
      <trkpt lat="43.56993" lon="6.40205">
        <ele>564.1</ele>
        <time>2022-01-19T14:36:23.000Z</time>
      </trkpt>
      <trkpt lat="43.56994" lon="6.40198">
        <ele>564.8</ele>
        <time>2022-01-19T14:36:29.000Z</time>
      </trkpt>
      <trkpt lat="43.56996" lon="6.40192">
        <ele>565.4</ele>
        <time>2022-01-19T14:36:34.000Z</time>
      </trkpt>
      <trkpt lat="43.56998" lon="6.40186">
        <ele>566</ele>
        <time>2022-01-19T14:36:40.000Z</time>
      </trkpt>
      <trkpt lat="43.57" lon="6.4018">
        <ele>566.4</ele>
        <time>2022-01-19T14:36:45.000Z</time>
      </trkpt>
      <trkpt lat="43.57003" lon="6.40174">
        <ele>567.1</ele>
        <time>2022-01-19T14:36:49.000Z</time>
      </trkpt>
      <trkpt lat="43.57007" lon="6.4017">
        <ele>567.8</ele>
        <time>2022-01-19T14:36:55.000Z</time>
      </trkpt>
      <trkpt lat="43.5701" lon="6.40164">
        <ele>568.7</ele>
        <time>2022-01-19T14:37:01.000Z</time>
      </trkpt>
      <trkpt lat="43.57012" lon="6.40158">
        <ele>569.2</ele>
        <time>2022-01-19T14:37:06.000Z</time>
      </trkpt>
      <trkpt lat="43.57014" lon="6.40153">
        <ele>569.7</ele>
        <time>2022-01-19T14:37:12.000Z</time>
      </trkpt>
      <trkpt lat="43.57016" lon="6.40147">
        <ele>570.5</ele>
        <time>2022-01-19T14:37:17.000Z</time>
      </trkpt>
      <trkpt lat="43.57018" lon="6.40141">
        <ele>571.2</ele>
        <time>2022-01-19T14:37:22.000Z</time>
      </trkpt>
      <trkpt lat="43.5702" lon="6.40135">
        <ele>571.8</ele>
        <time>2022-01-19T14:37:27.000Z</time>
      </trkpt>
      <trkpt lat="43.57022" lon="6.40128">
        <ele>572.4</ele>
        <time>2022-01-19T14:37:33.000Z</time>
      </trkpt>
      <trkpt lat="43.57026" lon="6.40123">
        <ele>573.1</ele>
        <time>2022-01-19T14:37:38.000Z</time>
      </trkpt>
      <trkpt lat="43.57029" lon="6.40118">
        <ele>573.7</ele>
        <time>2022-01-19T14:37:44.000Z</time>
      </trkpt>
      <trkpt lat="43.57032" lon="6.40112">
        <ele>574.2</ele>
        <time>2022-01-19T14:37:51.000Z</time>
      </trkpt>
      <trkpt lat="43.57034" lon="6.40106">
        <ele>574.7</ele>
        <time>2022-01-19T14:37:56.000Z</time>
      </trkpt>
      <trkpt lat="43.57035" lon="6.401">
        <ele>575.3</ele>
        <time>2022-01-19T14:38:01.000Z</time>
      </trkpt>
      <trkpt lat="43.57037" lon="6.40094">
        <ele>575.8</ele>
        <time>2022-01-19T14:38:08.000Z</time>
      </trkpt>
      <trkpt lat="43.5704" lon="6.40089">
        <ele>576.5</ele>
        <time>2022-01-19T14:38:13.000Z</time>
      </trkpt>
      <trkpt lat="43.57044" lon="6.40085">
        <ele>576.9</ele>
        <time>2022-01-19T14:38:18.000Z</time>
      </trkpt>
      <trkpt lat="43.57047" lon="6.4008">
        <ele>577.5</ele>
        <time>2022-01-19T14:38:27.000Z</time>
      </trkpt>
      <trkpt lat="43.57042" lon="6.40078">
        <ele>578.3</ele>
        <time>2022-01-19T14:39:45.000Z</time>
      </trkpt>
      <trkpt lat="43.57039" lon="6.40072">
        <ele>578.3</ele>
        <time>2022-01-19T14:40:11.000Z</time>
      </trkpt>
      <trkpt lat="43.57035" lon="6.40074">
        <ele>578.3</ele>
        <time>2022-01-19T14:41:16.000Z</time>
      </trkpt>
      <trkpt lat="43.57039" lon="6.40073">
        <ele>578.5</ele>
        <time>2022-01-19T14:41:56.000Z</time>
      </trkpt>
      <trkpt lat="43.57041" lon="6.40067">
        <ele>578.6</ele>
        <time>2022-01-19T14:42:02.000Z</time>
      </trkpt>
      <trkpt lat="43.57042" lon="6.4006">
        <ele>578.7</ele>
        <time>2022-01-19T14:42:08.000Z</time>
      </trkpt>
      <trkpt lat="43.57042" lon="6.40054">
        <ele>578.8</ele>
        <time>2022-01-19T14:42:14.000Z</time>
      </trkpt>
      <trkpt lat="43.57043" lon="6.40047">
        <ele>578.9</ele>
        <time>2022-01-19T14:42:19.000Z</time>
      </trkpt>
      <trkpt lat="43.57041" lon="6.4004">
        <ele>579.1</ele>
        <time>2022-01-19T14:42:23.000Z</time>
      </trkpt>
      <trkpt lat="43.5704" lon="6.40033">
        <ele>579.3</ele>
        <time>2022-01-19T14:42:27.000Z</time>
      </trkpt>
      <trkpt lat="43.57038" lon="6.40026">
        <ele>579.5</ele>
        <time>2022-01-19T14:42:31.000Z</time>
      </trkpt>
      <trkpt lat="43.57037" lon="6.4002">
        <ele>579.6</ele>
        <time>2022-01-19T14:42:35.000Z</time>
      </trkpt>
      <trkpt lat="43.57035" lon="6.40014">
        <ele>579.9</ele>
        <time>2022-01-19T14:42:40.000Z</time>
      </trkpt>
      <trkpt lat="43.57032" lon="6.40008">
        <ele>580</ele>
        <time>2022-01-19T14:42:46.000Z</time>
      </trkpt>
      <trkpt lat="43.57032" lon="6.40001">
        <ele>580.1</ele>
        <time>2022-01-19T14:42:50.000Z</time>
      </trkpt>
      <trkpt lat="43.57032" lon="6.39994">
        <ele>580.1</ele>
        <time>2022-01-19T14:42:55.000Z</time>
      </trkpt>
      <trkpt lat="43.57032" lon="6.39987">
        <ele>580.2</ele>
        <time>2022-01-19T14:43:00.000Z</time>
      </trkpt>
      <trkpt lat="43.57032" lon="6.39979">
        <ele>580.2</ele>
        <time>2022-01-19T14:43:05.000Z</time>
      </trkpt>
      <trkpt lat="43.57033" lon="6.39973">
        <ele>580.3</ele>
        <time>2022-01-19T14:43:10.000Z</time>
      </trkpt>
      <trkpt lat="43.57034" lon="6.39965">
        <ele>580.6</ele>
        <time>2022-01-19T14:43:15.000Z</time>
      </trkpt>
      <trkpt lat="43.57034" lon="6.39959">
        <ele>580.9</ele>
        <time>2022-01-19T14:43:20.000Z</time>
      </trkpt>
      <trkpt lat="43.57035" lon="6.39952">
        <ele>581.1</ele>
        <time>2022-01-19T14:43:24.000Z</time>
      </trkpt>
      <trkpt lat="43.57035" lon="6.39945">
        <ele>581.4</ele>
        <time>2022-01-19T14:43:29.000Z</time>
      </trkpt>
      <trkpt lat="43.57036" lon="6.39938">
        <ele>581.7</ele>
        <time>2022-01-19T14:43:34.000Z</time>
      </trkpt>
      <trkpt lat="43.57038" lon="6.39932">
        <ele>582</ele>
        <time>2022-01-19T14:43:38.000Z</time>
      </trkpt>
      <trkpt lat="43.57041" lon="6.39927">
        <ele>582.2</ele>
        <time>2022-01-19T14:43:42.000Z</time>
      </trkpt>
      <trkpt lat="43.57041" lon="6.3992">
        <ele>582.4</ele>
        <time>2022-01-19T14:43:46.000Z</time>
      </trkpt>
      <trkpt lat="43.57043" lon="6.39914">
        <ele>582.6</ele>
        <time>2022-01-19T14:43:50.000Z</time>
      </trkpt>
      <trkpt lat="43.57045" lon="6.39909">
        <ele>582.7</ele>
        <time>2022-01-19T14:43:54.000Z</time>
      </trkpt>
      <trkpt lat="43.57047" lon="6.39903">
        <ele>582.8</ele>
        <time>2022-01-19T14:43:58.000Z</time>
      </trkpt>
      <trkpt lat="43.57049" lon="6.39897">
        <ele>582.9</ele>
        <time>2022-01-19T14:44:02.000Z</time>
      </trkpt>
      <trkpt lat="43.5705" lon="6.39889">
        <ele>583.2</ele>
        <time>2022-01-19T14:44:07.000Z</time>
      </trkpt>
      <trkpt lat="43.57051" lon="6.39882">
        <ele>583.5</ele>
        <time>2022-01-19T14:44:11.000Z</time>
      </trkpt>
      <trkpt lat="43.57053" lon="6.39876">
        <ele>583.7</ele>
        <time>2022-01-19T14:44:15.000Z</time>
      </trkpt>
      <trkpt lat="43.57055" lon="6.3987">
        <ele>584</ele>
        <time>2022-01-19T14:44:20.000Z</time>
      </trkpt>
      <trkpt lat="43.57057" lon="6.39863">
        <ele>584.1</ele>
        <time>2022-01-19T14:44:25.000Z</time>
      </trkpt>
      <trkpt lat="43.57059" lon="6.39856">
        <ele>584.2</ele>
        <time>2022-01-19T14:44:29.000Z</time>
      </trkpt>
      <trkpt lat="43.57062" lon="6.39849">
        <ele>584.3</ele>
        <time>2022-01-19T14:44:33.000Z</time>
      </trkpt>
      <trkpt lat="43.57065" lon="6.39843">
        <ele>584.5</ele>
        <time>2022-01-19T14:44:38.000Z</time>
      </trkpt>
      <trkpt lat="43.57067" lon="6.39837">
        <ele>584.6</ele>
        <time>2022-01-19T14:44:42.000Z</time>
      </trkpt>
      <trkpt lat="43.5707" lon="6.39831">
        <ele>584.7</ele>
        <time>2022-01-19T14:44:47.000Z</time>
      </trkpt>
      <trkpt lat="43.57072" lon="6.39824">
        <ele>584.8</ele>
        <time>2022-01-19T14:44:51.000Z</time>
      </trkpt>
      <trkpt lat="43.57073" lon="6.39816">
        <ele>584.9</ele>
        <time>2022-01-19T14:44:56.000Z</time>
      </trkpt>
      <trkpt lat="43.57075" lon="6.3981">
        <ele>585</ele>
        <time>2022-01-19T14:45:00.000Z</time>
      </trkpt>
      <trkpt lat="43.57076" lon="6.39803">
        <ele>584.9</ele>
        <time>2022-01-19T14:45:06.000Z</time>
      </trkpt>
      <trkpt lat="43.57076" lon="6.39796">
        <ele>584.8</ele>
        <time>2022-01-19T14:45:11.000Z</time>
      </trkpt>
      <trkpt lat="43.57077" lon="6.39789">
        <ele>584.3</ele>
        <time>2022-01-19T14:45:16.000Z</time>
      </trkpt>
      <trkpt lat="43.57075" lon="6.39783">
        <ele>584</ele>
        <time>2022-01-19T14:45:19.000Z</time>
      </trkpt>
      <trkpt lat="43.57073" lon="6.39777">
        <ele>583.6</ele>
        <time>2022-01-19T14:45:23.000Z</time>
      </trkpt>
      <trkpt lat="43.57072" lon="6.3977">
        <ele>582.7</ele>
        <time>2022-01-19T14:45:29.000Z</time>
      </trkpt>
      <trkpt lat="43.5707" lon="6.39764">
        <ele>582.3</ele>
        <time>2022-01-19T14:45:33.000Z</time>
      </trkpt>
      <trkpt lat="43.5707" lon="6.39757">
        <ele>582.1</ele>
        <time>2022-01-19T14:45:37.000Z</time>
      </trkpt>
      <trkpt lat="43.57071" lon="6.39751">
        <ele>581.9</ele>
        <time>2022-01-19T14:45:41.000Z</time>
      </trkpt>
      <trkpt lat="43.57072" lon="6.39744">
        <ele>581.6</ele>
        <time>2022-01-19T14:45:46.000Z</time>
      </trkpt>
      <trkpt lat="43.57072" lon="6.39736">
        <ele>581.3</ele>
        <time>2022-01-19T14:45:50.000Z</time>
      </trkpt>
      <trkpt lat="43.57072" lon="6.39729">
        <ele>580.9</ele>
        <time>2022-01-19T14:45:54.000Z</time>
      </trkpt>
      <trkpt lat="43.57073" lon="6.39721">
        <ele>580.6</ele>
        <time>2022-01-19T14:45:58.000Z</time>
      </trkpt>
      <trkpt lat="43.57075" lon="6.39714">
        <ele>580.2</ele>
        <time>2022-01-19T14:46:02.000Z</time>
      </trkpt>
      <trkpt lat="43.57075" lon="6.39707">
        <ele>579.6</ele>
        <time>2022-01-19T14:46:06.000Z</time>
      </trkpt>
      <trkpt lat="43.57075" lon="6.397">
        <ele>579.2</ele>
        <time>2022-01-19T14:46:10.000Z</time>
      </trkpt>
      <trkpt lat="43.57078" lon="6.39694">
        <ele>579</ele>
        <time>2022-01-19T14:46:14.000Z</time>
      </trkpt>
      <trkpt lat="43.57079" lon="6.39688">
        <ele>578.7</ele>
        <time>2022-01-19T14:46:19.000Z</time>
      </trkpt>
      <trkpt lat="43.57079" lon="6.39681">
        <ele>578.4</ele>
        <time>2022-01-19T14:46:23.000Z</time>
      </trkpt>
      <trkpt lat="43.57079" lon="6.39675">
        <ele>578.1</ele>
        <time>2022-01-19T14:46:28.000Z</time>
      </trkpt>
      <trkpt lat="43.57076" lon="6.39668">
        <ele>577.9</ele>
        <time>2022-01-19T14:46:32.000Z</time>
      </trkpt>
      <trkpt lat="43.57073" lon="6.39662">
        <ele>577.7</ele>
        <time>2022-01-19T14:46:36.000Z</time>
      </trkpt>
      <trkpt lat="43.5707" lon="6.39657">
        <ele>577.2</ele>
        <time>2022-01-19T14:46:41.000Z</time>
      </trkpt>
      <trkpt lat="43.57065" lon="6.39654">
        <ele>576.7</ele>
        <time>2022-01-19T14:46:48.000Z</time>
      </trkpt>
      <trkpt lat="43.5706" lon="6.39649">
        <ele>576.4</ele>
        <time>2022-01-19T14:46:53.000Z</time>
      </trkpt>
      <trkpt lat="43.57057" lon="6.39643">
        <ele>576.1</ele>
        <time>2022-01-19T14:46:57.000Z</time>
      </trkpt>
      <trkpt lat="43.57054" lon="6.39637">
        <ele>575.7</ele>
        <time>2022-01-19T14:47:02.000Z</time>
      </trkpt>
      <trkpt lat="43.57052" lon="6.39631">
        <ele>575.5</ele>
        <time>2022-01-19T14:47:06.000Z</time>
      </trkpt>
      <trkpt lat="43.57048" lon="6.39627">
        <ele>575.3</ele>
        <time>2022-01-19T14:47:11.000Z</time>
      </trkpt>
      <trkpt lat="43.57048" lon="6.3962">
        <ele>575.3</ele>
        <time>2022-01-19T14:47:17.000Z</time>
      </trkpt>
      <trkpt lat="43.57045" lon="6.39614">
        <ele>575.4</ele>
        <time>2022-01-19T14:47:26.000Z</time>
      </trkpt>
      <trkpt lat="43.57047" lon="6.39608">
        <ele>575.9</ele>
        <time>2022-01-19T14:47:44.000Z</time>
      </trkpt>
      <trkpt lat="43.57052" lon="6.39606">
        <ele>576.1</ele>
        <time>2022-01-19T14:48:07.000Z</time>
      </trkpt>
      <trkpt lat="43.57057" lon="6.39605">
        <ele>576.3</ele>
        <time>2022-01-19T14:48:13.000Z</time>
      </trkpt>
      <trkpt lat="43.57061" lon="6.39601">
        <ele>576.8</ele>
        <time>2022-01-19T14:48:19.000Z</time>
      </trkpt>
      <trkpt lat="43.57066" lon="6.39597">
        <ele>577.2</ele>
        <time>2022-01-19T14:48:25.000Z</time>
      </trkpt>
      <trkpt lat="43.57069" lon="6.39593">
        <ele>577.9</ele>
        <time>2022-01-19T14:48:31.000Z</time>
      </trkpt>
      <trkpt lat="43.57073" lon="6.39589">
        <ele>578.6</ele>
        <time>2022-01-19T14:48:37.000Z</time>
      </trkpt>
      <trkpt lat="43.57078" lon="6.39585">
        <ele>579.5</ele>
        <time>2022-01-19T14:48:44.000Z</time>
      </trkpt>
      <trkpt lat="43.57082" lon="6.39582">
        <ele>580.4</ele>
        <time>2022-01-19T14:48:49.000Z</time>
      </trkpt>
      <trkpt lat="43.57086" lon="6.39579">
        <ele>581.2</ele>
        <time>2022-01-19T14:48:55.000Z</time>
      </trkpt>
      <trkpt lat="43.5709" lon="6.39576">
        <ele>582</ele>
        <time>2022-01-19T14:49:01.000Z</time>
      </trkpt>
      <trkpt lat="43.57094" lon="6.39572">
        <ele>582.5</ele>
        <time>2022-01-19T14:49:05.000Z</time>
      </trkpt>
      <trkpt lat="43.57098" lon="6.39569">
        <ele>583.2</ele>
        <time>2022-01-19T14:49:10.000Z</time>
      </trkpt>
      <trkpt lat="43.57103" lon="6.39567">
        <ele>583.9</ele>
        <time>2022-01-19T14:49:16.000Z</time>
      </trkpt>
      <trkpt lat="43.57108" lon="6.39563">
        <ele>584.6</ele>
        <time>2022-01-19T14:49:21.000Z</time>
      </trkpt>
      <trkpt lat="43.57112" lon="6.3956">
        <ele>585.2</ele>
        <time>2022-01-19T14:49:26.000Z</time>
      </trkpt>
      <trkpt lat="43.57116" lon="6.39557">
        <ele>586</ele>
        <time>2022-01-19T14:49:32.000Z</time>
      </trkpt>
      <trkpt lat="43.57121" lon="6.39555">
        <ele>586.5</ele>
        <time>2022-01-19T14:49:38.000Z</time>
      </trkpt>
      <trkpt lat="43.57125" lon="6.39553">
        <ele>586.9</ele>
        <time>2022-01-19T14:49:43.000Z</time>
      </trkpt>
      <trkpt lat="43.5713" lon="6.39549">
        <ele>587.8</ele>
        <time>2022-01-19T14:49:50.000Z</time>
      </trkpt>
      <trkpt lat="43.57134" lon="6.39547">
        <ele>588.5</ele>
        <time>2022-01-19T14:49:55.000Z</time>
      </trkpt>
      <trkpt lat="43.57139" lon="6.39546">
        <ele>589.2</ele>
        <time>2022-01-19T14:50:02.000Z</time>
      </trkpt>
      <trkpt lat="43.57144" lon="6.39543">
        <ele>589.8</ele>
        <time>2022-01-19T14:50:08.000Z</time>
      </trkpt>
      <trkpt lat="43.57148" lon="6.39539">
        <ele>590.2</ele>
        <time>2022-01-19T14:50:13.000Z</time>
      </trkpt>
      <trkpt lat="43.57153" lon="6.39536">
        <ele>590.5</ele>
        <time>2022-01-19T14:50:17.000Z</time>
      </trkpt>
      <trkpt lat="43.57158" lon="6.39533">
        <ele>590.8</ele>
        <time>2022-01-19T14:50:22.000Z</time>
      </trkpt>
      <trkpt lat="43.57162" lon="6.39531">
        <ele>591.2</ele>
        <time>2022-01-19T14:50:26.000Z</time>
      </trkpt>
      <trkpt lat="43.57168" lon="6.3953">
        <ele>591.5</ele>
        <time>2022-01-19T14:50:30.000Z</time>
      </trkpt>
      <trkpt lat="43.57172" lon="6.39527">
        <ele>591.8</ele>
        <time>2022-01-19T14:50:34.000Z</time>
      </trkpt>
      <trkpt lat="43.57176" lon="6.39526">
        <ele>592</ele>
        <time>2022-01-19T14:50:38.000Z</time>
      </trkpt>
      <trkpt lat="43.57181" lon="6.39523">
        <ele>592.2</ele>
        <time>2022-01-19T14:50:43.000Z</time>
      </trkpt>
      <trkpt lat="43.57185" lon="6.3952">
        <ele>592.6</ele>
        <time>2022-01-19T14:50:49.000Z</time>
      </trkpt>
      <trkpt lat="43.5719" lon="6.39518">
        <ele>593</ele>
        <time>2022-01-19T14:50:54.000Z</time>
      </trkpt>
      <trkpt lat="43.57194" lon="6.39516">
        <ele>593.4</ele>
        <time>2022-01-19T14:50:59.000Z</time>
      </trkpt>
      <trkpt lat="43.57199" lon="6.39512">
        <ele>593.7</ele>
        <time>2022-01-19T14:51:04.000Z</time>
      </trkpt>
      <trkpt lat="43.57203" lon="6.39509">
        <ele>593.9</ele>
        <time>2022-01-19T14:51:08.000Z</time>
      </trkpt>
      <trkpt lat="43.57208" lon="6.39506">
        <ele>594.2</ele>
        <time>2022-01-19T14:51:13.000Z</time>
      </trkpt>
      <trkpt lat="43.57212" lon="6.39502">
        <ele>594.5</ele>
        <time>2022-01-19T14:51:19.000Z</time>
      </trkpt>
      <trkpt lat="43.57216" lon="6.39498">
        <ele>594.8</ele>
        <time>2022-01-19T14:51:24.000Z</time>
      </trkpt>
      <trkpt lat="43.5722" lon="6.39495">
        <ele>595</ele>
        <time>2022-01-19T14:51:28.000Z</time>
      </trkpt>
      <trkpt lat="43.57224" lon="6.39491">
        <ele>595.2</ele>
        <time>2022-01-19T14:51:32.000Z</time>
      </trkpt>
      <trkpt lat="43.57228" lon="6.39488">
        <ele>595.3</ele>
        <time>2022-01-19T14:51:36.000Z</time>
      </trkpt>
      <trkpt lat="43.57233" lon="6.39485">
        <ele>595.4</ele>
        <time>2022-01-19T14:51:41.000Z</time>
      </trkpt>
      <trkpt lat="43.57238" lon="6.39484">
        <ele>595.4</ele>
        <time>2022-01-19T14:51:45.000Z</time>
      </trkpt>
      <trkpt lat="43.57243" lon="6.3948">
        <ele>595.5</ele>
        <time>2022-01-19T14:51:49.000Z</time>
      </trkpt>
      <trkpt lat="43.57248" lon="6.39477">
        <ele>595.5</ele>
        <time>2022-01-19T14:51:53.000Z</time>
      </trkpt>
      <trkpt lat="43.57252" lon="6.39475">
        <ele>595.6</ele>
        <time>2022-01-19T14:51:56.000Z</time>
      </trkpt>
      <trkpt lat="43.57257" lon="6.39472">
        <ele>595.6</ele>
        <time>2022-01-19T14:52:00.000Z</time>
      </trkpt>
      <trkpt lat="43.57262" lon="6.39469">
        <ele>595.6</ele>
        <time>2022-01-19T14:52:04.000Z</time>
      </trkpt>
      <trkpt lat="43.57266" lon="6.39467">
        <ele>595.6</ele>
        <time>2022-01-19T14:52:08.000Z</time>
      </trkpt>
      <trkpt lat="43.57271" lon="6.39464">
        <ele>595.6</ele>
        <time>2022-01-19T14:52:13.000Z</time>
      </trkpt>
      <trkpt lat="43.57274" lon="6.39459">
        <ele>595.7</ele>
        <time>2022-01-19T14:52:18.000Z</time>
      </trkpt>
      <trkpt lat="43.57277" lon="6.39454">
        <ele>595.7</ele>
        <time>2022-01-19T14:52:23.000Z</time>
      </trkpt>
      <trkpt lat="43.57281" lon="6.3945">
        <ele>595.8</ele>
        <time>2022-01-19T14:52:27.000Z</time>
      </trkpt>
      <trkpt lat="43.57284" lon="6.39445">
        <ele>596</ele>
        <time>2022-01-19T14:52:32.000Z</time>
      </trkpt>
      <trkpt lat="43.57289" lon="6.39441">
        <ele>596.3</ele>
        <time>2022-01-19T14:52:37.000Z</time>
      </trkpt>
      <trkpt lat="43.57293" lon="6.39437">
        <ele>596.7</ele>
        <time>2022-01-19T14:52:43.000Z</time>
      </trkpt>
      <trkpt lat="43.57297" lon="6.39433">
        <ele>597</ele>
        <time>2022-01-19T14:52:48.000Z</time>
      </trkpt>
      <trkpt lat="43.57301" lon="6.3943">
        <ele>597.5</ele>
        <time>2022-01-19T14:52:57.000Z</time>
      </trkpt>
      <trkpt lat="43.57305" lon="6.39425">
        <ele>599</ele>
        <time>2022-01-19T14:53:27.000Z</time>
      </trkpt>
      <trkpt lat="43.57309" lon="6.39423">
        <ele>599.5</ele>
        <time>2022-01-19T14:53:47.000Z</time>
      </trkpt>
      <trkpt lat="43.57312" lon="6.39418">
        <ele>599.9</ele>
        <time>2022-01-19T14:54:05.000Z</time>
      </trkpt>
      <trkpt lat="43.57316" lon="6.39414">
        <ele>600.1</ele>
        <time>2022-01-19T14:54:11.000Z</time>
      </trkpt>
      <trkpt lat="43.5732" lon="6.39411">
        <ele>600.5</ele>
        <time>2022-01-19T14:54:16.000Z</time>
      </trkpt>
      <trkpt lat="43.57324" lon="6.39408">
        <ele>601.9</ele>
        <time>2022-01-19T14:54:39.000Z</time>
      </trkpt>
      <trkpt lat="43.5732" lon="6.39406">
        <ele>602.5</ele>
        <time>2022-01-19T14:55:20.000Z</time>
      </trkpt>
      <trkpt lat="43.57324" lon="6.39401">
        <ele>602.7</ele>
        <time>2022-01-19T14:55:36.000Z</time>
      </trkpt>
      <trkpt lat="43.57328" lon="6.39398">
        <ele>602.9</ele>
        <time>2022-01-19T14:55:42.000Z</time>
      </trkpt>
      <trkpt lat="43.57332" lon="6.39395">
        <ele>603.2</ele>
        <time>2022-01-19T14:55:47.000Z</time>
      </trkpt>
      <trkpt lat="43.57336" lon="6.39392">
        <ele>603.5</ele>
        <time>2022-01-19T14:55:54.000Z</time>
      </trkpt>
      <trkpt lat="43.5734" lon="6.39387">
        <ele>604</ele>
        <time>2022-01-19T14:56:00.000Z</time>
      </trkpt>
      <trkpt lat="43.57344" lon="6.39384">
        <ele>604.3</ele>
        <time>2022-01-19T14:56:04.000Z</time>
      </trkpt>
      <trkpt lat="43.57348" lon="6.39379">
        <ele>605</ele>
        <time>2022-01-19T14:56:10.000Z</time>
      </trkpt>
      <trkpt lat="43.57351" lon="6.39375">
        <ele>605.9</ele>
        <time>2022-01-19T14:56:16.000Z</time>
      </trkpt>
      <trkpt lat="43.57355" lon="6.3937">
        <ele>606.6</ele>
        <time>2022-01-19T14:56:21.000Z</time>
      </trkpt>
      <trkpt lat="43.57359" lon="6.39367">
        <ele>607.4</ele>
        <time>2022-01-19T14:56:27.000Z</time>
      </trkpt>
      <trkpt lat="43.57363" lon="6.39364">
        <ele>608.3</ele>
        <time>2022-01-19T14:56:33.000Z</time>
      </trkpt>
      <trkpt lat="43.57367" lon="6.3936">
        <ele>609.2</ele>
        <time>2022-01-19T14:56:39.000Z</time>
      </trkpt>
      <trkpt lat="43.5737" lon="6.39356">
        <ele>610</ele>
        <time>2022-01-19T14:56:44.000Z</time>
      </trkpt>
      <trkpt lat="43.57374" lon="6.39351">
        <ele>610.9</ele>
        <time>2022-01-19T14:56:50.000Z</time>
      </trkpt>
      <trkpt lat="43.57378" lon="6.39347">
        <ele>611.8</ele>
        <time>2022-01-19T14:56:56.000Z</time>
      </trkpt>
      <trkpt lat="43.57381" lon="6.39342">
        <ele>612.7</ele>
        <time>2022-01-19T14:57:05.000Z</time>
      </trkpt>
      <trkpt lat="43.57386" lon="6.39339">
        <ele>613.5</ele>
        <time>2022-01-19T14:57:15.000Z</time>
      </trkpt>
      <trkpt lat="43.5739" lon="6.39336">
        <ele>613.9</ele>
        <time>2022-01-19T14:57:24.000Z</time>
      </trkpt>
      <trkpt lat="43.57393" lon="6.39331">
        <ele>614.4</ele>
        <time>2022-01-19T14:57:47.000Z</time>
      </trkpt>
      <trkpt lat="43.57397" lon="6.39328">
        <ele>615.1</ele>
        <time>2022-01-19T14:59:46.000Z</time>
      </trkpt>
      <trkpt lat="43.57402" lon="6.39326">
        <ele>615.1</ele>
        <time>2022-01-19T14:59:53.000Z</time>
      </trkpt>
      <trkpt lat="43.57405" lon="6.39322">
        <ele>615</ele>
        <time>2022-01-19T15:00:00.000Z</time>
      </trkpt>
      <trkpt lat="43.57408" lon="6.39316">
        <ele>614.6</ele>
        <time>2022-01-19T15:00:07.000Z</time>
      </trkpt>
      <trkpt lat="43.5741" lon="6.3931">
        <ele>614.5</ele>
        <time>2022-01-19T15:00:11.000Z</time>
      </trkpt>
      <trkpt lat="43.57412" lon="6.39304">
        <ele>614.1</ele>
        <time>2022-01-19T15:00:17.000Z</time>
      </trkpt>
      <trkpt lat="43.57415" lon="6.39298">
        <ele>613.8</ele>
        <time>2022-01-19T15:00:21.000Z</time>
      </trkpt>
      <trkpt lat="43.57418" lon="6.39293">
        <ele>613.4</ele>
        <time>2022-01-19T15:00:25.000Z</time>
      </trkpt>
      <trkpt lat="43.57422" lon="6.39286">
        <ele>613.1</ele>
        <time>2022-01-19T15:00:29.000Z</time>
      </trkpt>
      <trkpt lat="43.57425" lon="6.39281">
        <ele>612.7</ele>
        <time>2022-01-19T15:00:32.000Z</time>
      </trkpt>
      <trkpt lat="43.57428" lon="6.39277">
        <ele>612.5</ele>
        <time>2022-01-19T15:00:36.000Z</time>
      </trkpt>
      <trkpt lat="43.57432" lon="6.39272">
        <ele>612.3</ele>
        <time>2022-01-19T15:00:40.000Z</time>
      </trkpt>
      <trkpt lat="43.57436" lon="6.39269">
        <ele>612.2</ele>
        <time>2022-01-19T15:00:43.000Z</time>
      </trkpt>
      <trkpt lat="43.5744" lon="6.39265">
        <ele>612.1</ele>
        <time>2022-01-19T15:00:46.000Z</time>
      </trkpt>
      <trkpt lat="43.57444" lon="6.39262">
        <ele>611.9</ele>
        <time>2022-01-19T15:00:49.000Z</time>
      </trkpt>
      <trkpt lat="43.57448" lon="6.39258">
        <ele>611.6</ele>
        <time>2022-01-19T15:00:52.000Z</time>
      </trkpt>
      <trkpt lat="43.57453" lon="6.39254">
        <ele>611.4</ele>
        <time>2022-01-19T15:00:55.000Z</time>
      </trkpt>
      <trkpt lat="43.57458" lon="6.39252">
        <ele>611.2</ele>
        <time>2022-01-19T15:00:58.000Z</time>
      </trkpt>
      <trkpt lat="43.57462" lon="6.3925">
        <ele>611</ele>
        <time>2022-01-19T15:01:01.000Z</time>
      </trkpt>
      <trkpt lat="43.57468" lon="6.39248">
        <ele>610.8</ele>
        <time>2022-01-19T15:01:05.000Z</time>
      </trkpt>
      <trkpt lat="43.57473" lon="6.39247">
        <ele>610.6</ele>
        <time>2022-01-19T15:01:09.000Z</time>
      </trkpt>
      <trkpt lat="43.57478" lon="6.39247">
        <ele>610.5</ele>
        <time>2022-01-19T15:01:13.000Z</time>
      </trkpt>
      <trkpt lat="43.57484" lon="6.39248">
        <ele>610.4</ele>
        <time>2022-01-19T15:01:17.000Z</time>
      </trkpt>
      <trkpt lat="43.57489" lon="6.39247">
        <ele>610.3</ele>
        <time>2022-01-19T15:01:21.000Z</time>
      </trkpt>
      <trkpt lat="43.57494" lon="6.39247">
        <ele>610.2</ele>
        <time>2022-01-19T15:01:25.000Z</time>
      </trkpt>
      <trkpt lat="43.57499" lon="6.39245">
        <ele>610.1</ele>
        <time>2022-01-19T15:01:30.000Z</time>
      </trkpt>
      <trkpt lat="43.57504" lon="6.39245">
        <ele>610.1</ele>
        <time>2022-01-19T15:01:34.000Z</time>
      </trkpt>
      <trkpt lat="43.57509" lon="6.39245">
        <ele>610</ele>
        <time>2022-01-19T15:01:38.000Z</time>
      </trkpt>
      <trkpt lat="43.57515" lon="6.39245">
        <ele>609.9</ele>
        <time>2022-01-19T15:01:42.000Z</time>
      </trkpt>
      <trkpt lat="43.57519" lon="6.39244">
        <ele>609.8</ele>
        <time>2022-01-19T15:01:46.000Z</time>
      </trkpt>
      <trkpt lat="43.57524" lon="6.39244">
        <ele>609.7</ele>
        <time>2022-01-19T15:01:50.000Z</time>
      </trkpt>
      <trkpt lat="43.57529" lon="6.39245">
        <ele>609.7</ele>
        <time>2022-01-19T15:01:54.000Z</time>
      </trkpt>
      <trkpt lat="43.57534" lon="6.39245">
        <ele>609.6</ele>
        <time>2022-01-19T15:01:58.000Z</time>
      </trkpt>
      <trkpt lat="43.57539" lon="6.39245">
        <ele>609.6</ele>
        <time>2022-01-19T15:02:02.000Z</time>
      </trkpt>
      <trkpt lat="43.57544" lon="6.39246">
        <ele>609.6</ele>
        <time>2022-01-19T15:02:06.000Z</time>
      </trkpt>
      <trkpt lat="43.57548" lon="6.39244">
        <ele>609.5</ele>
        <time>2022-01-19T15:02:10.000Z</time>
      </trkpt>
      <trkpt lat="43.57553" lon="6.39243">
        <ele>609.5</ele>
        <time>2022-01-19T15:02:14.000Z</time>
      </trkpt>
      <trkpt lat="43.57558" lon="6.39242">
        <ele>609.5</ele>
        <time>2022-01-19T15:02:19.000Z</time>
      </trkpt>
      <trkpt lat="43.57563" lon="6.39241">
        <ele>609.4</ele>
        <time>2022-01-19T15:02:25.000Z</time>
      </trkpt>
      <trkpt lat="43.57569" lon="6.39241">
        <ele>609.3</ele>
        <time>2022-01-19T15:02:30.000Z</time>
      </trkpt>
      <trkpt lat="43.57574" lon="6.39241">
        <ele>609.2</ele>
        <time>2022-01-19T15:02:34.000Z</time>
      </trkpt>
      <trkpt lat="43.57579" lon="6.39242">
        <ele>609.1</ele>
        <time>2022-01-19T15:02:38.000Z</time>
      </trkpt>
      <trkpt lat="43.57585" lon="6.39242">
        <ele>609.1</ele>
        <time>2022-01-19T15:02:41.000Z</time>
      </trkpt>
      <trkpt lat="43.5759" lon="6.39242">
        <ele>609.1</ele>
        <time>2022-01-19T15:02:44.000Z</time>
      </trkpt>
      <trkpt lat="43.57594" lon="6.39242">
        <ele>609</ele>
        <time>2022-01-19T15:02:47.000Z</time>
      </trkpt>
      <trkpt lat="43.57599" lon="6.39241">
        <ele>609</ele>
        <time>2022-01-19T15:02:51.000Z</time>
      </trkpt>
      <trkpt lat="43.57604" lon="6.39241">
        <ele>609</ele>
        <time>2022-01-19T15:02:55.000Z</time>
      </trkpt>
      <trkpt lat="43.57609" lon="6.3924">
        <ele>609</ele>
        <time>2022-01-19T15:03:00.000Z</time>
      </trkpt>
      <trkpt lat="43.57614" lon="6.39238">
        <ele>609</ele>
        <time>2022-01-19T15:03:05.000Z</time>
      </trkpt>
      <trkpt lat="43.57619" lon="6.39235">
        <ele>609</ele>
        <time>2022-01-19T15:03:09.000Z</time>
      </trkpt>
      <trkpt lat="43.57623" lon="6.39233">
        <ele>609</ele>
        <time>2022-01-19T15:03:13.000Z</time>
      </trkpt>
      <trkpt lat="43.57628" lon="6.3923">
        <ele>609.1</ele>
        <time>2022-01-19T15:03:18.000Z</time>
      </trkpt>
      <trkpt lat="43.57632" lon="6.39225">
        <ele>609.3</ele>
        <time>2022-01-19T15:03:23.000Z</time>
      </trkpt>
      <trkpt lat="43.57636" lon="6.39221">
        <ele>609.6</ele>
        <time>2022-01-19T15:03:27.000Z</time>
      </trkpt>
      <trkpt lat="43.57641" lon="6.39218">
        <ele>609.8</ele>
        <time>2022-01-19T15:03:31.000Z</time>
      </trkpt>
      <trkpt lat="43.57645" lon="6.39215">
        <ele>610.1</ele>
        <time>2022-01-19T15:03:35.000Z</time>
      </trkpt>
      <trkpt lat="43.57649" lon="6.39211">
        <ele>610.5</ele>
        <time>2022-01-19T15:03:40.000Z</time>
      </trkpt>
      <trkpt lat="43.57653" lon="6.39207">
        <ele>610.8</ele>
        <time>2022-01-19T15:03:44.000Z</time>
      </trkpt>
      <trkpt lat="43.57657" lon="6.39203">
        <ele>611.1</ele>
        <time>2022-01-19T15:03:48.000Z</time>
      </trkpt>
      <trkpt lat="43.57661" lon="6.39198">
        <ele>611.3</ele>
        <time>2022-01-19T15:03:52.000Z</time>
      </trkpt>
      <trkpt lat="43.57666" lon="6.39195">
        <ele>611.6</ele>
        <time>2022-01-19T15:03:56.000Z</time>
      </trkpt>
      <trkpt lat="43.5767" lon="6.3919">
        <ele>612.1</ele>
        <time>2022-01-19T15:04:01.000Z</time>
      </trkpt>
      <trkpt lat="43.57674" lon="6.39186">
        <ele>612.5</ele>
        <time>2022-01-19T15:04:06.000Z</time>
      </trkpt>
      <trkpt lat="43.57678" lon="6.39181">
        <ele>613</ele>
        <time>2022-01-19T15:04:14.000Z</time>
      </trkpt>
      <trkpt lat="43.57681" lon="6.39177">
        <ele>613.4</ele>
        <time>2022-01-19T15:04:20.000Z</time>
      </trkpt>
      <trkpt lat="43.57685" lon="6.39172">
        <ele>613.9</ele>
        <time>2022-01-19T15:04:28.000Z</time>
      </trkpt>
      <trkpt lat="43.57688" lon="6.39167">
        <ele>614.2</ele>
        <time>2022-01-19T15:04:33.000Z</time>
      </trkpt>
      <trkpt lat="43.57691" lon="6.39163">
        <ele>614.6</ele>
        <time>2022-01-19T15:04:37.000Z</time>
      </trkpt>
      <trkpt lat="43.57695" lon="6.39158">
        <ele>615</ele>
        <time>2022-01-19T15:04:42.000Z</time>
      </trkpt>
      <trkpt lat="43.57699" lon="6.39154">
        <ele>615.7</ele>
        <time>2022-01-19T15:04:47.000Z</time>
      </trkpt>
      <trkpt lat="43.57703" lon="6.39149">
        <ele>616.3</ele>
        <time>2022-01-19T15:04:52.000Z</time>
      </trkpt>
      <trkpt lat="43.57707" lon="6.39145">
        <ele>616.8</ele>
        <time>2022-01-19T15:04:57.000Z</time>
      </trkpt>
      <trkpt lat="43.57711" lon="6.39141">
        <ele>617.5</ele>
        <time>2022-01-19T15:05:01.000Z</time>
      </trkpt>
      <trkpt lat="43.57715" lon="6.39138">
        <ele>618</ele>
        <time>2022-01-19T15:05:05.000Z</time>
      </trkpt>
      <trkpt lat="43.5772" lon="6.39135">
        <ele>618.7</ele>
        <time>2022-01-19T15:05:10.000Z</time>
      </trkpt>
      <trkpt lat="43.57724" lon="6.39132">
        <ele>619.2</ele>
        <time>2022-01-19T15:05:14.000Z</time>
      </trkpt>
      <trkpt lat="43.5773" lon="6.39128">
        <ele>619.6</ele>
        <time>2022-01-19T15:05:18.000Z</time>
      </trkpt>
      <trkpt lat="43.57734" lon="6.39123">
        <ele>619.8</ele>
        <time>2022-01-19T15:05:21.000Z</time>
      </trkpt>
      <trkpt lat="43.57738" lon="6.39119">
        <ele>620.1</ele>
        <time>2022-01-19T15:05:25.000Z</time>
      </trkpt>
      <trkpt lat="43.57743" lon="6.39117">
        <ele>620.4</ele>
        <time>2022-01-19T15:05:30.000Z</time>
      </trkpt>
      <trkpt lat="43.57747" lon="6.39114">
        <ele>620.8</ele>
        <time>2022-01-19T15:05:37.000Z</time>
      </trkpt>
      <trkpt lat="43.5775" lon="6.39109">
        <ele>621.3</ele>
        <time>2022-01-19T15:05:48.000Z</time>
      </trkpt>
      <trkpt lat="43.57754" lon="6.39104">
        <ele>621.6</ele>
        <time>2022-01-19T15:06:03.000Z</time>
      </trkpt>
      <trkpt lat="43.57757" lon="6.39108">
        <ele>621.7</ele>
        <time>2022-01-19T15:06:40.000Z</time>
      </trkpt>
      <trkpt lat="43.57761" lon="6.39113">
        <ele>621.8</ele>
        <time>2022-01-19T15:06:54.000Z</time>
      </trkpt>
      <trkpt lat="43.57765" lon="6.3911">
        <ele>621.6</ele>
        <time>2022-01-19T15:07:01.000Z</time>
      </trkpt>
      <trkpt lat="43.57768" lon="6.39106">
        <ele>621.4</ele>
        <time>2022-01-19T15:07:07.000Z</time>
      </trkpt>
      <trkpt lat="43.57772" lon="6.39102">
        <ele>621.3</ele>
        <time>2022-01-19T15:07:13.000Z</time>
      </trkpt>
      <trkpt lat="43.57776" lon="6.39098">
        <ele>621.3</ele>
        <time>2022-01-19T15:07:17.000Z</time>
      </trkpt>
      <trkpt lat="43.5778" lon="6.39094">
        <ele>621.1</ele>
        <time>2022-01-19T15:07:22.000Z</time>
      </trkpt>
      <trkpt lat="43.57785" lon="6.3909">
        <ele>620.9</ele>
        <time>2022-01-19T15:07:27.000Z</time>
      </trkpt>
      <trkpt lat="43.57789" lon="6.39085">
        <ele>620.8</ele>
        <time>2022-01-19T15:07:32.000Z</time>
      </trkpt>
      <trkpt lat="43.57793" lon="6.39081">
        <ele>620.7</ele>
        <time>2022-01-19T15:07:37.000Z</time>
      </trkpt>
      <trkpt lat="43.57797" lon="6.39076">
        <ele>620.6</ele>
        <time>2022-01-19T15:07:41.000Z</time>
      </trkpt>
      <trkpt lat="43.57802" lon="6.39073">
        <ele>620.6</ele>
        <time>2022-01-19T15:07:45.000Z</time>
      </trkpt>
      <trkpt lat="43.57805" lon="6.39069">
        <ele>620.5</ele>
        <time>2022-01-19T15:07:49.000Z</time>
      </trkpt>
      <trkpt lat="43.57809" lon="6.39065">
        <ele>620.5</ele>
        <time>2022-01-19T15:07:53.000Z</time>
      </trkpt>
      <trkpt lat="43.57812" lon="6.3906">
        <ele>620.4</ele>
        <time>2022-01-19T15:07:57.000Z</time>
      </trkpt>
      <trkpt lat="43.57816" lon="6.39054">
        <ele>620.5</ele>
        <time>2022-01-19T15:08:01.000Z</time>
      </trkpt>
      <trkpt lat="43.57821" lon="6.39052">
        <ele>620.7</ele>
        <time>2022-01-19T15:08:06.000Z</time>
      </trkpt>
      <trkpt lat="43.57825" lon="6.39048">
        <ele>620.8</ele>
        <time>2022-01-19T15:08:09.000Z</time>
      </trkpt>
      <trkpt lat="43.57829" lon="6.39043">
        <ele>621</ele>
        <time>2022-01-19T15:08:13.000Z</time>
      </trkpt>
      <trkpt lat="43.57833" lon="6.39039">
        <ele>621.4</ele>
        <time>2022-01-19T15:08:18.000Z</time>
      </trkpt>
      <trkpt lat="43.57837" lon="6.39033">
        <ele>622</ele>
        <time>2022-01-19T15:08:23.000Z</time>
      </trkpt>
      <trkpt lat="43.5784" lon="6.39028">
        <ele>622.2</ele>
        <time>2022-01-19T15:08:26.000Z</time>
      </trkpt>
      <trkpt lat="43.57844" lon="6.39024">
        <ele>622.5</ele>
        <time>2022-01-19T15:08:29.000Z</time>
      </trkpt>
      <trkpt lat="43.57848" lon="6.39021">
        <ele>622.7</ele>
        <time>2022-01-19T15:08:32.000Z</time>
      </trkpt>
      <trkpt lat="43.57852" lon="6.39016">
        <ele>623</ele>
        <time>2022-01-19T15:08:36.000Z</time>
      </trkpt>
      <trkpt lat="43.57857" lon="6.39011">
        <ele>623.2</ele>
        <time>2022-01-19T15:08:40.000Z</time>
      </trkpt>
      <trkpt lat="43.57862" lon="6.39008">
        <ele>623.3</ele>
        <time>2022-01-19T15:08:45.000Z</time>
      </trkpt>
      <trkpt lat="43.57866" lon="6.39006">
        <ele>623.4</ele>
        <time>2022-01-19T15:08:49.000Z</time>
      </trkpt>
      <trkpt lat="43.57872" lon="6.39001">
        <ele>623.5</ele>
        <time>2022-01-19T15:08:53.000Z</time>
      </trkpt>
      <trkpt lat="43.57876" lon="6.38997">
        <ele>623.8</ele>
        <time>2022-01-19T15:08:57.000Z</time>
      </trkpt>
      <trkpt lat="43.57881" lon="6.38995">
        <ele>624</ele>
        <time>2022-01-19T15:09:01.000Z</time>
      </trkpt>
      <trkpt lat="43.57885" lon="6.38992">
        <ele>624.1</ele>
        <time>2022-01-19T15:09:05.000Z</time>
      </trkpt>
      <trkpt lat="43.5789" lon="6.38987">
        <ele>624.2</ele>
        <time>2022-01-19T15:09:09.000Z</time>
      </trkpt>
      <trkpt lat="43.57894" lon="6.38984">
        <ele>624.4</ele>
        <time>2022-01-19T15:09:13.000Z</time>
      </trkpt>
      <trkpt lat="43.57898" lon="6.38981">
        <ele>624.9</ele>
        <time>2022-01-19T15:09:17.000Z</time>
      </trkpt>
      <trkpt lat="43.57903" lon="6.38978">
        <ele>625.2</ele>
        <time>2022-01-19T15:09:21.000Z</time>
      </trkpt>
      <trkpt lat="43.57907" lon="6.38976">
        <ele>625.5</ele>
        <time>2022-01-19T15:09:25.000Z</time>
      </trkpt>
      <trkpt lat="43.57911" lon="6.38971">
        <ele>626</ele>
        <time>2022-01-19T15:09:29.000Z</time>
      </trkpt>
      <trkpt lat="43.57916" lon="6.38969">
        <ele>626.3</ele>
        <time>2022-01-19T15:09:33.000Z</time>
      </trkpt>
      <trkpt lat="43.5792" lon="6.38964">
        <ele>626.6</ele>
        <time>2022-01-19T15:09:37.000Z</time>
      </trkpt>
      <trkpt lat="43.57925" lon="6.38962">
        <ele>626.8</ele>
        <time>2022-01-19T15:09:40.000Z</time>
      </trkpt>
      <trkpt lat="43.57929" lon="6.38959">
        <ele>627.2</ele>
        <time>2022-01-19T15:09:44.000Z</time>
      </trkpt>
      <trkpt lat="43.57933" lon="6.38955">
        <ele>627.6</ele>
        <time>2022-01-19T15:09:48.000Z</time>
      </trkpt>
      <trkpt lat="43.57938" lon="6.38951">
        <ele>628</ele>
        <time>2022-01-19T15:09:53.000Z</time>
      </trkpt>
      <trkpt lat="43.57942" lon="6.38947">
        <ele>628.3</ele>
        <time>2022-01-19T15:09:57.000Z</time>
      </trkpt>
      <trkpt lat="43.57947" lon="6.38944">
        <ele>628.6</ele>
        <time>2022-01-19T15:10:01.000Z</time>
      </trkpt>
      <trkpt lat="43.57952" lon="6.3894">
        <ele>629</ele>
        <time>2022-01-19T15:10:05.000Z</time>
      </trkpt>
      <trkpt lat="43.57956" lon="6.38936">
        <ele>629.3</ele>
        <time>2022-01-19T15:10:09.000Z</time>
      </trkpt>
      <trkpt lat="43.57961" lon="6.38933">
        <ele>629.8</ele>
        <time>2022-01-19T15:10:14.000Z</time>
      </trkpt>
      <trkpt lat="43.57965" lon="6.38931">
        <ele>630.3</ele>
        <time>2022-01-19T15:10:18.000Z</time>
      </trkpt>
      <trkpt lat="43.57969" lon="6.38928">
        <ele>631</ele>
        <time>2022-01-19T15:10:23.000Z</time>
      </trkpt>
      <trkpt lat="43.57974" lon="6.38924">
        <ele>631.6</ele>
        <time>2022-01-19T15:10:28.000Z</time>
      </trkpt>
      <trkpt lat="43.57979" lon="6.38921">
        <ele>632.1</ele>
        <time>2022-01-19T15:10:32.000Z</time>
      </trkpt>
      <trkpt lat="43.57984" lon="6.38918">
        <ele>632.5</ele>
        <time>2022-01-19T15:10:36.000Z</time>
      </trkpt>
      <trkpt lat="43.57987" lon="6.38913">
        <ele>632.8</ele>
        <time>2022-01-19T15:10:40.000Z</time>
      </trkpt>
      <trkpt lat="43.57991" lon="6.38909">
        <ele>633</ele>
        <time>2022-01-19T15:10:44.000Z</time>
      </trkpt>
      <trkpt lat="43.57995" lon="6.38906">
        <ele>633.2</ele>
        <time>2022-01-19T15:10:48.000Z</time>
      </trkpt>
      <trkpt lat="43.58" lon="6.38902">
        <ele>633.3</ele>
        <time>2022-01-19T15:10:52.000Z</time>
      </trkpt>
      <trkpt lat="43.58004" lon="6.38899">
        <ele>633.4</ele>
        <time>2022-01-19T15:10:55.000Z</time>
      </trkpt>
      <trkpt lat="43.58009" lon="6.38897">
        <ele>633.5</ele>
        <time>2022-01-19T15:10:58.000Z</time>
      </trkpt>
      <trkpt lat="43.58014" lon="6.38893">
        <ele>633.7</ele>
        <time>2022-01-19T15:11:02.000Z</time>
      </trkpt>
      <trkpt lat="43.58018" lon="6.38889">
        <ele>634</ele>
        <time>2022-01-19T15:11:06.000Z</time>
      </trkpt>
      <trkpt lat="43.58023" lon="6.38885">
        <ele>634.2</ele>
        <time>2022-01-19T15:11:10.000Z</time>
      </trkpt>
      <trkpt lat="43.58027" lon="6.38881">
        <ele>634.3</ele>
        <time>2022-01-19T15:11:13.000Z</time>
      </trkpt>
      <trkpt lat="43.58032" lon="6.38879">
        <ele>634.4</ele>
        <time>2022-01-19T15:11:17.000Z</time>
      </trkpt>
      <trkpt lat="43.58037" lon="6.38878">
        <ele>634.5</ele>
        <time>2022-01-19T15:11:21.000Z</time>
      </trkpt>
      <trkpt lat="43.58042" lon="6.38877">
        <ele>634.6</ele>
        <time>2022-01-19T15:11:25.000Z</time>
      </trkpt>
      <trkpt lat="43.58047" lon="6.38878">
        <ele>634.6</ele>
        <time>2022-01-19T15:11:28.000Z</time>
      </trkpt>
      <trkpt lat="43.58052" lon="6.38878">
        <ele>634.6</ele>
        <time>2022-01-19T15:11:31.000Z</time>
      </trkpt>
      <trkpt lat="43.58057" lon="6.38879">
        <ele>634.7</ele>
        <time>2022-01-19T15:11:35.000Z</time>
      </trkpt>
      <trkpt lat="43.58062" lon="6.3888">
        <ele>634.8</ele>
        <time>2022-01-19T15:11:39.000Z</time>
      </trkpt>
      <trkpt lat="43.58067" lon="6.38881">
        <ele>634.9</ele>
        <time>2022-01-19T15:11:43.000Z</time>
      </trkpt>
      <trkpt lat="43.58072" lon="6.38881">
        <ele>634.9</ele>
        <time>2022-01-19T15:11:46.000Z</time>
      </trkpt>
      <trkpt lat="43.58078" lon="6.38881">
        <ele>635</ele>
        <time>2022-01-19T15:11:50.000Z</time>
      </trkpt>
      <trkpt lat="43.58083" lon="6.38881">
        <ele>635</ele>
        <time>2022-01-19T15:11:54.000Z</time>
      </trkpt>
      <trkpt lat="43.58087" lon="6.38881">
        <ele>635.1</ele>
        <time>2022-01-19T15:11:58.000Z</time>
      </trkpt>
      <trkpt lat="43.58093" lon="6.38882">
        <ele>635.1</ele>
        <time>2022-01-19T15:12:02.000Z</time>
      </trkpt>
      <trkpt lat="43.58097" lon="6.38882">
        <ele>635.2</ele>
        <time>2022-01-19T15:12:05.000Z</time>
      </trkpt>
      <trkpt lat="43.58103" lon="6.38883">
        <ele>635.2</ele>
        <time>2022-01-19T15:12:09.000Z</time>
      </trkpt>
      <trkpt lat="43.58108" lon="6.38883">
        <ele>635.3</ele>
        <time>2022-01-19T15:12:12.000Z</time>
      </trkpt>
      <trkpt lat="43.58112" lon="6.38883">
        <ele>635.4</ele>
        <time>2022-01-19T15:12:15.000Z</time>
      </trkpt>
      <trkpt lat="43.58117" lon="6.38882">
        <ele>635.5</ele>
        <time>2022-01-19T15:12:18.000Z</time>
      </trkpt>
      <trkpt lat="43.58122" lon="6.3888">
        <ele>635.6</ele>
        <time>2022-01-19T15:12:22.000Z</time>
      </trkpt>
      <trkpt lat="43.58128" lon="6.38877">
        <ele>635.9</ele>
        <time>2022-01-19T15:12:26.000Z</time>
      </trkpt>
      <trkpt lat="43.58133" lon="6.38874">
        <ele>636.2</ele>
        <time>2022-01-19T15:12:30.000Z</time>
      </trkpt>
      <trkpt lat="43.58137" lon="6.38871">
        <ele>636.4</ele>
        <time>2022-01-19T15:12:34.000Z</time>
      </trkpt>
      <trkpt lat="43.58142" lon="6.38868">
        <ele>636.7</ele>
        <time>2022-01-19T15:12:38.000Z</time>
      </trkpt>
      <trkpt lat="43.58146" lon="6.38866">
        <ele>637</ele>
        <time>2022-01-19T15:12:42.000Z</time>
      </trkpt>
      <trkpt lat="43.58151" lon="6.38862">
        <ele>637.2</ele>
        <time>2022-01-19T15:12:46.000Z</time>
      </trkpt>
      <trkpt lat="43.58156" lon="6.38858">
        <ele>637.4</ele>
        <time>2022-01-19T15:12:50.000Z</time>
      </trkpt>
      <trkpt lat="43.5816" lon="6.38854">
        <ele>637.5</ele>
        <time>2022-01-19T15:12:53.000Z</time>
      </trkpt>
      <trkpt lat="43.58164" lon="6.3885">
        <ele>637.7</ele>
        <time>2022-01-19T15:12:57.000Z</time>
      </trkpt>
      <trkpt lat="43.58168" lon="6.38846">
        <ele>637.8</ele>
        <time>2022-01-19T15:13:01.000Z</time>
      </trkpt>
      <trkpt lat="43.58174" lon="6.38843">
        <ele>638</ele>
        <time>2022-01-19T15:13:05.000Z</time>
      </trkpt>
      <trkpt lat="43.58178" lon="6.38838">
        <ele>638</ele>
        <time>2022-01-19T15:13:09.000Z</time>
      </trkpt>
      <trkpt lat="43.58183" lon="6.38834">
        <ele>638.2</ele>
        <time>2022-01-19T15:13:13.000Z</time>
      </trkpt>
      <trkpt lat="43.58187" lon="6.3883">
        <ele>638.4</ele>
        <time>2022-01-19T15:13:18.000Z</time>
      </trkpt>
      <trkpt lat="43.58191" lon="6.38825">
        <ele>638.6</ele>
        <time>2022-01-19T15:13:23.000Z</time>
      </trkpt>
      <trkpt lat="43.58195" lon="6.38822">
        <ele>638.7</ele>
        <time>2022-01-19T15:13:26.000Z</time>
      </trkpt>
      <trkpt lat="43.58199" lon="6.38819">
        <ele>638.7</ele>
        <time>2022-01-19T15:13:29.000Z</time>
      </trkpt>
      <trkpt lat="43.58204" lon="6.38815">
        <ele>638.8</ele>
        <time>2022-01-19T15:13:33.000Z</time>
      </trkpt>
      <trkpt lat="43.58209" lon="6.38812">
        <ele>638.9</ele>
        <time>2022-01-19T15:13:37.000Z</time>
      </trkpt>
      <trkpt lat="43.58214" lon="6.38809">
        <ele>639</ele>
        <time>2022-01-19T15:13:41.000Z</time>
      </trkpt>
      <trkpt lat="43.58218" lon="6.38807">
        <ele>639.1</ele>
        <time>2022-01-19T15:13:44.000Z</time>
      </trkpt>
      <trkpt lat="43.58223" lon="6.38803">
        <ele>639.2</ele>
        <time>2022-01-19T15:13:48.000Z</time>
      </trkpt>
      <trkpt lat="43.58228" lon="6.388">
        <ele>639.4</ele>
        <time>2022-01-19T15:13:51.000Z</time>
      </trkpt>
      <trkpt lat="43.58233" lon="6.38797">
        <ele>639.5</ele>
        <time>2022-01-19T15:13:55.000Z</time>
      </trkpt>
      <trkpt lat="43.58237" lon="6.38794">
        <ele>639.7</ele>
        <time>2022-01-19T15:13:59.000Z</time>
      </trkpt>
      <trkpt lat="43.58242" lon="6.38791">
        <ele>639.8</ele>
        <time>2022-01-19T15:14:03.000Z</time>
      </trkpt>
      <trkpt lat="43.58247" lon="6.38787">
        <ele>639.8</ele>
        <time>2022-01-19T15:14:07.000Z</time>
      </trkpt>
      <trkpt lat="43.58251" lon="6.38781">
        <ele>640</ele>
        <time>2022-01-19T15:14:11.000Z</time>
      </trkpt>
      <trkpt lat="43.58255" lon="6.38777">
        <ele>640.1</ele>
        <time>2022-01-19T15:14:14.000Z</time>
      </trkpt>
      <trkpt lat="43.58259" lon="6.38773">
        <ele>640.2</ele>
        <time>2022-01-19T15:14:17.000Z</time>
      </trkpt>
      <trkpt lat="43.58263" lon="6.38768">
        <ele>640.4</ele>
        <time>2022-01-19T15:14:21.000Z</time>
      </trkpt>
      <trkpt lat="43.58267" lon="6.38765">
        <ele>640.6</ele>
        <time>2022-01-19T15:14:25.000Z</time>
      </trkpt>
      <trkpt lat="43.58271" lon="6.3876">
        <ele>640.8</ele>
        <time>2022-01-19T15:14:29.000Z</time>
      </trkpt>
      <trkpt lat="43.58276" lon="6.38756">
        <ele>640.9</ele>
        <time>2022-01-19T15:14:33.000Z</time>
      </trkpt>
      <trkpt lat="43.5828" lon="6.38752">
        <ele>641.1</ele>
        <time>2022-01-19T15:14:37.000Z</time>
      </trkpt>
      <trkpt lat="43.58285" lon="6.38749">
        <ele>641.2</ele>
        <time>2022-01-19T15:14:41.000Z</time>
      </trkpt>
      <trkpt lat="43.58289" lon="6.38747">
        <ele>641.2</ele>
        <time>2022-01-19T15:14:45.000Z</time>
      </trkpt>
      <trkpt lat="43.58294" lon="6.38743">
        <ele>641.4</ele>
        <time>2022-01-19T15:14:49.000Z</time>
      </trkpt>
      <trkpt lat="43.58299" lon="6.38739">
        <ele>641.5</ele>
        <time>2022-01-19T15:14:53.000Z</time>
      </trkpt>
      <trkpt lat="43.58303" lon="6.38735">
        <ele>641.3</ele>
        <time>2022-01-19T15:14:56.000Z</time>
      </trkpt>
      <trkpt lat="43.58308" lon="6.38732">
        <ele>641.2</ele>
        <time>2022-01-19T15:14:59.000Z</time>
      </trkpt>
      <trkpt lat="43.58312" lon="6.38729">
        <ele>641.2</ele>
        <time>2022-01-19T15:15:02.000Z</time>
      </trkpt>
      <trkpt lat="43.58316" lon="6.38726">
        <ele>641.2</ele>
        <time>2022-01-19T15:15:05.000Z</time>
      </trkpt>
      <trkpt lat="43.58321" lon="6.38723">
        <ele>641.1</ele>
        <time>2022-01-19T15:15:09.000Z</time>
      </trkpt>
      <trkpt lat="43.58326" lon="6.38721">
        <ele>641.1</ele>
        <time>2022-01-19T15:15:13.000Z</time>
      </trkpt>
      <trkpt lat="43.58331" lon="6.38718">
        <ele>641.1</ele>
        <time>2022-01-19T15:15:16.000Z</time>
      </trkpt>
      <trkpt lat="43.58335" lon="6.38715">
        <ele>641.1</ele>
        <time>2022-01-19T15:15:19.000Z</time>
      </trkpt>
      <trkpt lat="43.5834" lon="6.38712">
        <ele>641.1</ele>
        <time>2022-01-19T15:15:23.000Z</time>
      </trkpt>
      <trkpt lat="43.58344" lon="6.38709">
        <ele>641.1</ele>
        <time>2022-01-19T15:15:27.000Z</time>
      </trkpt>
      <trkpt lat="43.58348" lon="6.38705">
        <ele>641.2</ele>
        <time>2022-01-19T15:15:30.000Z</time>
      </trkpt>
      <trkpt lat="43.58353" lon="6.387">
        <ele>641.4</ele>
        <time>2022-01-19T15:15:34.000Z</time>
      </trkpt>
      <trkpt lat="43.58357" lon="6.38697">
        <ele>641.5</ele>
        <time>2022-01-19T15:15:38.000Z</time>
      </trkpt>
      <trkpt lat="43.58361" lon="6.38693">
        <ele>641.6</ele>
        <time>2022-01-19T15:15:42.000Z</time>
      </trkpt>
      <trkpt lat="43.58366" lon="6.38687">
        <ele>641.7</ele>
        <time>2022-01-19T15:15:46.000Z</time>
      </trkpt>
      <trkpt lat="43.5837" lon="6.38683">
        <ele>642</ele>
        <time>2022-01-19T15:15:50.000Z</time>
      </trkpt>
      <trkpt lat="43.58374" lon="6.38679">
        <ele>642.3</ele>
        <time>2022-01-19T15:15:53.000Z</time>
      </trkpt>
      <trkpt lat="43.58377" lon="6.38674">
        <ele>642.6</ele>
        <time>2022-01-19T15:15:56.000Z</time>
      </trkpt>
      <trkpt lat="43.58381" lon="6.38669">
        <ele>643</ele>
        <time>2022-01-19T15:16:00.000Z</time>
      </trkpt>
      <trkpt lat="43.58385" lon="6.38665">
        <ele>643.2</ele>
        <time>2022-01-19T15:16:03.000Z</time>
      </trkpt>
      <trkpt lat="43.58389" lon="6.38661">
        <ele>643.6</ele>
        <time>2022-01-19T15:16:07.000Z</time>
      </trkpt>
      <trkpt lat="43.58393" lon="6.38656">
        <ele>643.9</ele>
        <time>2022-01-19T15:16:11.000Z</time>
      </trkpt>
      <trkpt lat="43.58398" lon="6.3865">
        <ele>644.2</ele>
        <time>2022-01-19T15:16:15.000Z</time>
      </trkpt>
      <trkpt lat="43.58402" lon="6.38645">
        <ele>644.4</ele>
        <time>2022-01-19T15:16:19.000Z</time>
      </trkpt>
      <trkpt lat="43.58405" lon="6.3864">
        <ele>644.6</ele>
        <time>2022-01-19T15:16:23.000Z</time>
      </trkpt>
      <trkpt lat="43.5841" lon="6.38635">
        <ele>644.9</ele>
        <time>2022-01-19T15:16:27.000Z</time>
      </trkpt>
      <trkpt lat="43.58413" lon="6.3863">
        <ele>645.1</ele>
        <time>2022-01-19T15:16:30.000Z</time>
      </trkpt>
      <trkpt lat="43.58417" lon="6.38625">
        <ele>645.3</ele>
        <time>2022-01-19T15:16:34.000Z</time>
      </trkpt>
      <trkpt lat="43.58421" lon="6.38619">
        <ele>645.5</ele>
        <time>2022-01-19T15:16:38.000Z</time>
      </trkpt>
      <trkpt lat="43.58424" lon="6.38614">
        <ele>645.6</ele>
        <time>2022-01-19T15:16:41.000Z</time>
      </trkpt>
      <trkpt lat="43.58427" lon="6.38607">
        <ele>645.7</ele>
        <time>2022-01-19T15:16:45.000Z</time>
      </trkpt>
      <trkpt lat="43.58431" lon="6.38601">
        <ele>645.8</ele>
        <time>2022-01-19T15:16:49.000Z</time>
      </trkpt>
      <trkpt lat="43.58435" lon="6.38596">
        <ele>645.8</ele>
        <time>2022-01-19T15:16:53.000Z</time>
      </trkpt>
      <trkpt lat="43.5844" lon="6.38592">
        <ele>645.8</ele>
        <time>2022-01-19T15:16:57.000Z</time>
      </trkpt>
      <trkpt lat="43.58446" lon="6.38589">
        <ele>645.9</ele>
        <time>2022-01-19T15:17:01.000Z</time>
      </trkpt>
      <trkpt lat="43.5845" lon="6.38588">
        <ele>645.9</ele>
        <time>2022-01-19T15:17:04.000Z</time>
      </trkpt>
      <trkpt lat="43.58456" lon="6.38587">
        <ele>646</ele>
        <time>2022-01-19T15:17:08.000Z</time>
      </trkpt>
      <trkpt lat="43.5846" lon="6.38586">
        <ele>646.1</ele>
        <time>2022-01-19T15:17:11.000Z</time>
      </trkpt>
      <trkpt lat="43.58466" lon="6.38585">
        <ele>646.4</ele>
        <time>2022-01-19T15:17:15.000Z</time>
      </trkpt>
      <trkpt lat="43.58471" lon="6.38584">
        <ele>646.7</ele>
        <time>2022-01-19T15:17:19.000Z</time>
      </trkpt>
      <trkpt lat="43.58476" lon="6.38582">
        <ele>647.3</ele>
        <time>2022-01-19T15:17:23.000Z</time>
      </trkpt>
      <trkpt lat="43.58481" lon="6.3858">
        <ele>647.7</ele>
        <time>2022-01-19T15:17:27.000Z</time>
      </trkpt>
      <trkpt lat="43.58486" lon="6.38577">
        <ele>648.3</ele>
        <time>2022-01-19T15:17:31.000Z</time>
      </trkpt>
      <trkpt lat="43.58492" lon="6.38574">
        <ele>648.8</ele>
        <time>2022-01-19T15:17:35.000Z</time>
      </trkpt>
      <trkpt lat="43.58496" lon="6.38572">
        <ele>649.3</ele>
        <time>2022-01-19T15:17:39.000Z</time>
      </trkpt>
      <trkpt lat="43.58501" lon="6.3857">
        <ele>649.7</ele>
        <time>2022-01-19T15:17:43.000Z</time>
      </trkpt>
      <trkpt lat="43.58506" lon="6.38567">
        <ele>650</ele>
        <time>2022-01-19T15:17:47.000Z</time>
      </trkpt>
      <trkpt lat="43.58511" lon="6.38565">
        <ele>650.3</ele>
        <time>2022-01-19T15:17:51.000Z</time>
      </trkpt>
      <trkpt lat="43.58516" lon="6.38562">
        <ele>650.6</ele>
        <time>2022-01-19T15:17:55.000Z</time>
      </trkpt>
      <trkpt lat="43.58521" lon="6.38559">
        <ele>650.8</ele>
        <time>2022-01-19T15:17:59.000Z</time>
      </trkpt>
      <trkpt lat="43.58525" lon="6.38556">
        <ele>651.3</ele>
        <time>2022-01-19T15:18:03.000Z</time>
      </trkpt>
      <trkpt lat="43.5853" lon="6.38553">
        <ele>651.7</ele>
        <time>2022-01-19T15:18:07.000Z</time>
      </trkpt>
      <trkpt lat="43.58534" lon="6.38549">
        <ele>652</ele>
        <time>2022-01-19T15:18:11.000Z</time>
      </trkpt>
      <trkpt lat="43.58539" lon="6.38545">
        <ele>652.2</ele>
        <time>2022-01-19T15:18:15.000Z</time>
      </trkpt>
      <trkpt lat="43.58543" lon="6.3854">
        <ele>652.4</ele>
        <time>2022-01-19T15:18:19.000Z</time>
      </trkpt>
      <trkpt lat="43.58548" lon="6.38535">
        <ele>652.5</ele>
        <time>2022-01-19T15:18:23.000Z</time>
      </trkpt>
      <trkpt lat="43.58552" lon="6.3853">
        <ele>652.5</ele>
        <time>2022-01-19T15:18:27.000Z</time>
      </trkpt>
      <trkpt lat="43.58557" lon="6.38524">
        <ele>652.6</ele>
        <time>2022-01-19T15:18:31.000Z</time>
      </trkpt>
      <trkpt lat="43.58561" lon="6.38519">
        <ele>652.6</ele>
        <time>2022-01-19T15:18:35.000Z</time>
      </trkpt>
      <trkpt lat="43.58566" lon="6.38514">
        <ele>652.6</ele>
        <time>2022-01-19T15:18:39.000Z</time>
      </trkpt>
      <trkpt lat="43.5857" lon="6.3851">
        <ele>652.6</ele>
        <time>2022-01-19T15:18:43.000Z</time>
      </trkpt>
      <trkpt lat="43.58574" lon="6.38506">
        <ele>652.7</ele>
        <time>2022-01-19T15:18:47.000Z</time>
      </trkpt>
      <trkpt lat="43.58578" lon="6.38502">
        <ele>652.7</ele>
        <time>2022-01-19T15:18:52.000Z</time>
      </trkpt>
      <trkpt lat="43.58581" lon="6.38498">
        <ele>652.7</ele>
        <time>2022-01-19T15:18:57.000Z</time>
      </trkpt>
      <trkpt lat="43.5858" lon="6.38492">
        <ele>652.9</ele>
        <time>2022-01-19T15:19:53.000Z</time>
      </trkpt>
      <trkpt lat="43.58584" lon="6.38491">
        <ele>652.6</ele>
        <time>2022-01-19T15:20:57.000Z</time>
      </trkpt>
      <trkpt lat="43.58589" lon="6.38489">
        <ele>652.6</ele>
        <time>2022-01-19T15:21:17.000Z</time>
      </trkpt>
      <trkpt lat="43.58593" lon="6.38486">
        <ele>652.6</ele>
        <time>2022-01-19T15:21:40.000Z</time>
      </trkpt>
      <trkpt lat="43.58597" lon="6.38483">
        <ele>652.5</ele>
        <time>2022-01-19T15:21:46.000Z</time>
      </trkpt>
      <trkpt lat="43.58602" lon="6.3848">
        <ele>652.3</ele>
        <time>2022-01-19T15:21:52.000Z</time>
      </trkpt>
      <trkpt lat="43.58607" lon="6.38479">
        <ele>652.2</ele>
        <time>2022-01-19T15:21:57.000Z</time>
      </trkpt>
      <trkpt lat="43.5861" lon="6.38483">
        <ele>652.1</ele>
        <time>2022-01-19T15:22:04.000Z</time>
      </trkpt>
      <trkpt lat="43.58614" lon="6.38487">
        <ele>652.1</ele>
        <time>2022-01-19T15:22:12.000Z</time>
      </trkpt>
      <trkpt lat="43.58617" lon="6.38491">
        <ele>652.4</ele>
        <time>2022-01-19T15:22:26.000Z</time>
      </trkpt>
      <trkpt lat="43.58619" lon="6.38497">
        <ele>652.6</ele>
        <time>2022-01-19T15:22:36.000Z</time>
      </trkpt>
      <trkpt lat="43.58618" lon="6.38503">
        <ele>653.1</ele>
        <time>2022-01-19T15:22:44.000Z</time>
      </trkpt>
      <trkpt lat="43.58616" lon="6.38497">
        <ele>654.2</ele>
        <time>2022-01-19T15:23:16.000Z</time>
      </trkpt>
      <trkpt lat="43.58619" lon="6.38493">
        <ele>654.3</ele>
        <time>2022-01-19T15:23:26.000Z</time>
      </trkpt>
      <trkpt lat="43.58623" lon="6.3849">
        <ele>654.6</ele>
        <time>2022-01-19T15:23:36.000Z</time>
      </trkpt>
      <trkpt lat="43.58628" lon="6.3849">
        <ele>655.6</ele>
        <time>2022-01-19T15:23:53.000Z</time>
      </trkpt>
      <trkpt lat="43.58633" lon="6.38492">
        <ele>656.4</ele>
        <time>2022-01-19T15:24:05.000Z</time>
      </trkpt>
      <trkpt lat="43.58637" lon="6.38491">
        <ele>657.5</ele>
        <time>2022-01-19T15:24:17.000Z</time>
      </trkpt>
      <trkpt lat="43.58642" lon="6.38494">
        <ele>658.7</ele>
        <time>2022-01-19T15:24:42.000Z</time>
      </trkpt>
      <trkpt lat="43.58637" lon="6.38491">
        <ele>658.5</ele>
        <time>2022-01-19T15:25:20.000Z</time>
      </trkpt>
      <trkpt lat="43.58633" lon="6.38491">
        <ele>657.5</ele>
        <time>2022-01-19T15:25:28.000Z</time>
      </trkpt>
      <trkpt lat="43.58628" lon="6.38489">
        <ele>656.4</ele>
        <time>2022-01-19T15:25:35.000Z</time>
      </trkpt>
      <trkpt lat="43.58624" lon="6.38487">
        <ele>655</ele>
        <time>2022-01-19T15:25:45.000Z</time>
      </trkpt>
      <trkpt lat="43.5862" lon="6.38483">
        <ele>654.1</ele>
        <time>2022-01-19T15:25:55.000Z</time>
      </trkpt>
      <trkpt lat="43.58616" lon="6.38481">
        <ele>653.7</ele>
        <time>2022-01-19T15:26:01.000Z</time>
      </trkpt>
      <trkpt lat="43.58612" lon="6.38485">
        <ele>653.3</ele>
        <time>2022-01-19T15:26:06.000Z</time>
      </trkpt>
      <trkpt lat="43.58614" lon="6.38491">
        <ele>653.1</ele>
        <time>2022-01-19T15:26:10.000Z</time>
      </trkpt>
      <trkpt lat="43.58612" lon="6.38497">
        <ele>652.9</ele>
        <time>2022-01-19T15:26:17.000Z</time>
      </trkpt>
      <trkpt lat="43.58611" lon="6.38503">
        <ele>652.7</ele>
        <time>2022-01-19T15:26:24.000Z</time>
      </trkpt>
      <trkpt lat="43.58611" lon="6.3851">
        <ele>652.6</ele>
        <time>2022-01-19T15:26:30.000Z</time>
      </trkpt>
      <trkpt lat="43.58611" lon="6.38517">
        <ele>652.6</ele>
        <time>2022-01-19T15:26:35.000Z</time>
      </trkpt>
      <trkpt lat="43.58611" lon="6.38525">
        <ele>652.5</ele>
        <time>2022-01-19T15:26:40.000Z</time>
      </trkpt>
      <trkpt lat="43.58611" lon="6.38531">
        <ele>652.5</ele>
        <time>2022-01-19T15:26:44.000Z</time>
      </trkpt>
      <trkpt lat="43.58612" lon="6.38539">
        <ele>652.5</ele>
        <time>2022-01-19T15:26:49.000Z</time>
      </trkpt>
      <trkpt lat="43.58612" lon="6.38546">
        <ele>652.4</ele>
        <time>2022-01-19T15:26:54.000Z</time>
      </trkpt>
      <trkpt lat="43.58611" lon="6.38554">
        <ele>652.2</ele>
        <time>2022-01-19T15:26:59.000Z</time>
      </trkpt>
      <trkpt lat="43.58611" lon="6.38562">
        <ele>652.1</ele>
        <time>2022-01-19T15:27:04.000Z</time>
      </trkpt>
      <trkpt lat="43.5861" lon="6.38568">
        <ele>651.9</ele>
        <time>2022-01-19T15:27:08.000Z</time>
      </trkpt>
      <trkpt lat="43.58609" lon="6.38576">
        <ele>651.2</ele>
        <time>2022-01-19T15:27:13.000Z</time>
      </trkpt>
      <trkpt lat="43.58608" lon="6.38583">
        <ele>650.7</ele>
        <time>2022-01-19T15:27:18.000Z</time>
      </trkpt>
      <trkpt lat="43.58608" lon="6.38589">
        <ele>650.2</ele>
        <time>2022-01-19T15:27:24.000Z</time>
      </trkpt>
      <trkpt lat="43.58609" lon="6.38596">
        <ele>649.8</ele>
        <time>2022-01-19T15:27:30.000Z</time>
      </trkpt>
      <trkpt lat="43.58609" lon="6.38603">
        <ele>649.3</ele>
        <time>2022-01-19T15:27:35.000Z</time>
      </trkpt>
      <trkpt lat="43.58608" lon="6.3861">
        <ele>648.9</ele>
        <time>2022-01-19T15:27:40.000Z</time>
      </trkpt>
      <trkpt lat="43.58607" lon="6.38616">
        <ele>648.4</ele>
        <time>2022-01-19T15:27:44.000Z</time>
      </trkpt>
      <trkpt lat="43.58607" lon="6.38623">
        <ele>648.1</ele>
        <time>2022-01-19T15:27:48.000Z</time>
      </trkpt>
      <trkpt lat="43.58607" lon="6.38629">
        <ele>647.8</ele>
        <time>2022-01-19T15:27:52.000Z</time>
      </trkpt>
      <trkpt lat="43.58607" lon="6.38635">
        <ele>647.6</ele>
        <time>2022-01-19T15:27:55.000Z</time>
      </trkpt>
      <trkpt lat="43.58608" lon="6.38642">
        <ele>647.3</ele>
        <time>2022-01-19T15:27:59.000Z</time>
      </trkpt>
      <trkpt lat="43.58609" lon="6.38648">
        <ele>647.1</ele>
        <time>2022-01-19T15:28:03.000Z</time>
      </trkpt>
      <trkpt lat="43.58611" lon="6.38655">
        <ele>647</ele>
        <time>2022-01-19T15:28:08.000Z</time>
      </trkpt>
      <trkpt lat="43.58613" lon="6.38663">
        <ele>646.8</ele>
        <time>2022-01-19T15:28:13.000Z</time>
      </trkpt>
      <trkpt lat="43.58614" lon="6.3867">
        <ele>646.7</ele>
        <time>2022-01-19T15:28:18.000Z</time>
      </trkpt>
      <trkpt lat="43.58613" lon="6.38676">
        <ele>646.6</ele>
        <time>2022-01-19T15:28:22.000Z</time>
      </trkpt>
      <trkpt lat="43.58613" lon="6.38683">
        <ele>646.6</ele>
        <time>2022-01-19T15:28:26.000Z</time>
      </trkpt>
      <trkpt lat="43.58613" lon="6.38689">
        <ele>646.5</ele>
        <time>2022-01-19T15:28:32.000Z</time>
      </trkpt>
      <trkpt lat="43.58611" lon="6.38696">
        <ele>646.5</ele>
        <time>2022-01-19T15:28:37.000Z</time>
      </trkpt>
      <trkpt lat="43.58611" lon="6.38704">
        <ele>646.5</ele>
        <time>2022-01-19T15:28:42.000Z</time>
      </trkpt>
      <trkpt lat="43.58611" lon="6.3871">
        <ele>646.4</ele>
        <time>2022-01-19T15:28:46.000Z</time>
      </trkpt>
      <trkpt lat="43.58611" lon="6.38717">
        <ele>646.4</ele>
        <time>2022-01-19T15:28:50.000Z</time>
      </trkpt>
      <trkpt lat="43.5861" lon="6.38724">
        <ele>646.5</ele>
        <time>2022-01-19T15:28:56.000Z</time>
      </trkpt>
      <trkpt lat="43.58611" lon="6.3873">
        <ele>646.6</ele>
        <time>2022-01-19T15:29:00.000Z</time>
      </trkpt>
      <trkpt lat="43.5861" lon="6.38737">
        <ele>646.7</ele>
        <time>2022-01-19T15:29:04.000Z</time>
      </trkpt>
      <trkpt lat="43.5861" lon="6.38744">
        <ele>646.8</ele>
        <time>2022-01-19T15:29:08.000Z</time>
      </trkpt>
      <trkpt lat="43.58609" lon="6.38752">
        <ele>647</ele>
        <time>2022-01-19T15:29:13.000Z</time>
      </trkpt>
      <trkpt lat="43.58609" lon="6.3876">
        <ele>647</ele>
        <time>2022-01-19T15:29:17.000Z</time>
      </trkpt>
      <trkpt lat="43.58608" lon="6.38766">
        <ele>646.8</ele>
        <time>2022-01-19T15:29:21.000Z</time>
      </trkpt>
      <trkpt lat="43.58607" lon="6.38773">
        <ele>646.5</ele>
        <time>2022-01-19T15:29:25.000Z</time>
      </trkpt>
      <trkpt lat="43.58607" lon="6.38781">
        <ele>646.2</ele>
        <time>2022-01-19T15:29:29.000Z</time>
      </trkpt>
      <trkpt lat="43.58608" lon="6.38787">
        <ele>645.9</ele>
        <time>2022-01-19T15:29:33.000Z</time>
      </trkpt>
      <trkpt lat="43.58609" lon="6.38796">
        <ele>645.6</ele>
        <time>2022-01-19T15:29:37.000Z</time>
      </trkpt>
      <trkpt lat="43.5861" lon="6.38802">
        <ele>645.2</ele>
        <time>2022-01-19T15:29:41.000Z</time>
      </trkpt>
      <trkpt lat="43.58611" lon="6.38809">
        <ele>644.8</ele>
        <time>2022-01-19T15:29:45.000Z</time>
      </trkpt>
      <trkpt lat="43.58615" lon="6.38814">
        <ele>643.7</ele>
        <time>2022-01-19T15:29:51.000Z</time>
      </trkpt>
      <trkpt lat="43.58619" lon="6.38818">
        <ele>642.9</ele>
        <time>2022-01-19T15:29:56.000Z</time>
      </trkpt>
      <trkpt lat="43.58623" lon="6.38821">
        <ele>642.1</ele>
        <time>2022-01-19T15:30:01.000Z</time>
      </trkpt>
      <trkpt lat="43.58627" lon="6.38826">
        <ele>641.2</ele>
        <time>2022-01-19T15:30:06.000Z</time>
      </trkpt>
      <trkpt lat="43.58626" lon="6.38833">
        <ele>640.1</ele>
        <time>2022-01-19T15:30:13.000Z</time>
      </trkpt>
      <trkpt lat="43.58624" lon="6.38839">
        <ele>639</ele>
        <time>2022-01-19T15:30:19.000Z</time>
      </trkpt>
      <trkpt lat="43.58622" lon="6.38845">
        <ele>638.2</ele>
        <time>2022-01-19T15:30:24.000Z</time>
      </trkpt>
      <trkpt lat="43.5862" lon="6.38851">
        <ele>637.5</ele>
        <time>2022-01-19T15:30:29.000Z</time>
      </trkpt>
      <trkpt lat="43.58616" lon="6.38854">
        <ele>636.3</ele>
        <time>2022-01-19T15:30:37.000Z</time>
      </trkpt>
      <trkpt lat="43.58613" lon="6.3886">
        <ele>635</ele>
        <time>2022-01-19T15:30:52.000Z</time>
      </trkpt>
      <trkpt lat="43.5861" lon="6.38866">
        <ele>634.8</ele>
        <time>2022-01-19T15:30:56.000Z</time>
      </trkpt>
      <trkpt lat="43.58607" lon="6.38871">
        <ele>634.6</ele>
        <time>2022-01-19T15:31:00.000Z</time>
      </trkpt>
      <trkpt lat="43.58602" lon="6.38874">
        <ele>634.3</ele>
        <time>2022-01-19T15:31:06.000Z</time>
      </trkpt>
      <trkpt lat="43.58599" lon="6.38878">
        <ele>634</ele>
        <time>2022-01-19T15:31:14.000Z</time>
      </trkpt>
      <trkpt lat="43.58596" lon="6.38884">
        <ele>633.6</ele>
        <time>2022-01-19T15:31:20.000Z</time>
      </trkpt>
      <trkpt lat="43.58595" lon="6.3889">
        <ele>633.4</ele>
        <time>2022-01-19T15:31:25.000Z</time>
      </trkpt>
      <trkpt lat="43.58594" lon="6.38896">
        <ele>633.2</ele>
        <time>2022-01-19T15:31:31.000Z</time>
      </trkpt>
      <trkpt lat="43.58595" lon="6.38903">
        <ele>632.8</ele>
        <time>2022-01-19T15:31:46.000Z</time>
      </trkpt>
      <trkpt lat="43.58593" lon="6.38908">
        <ele>632.6</ele>
        <time>2022-01-19T15:32:09.000Z</time>
      </trkpt>
      <trkpt lat="43.58591" lon="6.38914">
        <ele>632.5</ele>
        <time>2022-01-19T15:32:24.000Z</time>
      </trkpt>
      <trkpt lat="43.5859" lon="6.38921">
        <ele>632.4</ele>
        <time>2022-01-19T15:32:32.000Z</time>
      </trkpt>
      <trkpt lat="43.58589" lon="6.38927">
        <ele>632.1</ele>
        <time>2022-01-19T15:32:47.000Z</time>
      </trkpt>
      <trkpt lat="43.58587" lon="6.38933">
        <ele>631.9</ele>
        <time>2022-01-19T15:33:15.000Z</time>
      </trkpt>
      <trkpt lat="43.58586" lon="6.38939">
        <ele>631.9</ele>
        <time>2022-01-19T15:33:22.000Z</time>
      </trkpt>
      <trkpt lat="43.58585" lon="6.38945">
        <ele>631.9</ele>
        <time>2022-01-19T15:33:28.000Z</time>
      </trkpt>
      <trkpt lat="43.58583" lon="6.38952">
        <ele>631.9</ele>
        <time>2022-01-19T15:33:33.000Z</time>
      </trkpt>
      <trkpt lat="43.58581" lon="6.38959">
        <ele>631.9</ele>
        <time>2022-01-19T15:33:38.000Z</time>
      </trkpt>
      <trkpt lat="43.58579" lon="6.38966">
        <ele>631.9</ele>
        <time>2022-01-19T15:33:43.000Z</time>
      </trkpt>
      <trkpt lat="43.58576" lon="6.38972">
        <ele>631.9</ele>
        <time>2022-01-19T15:33:48.000Z</time>
      </trkpt>
      <trkpt lat="43.58574" lon="6.38978">
        <ele>631.9</ele>
        <time>2022-01-19T15:33:52.000Z</time>
      </trkpt>
      <trkpt lat="43.58571" lon="6.38983">
        <ele>631.9</ele>
        <time>2022-01-19T15:33:56.000Z</time>
      </trkpt>
      <trkpt lat="43.58568" lon="6.3899">
        <ele>631.9</ele>
        <time>2022-01-19T15:34:01.000Z</time>
      </trkpt>
      <trkpt lat="43.58565" lon="6.38995">
        <ele>631.9</ele>
        <time>2022-01-19T15:34:06.000Z</time>
      </trkpt>
      <trkpt lat="43.58564" lon="6.39002">
        <ele>631.9</ele>
        <time>2022-01-19T15:34:11.000Z</time>
      </trkpt>
      <trkpt lat="43.58561" lon="6.39009">
        <ele>631.9</ele>
        <time>2022-01-19T15:34:16.000Z</time>
      </trkpt>
      <trkpt lat="43.58559" lon="6.39014">
        <ele>631.9</ele>
        <time>2022-01-19T15:34:21.000Z</time>
      </trkpt>
      <trkpt lat="43.58555" lon="6.39021">
        <ele>631.9</ele>
        <time>2022-01-19T15:34:26.000Z</time>
      </trkpt>
      <trkpt lat="43.58552" lon="6.39026">
        <ele>631.9</ele>
        <time>2022-01-19T15:34:30.000Z</time>
      </trkpt>
      <trkpt lat="43.5855" lon="6.39032">
        <ele>631.9</ele>
        <time>2022-01-19T15:34:34.000Z</time>
      </trkpt>
      <trkpt lat="43.58549" lon="6.39039">
        <ele>631.9</ele>
        <time>2022-01-19T15:34:39.000Z</time>
      </trkpt>
      <trkpt lat="43.58547" lon="6.39045">
        <ele>632</ele>
        <time>2022-01-19T15:34:43.000Z</time>
      </trkpt>
      <trkpt lat="43.58546" lon="6.39051">
        <ele>632.1</ele>
        <time>2022-01-19T15:34:47.000Z</time>
      </trkpt>
      <trkpt lat="43.58544" lon="6.39058">
        <ele>632.3</ele>
        <time>2022-01-19T15:34:52.000Z</time>
      </trkpt>
      <trkpt lat="43.58543" lon="6.39065">
        <ele>632.5</ele>
        <time>2022-01-19T15:34:57.000Z</time>
      </trkpt>
      <trkpt lat="43.58542" lon="6.39071">
        <ele>632.5</ele>
        <time>2022-01-19T15:35:01.000Z</time>
      </trkpt>
      <trkpt lat="43.58542" lon="6.39077">
        <ele>632.6</ele>
        <time>2022-01-19T15:35:05.000Z</time>
      </trkpt>
      <trkpt lat="43.58541" lon="6.39083">
        <ele>632.7</ele>
        <time>2022-01-19T15:35:09.000Z</time>
      </trkpt>
      <trkpt lat="43.5854" lon="6.3909">
        <ele>632.9</ele>
        <time>2022-01-19T15:35:14.000Z</time>
      </trkpt>
      <trkpt lat="43.58538" lon="6.39096">
        <ele>632.9</ele>
        <time>2022-01-19T15:35:19.000Z</time>
      </trkpt>
      <trkpt lat="43.58537" lon="6.39103">
        <ele>632.9</ele>
        <time>2022-01-19T15:35:24.000Z</time>
      </trkpt>
      <trkpt lat="43.58536" lon="6.3911">
        <ele>632.9</ele>
        <time>2022-01-19T15:35:29.000Z</time>
      </trkpt>
      <trkpt lat="43.58534" lon="6.39116">
        <ele>632.8</ele>
        <time>2022-01-19T15:35:33.000Z</time>
      </trkpt>
      <trkpt lat="43.58533" lon="6.39123">
        <ele>632.7</ele>
        <time>2022-01-19T15:35:37.000Z</time>
      </trkpt>
      <trkpt lat="43.58537" lon="6.3912">
        <ele>632.7</ele>
        <time>2022-01-19T15:36:22.000Z</time>
      </trkpt>
      <trkpt lat="43.58539" lon="6.39125">
        <ele>634.3</ele>
        <time>2022-01-19T15:36:37.000Z</time>
      </trkpt>
      <trkpt lat="43.58542" lon="6.3913">
        <ele>635.3</ele>
        <time>2022-01-19T15:36:47.000Z</time>
      </trkpt>
      <trkpt lat="43.58544" lon="6.39136">
        <ele>635.8</ele>
        <time>2022-01-19T15:36:58.000Z</time>
      </trkpt>
      <trkpt lat="43.58547" lon="6.39141">
        <ele>636.9</ele>
        <time>2022-01-19T15:37:17.000Z</time>
      </trkpt>
      <trkpt lat="43.58552" lon="6.39139">
        <ele>639.2</ele>
        <time>2022-01-19T15:37:51.000Z</time>
      </trkpt>
      <trkpt lat="43.58556" lon="6.39136">
        <ele>640.5</ele>
        <time>2022-01-19T15:38:03.000Z</time>
      </trkpt>
      <trkpt lat="43.58552" lon="6.3914">
        <ele>638.8</ele>
        <time>2022-01-19T15:39:03.000Z</time>
      </trkpt>
      <trkpt lat="43.5855" lon="6.39145">
        <ele>637.5</ele>
        <time>2022-01-19T15:39:14.000Z</time>
      </trkpt>
      <trkpt lat="43.58547" lon="6.39151">
        <ele>636.4</ele>
        <time>2022-01-19T15:39:22.000Z</time>
      </trkpt>
      <trkpt lat="43.58545" lon="6.39156">
        <ele>635.5</ele>
        <time>2022-01-19T15:39:30.000Z</time>
      </trkpt>
      <trkpt lat="43.58542" lon="6.39162">
        <ele>634.3</ele>
        <time>2022-01-19T15:39:42.000Z</time>
      </trkpt>
      <trkpt lat="43.58539" lon="6.39167">
        <ele>633.6</ele>
        <time>2022-01-19T15:39:50.000Z</time>
      </trkpt>
      <trkpt lat="43.58534" lon="6.3917">
        <ele>633</ele>
        <time>2022-01-19T15:40:00.000Z</time>
      </trkpt>
      <trkpt lat="43.58532" lon="6.39177">
        <ele>632.7</ele>
        <time>2022-01-19T15:40:05.000Z</time>
      </trkpt>
      <trkpt lat="43.58528" lon="6.39181">
        <ele>632.3</ele>
        <time>2022-01-19T15:40:09.000Z</time>
      </trkpt>
      <trkpt lat="43.58524" lon="6.39185">
        <ele>631.9</ele>
        <time>2022-01-19T15:40:13.000Z</time>
      </trkpt>
      <trkpt lat="43.5852" lon="6.39189">
        <ele>631.4</ele>
        <time>2022-01-19T15:40:18.000Z</time>
      </trkpt>
      <trkpt lat="43.58515" lon="6.39193">
        <ele>630.9</ele>
        <time>2022-01-19T15:40:22.000Z</time>
      </trkpt>
      <trkpt lat="43.58511" lon="6.39197">
        <ele>630.4</ele>
        <time>2022-01-19T15:40:26.000Z</time>
      </trkpt>
      <trkpt lat="43.58507" lon="6.39202">
        <ele>629.8</ele>
        <time>2022-01-19T15:40:31.000Z</time>
      </trkpt>
      <trkpt lat="43.58503" lon="6.39206">
        <ele>629.5</ele>
        <time>2022-01-19T15:40:35.000Z</time>
      </trkpt>
      <trkpt lat="43.585" lon="6.39212">
        <ele>629.1</ele>
        <time>2022-01-19T15:40:40.000Z</time>
      </trkpt>
      <trkpt lat="43.58497" lon="6.39217">
        <ele>628.9</ele>
        <time>2022-01-19T15:40:44.000Z</time>
      </trkpt>
      <trkpt lat="43.58494" lon="6.39223">
        <ele>628.6</ele>
        <time>2022-01-19T15:40:49.000Z</time>
      </trkpt>
      <trkpt lat="43.58491" lon="6.39229">
        <ele>628.3</ele>
        <time>2022-01-19T15:40:54.000Z</time>
      </trkpt>
      <trkpt lat="43.58489" lon="6.39234">
        <ele>628.2</ele>
        <time>2022-01-19T15:40:58.000Z</time>
      </trkpt>
      <trkpt lat="43.58487" lon="6.39241">
        <ele>628.1</ele>
        <time>2022-01-19T15:41:03.000Z</time>
      </trkpt>
      <trkpt lat="43.58485" lon="6.39247">
        <ele>628</ele>
        <time>2022-01-19T15:41:07.000Z</time>
      </trkpt>
      <trkpt lat="43.58482" lon="6.39253">
        <ele>627.7</ele>
        <time>2022-01-19T15:41:13.000Z</time>
      </trkpt>
      <trkpt lat="43.58481" lon="6.39261">
        <ele>627.5</ele>
        <time>2022-01-19T15:41:18.000Z</time>
      </trkpt>
      <trkpt lat="43.58479" lon="6.39267">
        <ele>627.4</ele>
        <time>2022-01-19T15:41:22.000Z</time>
      </trkpt>
      <trkpt lat="43.58478" lon="6.39273">
        <ele>627.2</ele>
        <time>2022-01-19T15:41:26.000Z</time>
      </trkpt>
      <trkpt lat="43.58476" lon="6.3928">
        <ele>626.9</ele>
        <time>2022-01-19T15:41:31.000Z</time>
      </trkpt>
      <trkpt lat="43.58474" lon="6.39287">
        <ele>626.6</ele>
        <time>2022-01-19T15:41:37.000Z</time>
      </trkpt>
      <trkpt lat="43.58471" lon="6.39293">
        <ele>626.4</ele>
        <time>2022-01-19T15:41:42.000Z</time>
      </trkpt>
      <trkpt lat="43.58469" lon="6.39299">
        <ele>626</ele>
        <time>2022-01-19T15:41:48.000Z</time>
      </trkpt>
      <trkpt lat="43.58467" lon="6.39305">
        <ele>625.7</ele>
        <time>2022-01-19T15:41:53.000Z</time>
      </trkpt>
      <trkpt lat="43.58464" lon="6.39311">
        <ele>625.2</ele>
        <time>2022-01-19T15:41:58.000Z</time>
      </trkpt>
      <trkpt lat="43.58461" lon="6.39317">
        <ele>624.9</ele>
        <time>2022-01-19T15:42:03.000Z</time>
      </trkpt>
      <trkpt lat="43.58458" lon="6.39323">
        <ele>624.5</ele>
        <time>2022-01-19T15:42:08.000Z</time>
      </trkpt>
      <trkpt lat="43.58456" lon="6.39329">
        <ele>624.2</ele>
        <time>2022-01-19T15:42:13.000Z</time>
      </trkpt>
      <trkpt lat="43.58452" lon="6.39333">
        <ele>623.7</ele>
        <time>2022-01-19T15:42:17.000Z</time>
      </trkpt>
      <trkpt lat="43.5845" lon="6.39339">
        <ele>623.3</ele>
        <time>2022-01-19T15:42:21.000Z</time>
      </trkpt>
      <trkpt lat="43.58448" lon="6.39346">
        <ele>622.8</ele>
        <time>2022-01-19T15:42:26.000Z</time>
      </trkpt>
      <trkpt lat="43.58445" lon="6.39351">
        <ele>622.5</ele>
        <time>2022-01-19T15:42:30.000Z</time>
      </trkpt>
      <trkpt lat="43.58443" lon="6.39357">
        <ele>621.8</ele>
        <time>2022-01-19T15:42:35.000Z</time>
      </trkpt>
      <trkpt lat="43.58439" lon="6.39362">
        <ele>620.9</ele>
        <time>2022-01-19T15:42:40.000Z</time>
      </trkpt>
      <trkpt lat="43.58436" lon="6.39366">
        <ele>619.7</ele>
        <time>2022-01-19T15:42:46.000Z</time>
      </trkpt>
      <trkpt lat="43.58433" lon="6.39371">
        <ele>618.7</ele>
        <time>2022-01-19T15:42:52.000Z</time>
      </trkpt>
      <trkpt lat="43.58429" lon="6.39375">
        <ele>618</ele>
        <time>2022-01-19T15:42:57.000Z</time>
      </trkpt>
      <trkpt lat="43.58425" lon="6.3938">
        <ele>617.2</ele>
        <time>2022-01-19T15:43:03.000Z</time>
      </trkpt>
      <trkpt lat="43.58422" lon="6.39385">
        <ele>616.7</ele>
        <time>2022-01-19T15:43:08.000Z</time>
      </trkpt>
      <trkpt lat="43.5842" lon="6.39391">
        <ele>616.3</ele>
        <time>2022-01-19T15:43:12.000Z</time>
      </trkpt>
      <trkpt lat="43.5842" lon="6.39398">
        <ele>615.8</ele>
        <time>2022-01-19T15:43:16.000Z</time>
      </trkpt>
      <trkpt lat="43.58418" lon="6.39405">
        <ele>615.1</ele>
        <time>2022-01-19T15:43:21.000Z</time>
      </trkpt>
      <trkpt lat="43.58416" lon="6.39411">
        <ele>614.3</ele>
        <time>2022-01-19T15:43:27.000Z</time>
      </trkpt>
      <trkpt lat="43.58414" lon="6.39417">
        <ele>613.7</ele>
        <time>2022-01-19T15:43:32.000Z</time>
      </trkpt>
      <trkpt lat="43.58414" lon="6.39424">
        <ele>613.3</ele>
        <time>2022-01-19T15:43:37.000Z</time>
      </trkpt>
      <trkpt lat="43.58413" lon="6.3943">
        <ele>612.8</ele>
        <time>2022-01-19T15:43:43.000Z</time>
      </trkpt>
      <trkpt lat="43.58412" lon="6.39436">
        <ele>612.5</ele>
        <time>2022-01-19T15:43:47.000Z</time>
      </trkpt>
      <trkpt lat="43.5841" lon="6.39443">
        <ele>612.3</ele>
        <time>2022-01-19T15:43:52.000Z</time>
      </trkpt>
      <trkpt lat="43.58409" lon="6.3945">
        <ele>612</ele>
        <time>2022-01-19T15:43:57.000Z</time>
      </trkpt>
      <trkpt lat="43.58409" lon="6.39457">
        <ele>611.7</ele>
        <time>2022-01-19T15:44:03.000Z</time>
      </trkpt>
      <trkpt lat="43.58407" lon="6.39464">
        <ele>611.2</ele>
        <time>2022-01-19T15:44:08.000Z</time>
      </trkpt>
      <trkpt lat="43.58407" lon="6.3947">
        <ele>610.7</ele>
        <time>2022-01-19T15:44:13.000Z</time>
      </trkpt>
      <trkpt lat="43.58406" lon="6.39477">
        <ele>610.3</ele>
        <time>2022-01-19T15:44:18.000Z</time>
      </trkpt>
      <trkpt lat="43.58404" lon="6.39483">
        <ele>609.9</ele>
        <time>2022-01-19T15:44:23.000Z</time>
      </trkpt>
      <trkpt lat="43.58402" lon="6.3949">
        <ele>609.3</ele>
        <time>2022-01-19T15:44:28.000Z</time>
      </trkpt>
      <trkpt lat="43.58401" lon="6.39497">
        <ele>608.8</ele>
        <time>2022-01-19T15:44:34.000Z</time>
      </trkpt>
      <trkpt lat="43.58401" lon="6.39505">
        <ele>608.3</ele>
        <time>2022-01-19T15:44:39.000Z</time>
      </trkpt>
      <trkpt lat="43.58398" lon="6.39511">
        <ele>607.7</ele>
        <time>2022-01-19T15:44:44.000Z</time>
      </trkpt>
      <trkpt lat="43.58398" lon="6.39518">
        <ele>606.9</ele>
        <time>2022-01-19T15:44:50.000Z</time>
      </trkpt>
      <trkpt lat="43.58398" lon="6.39525">
        <ele>606.3</ele>
        <time>2022-01-19T15:44:56.000Z</time>
      </trkpt>
      <trkpt lat="43.58399" lon="6.39532">
        <ele>605.5</ele>
        <time>2022-01-19T15:45:02.000Z</time>
      </trkpt>
      <trkpt lat="43.58399" lon="6.39539">
        <ele>604.7</ele>
        <time>2022-01-19T15:45:07.000Z</time>
      </trkpt>
      <trkpt lat="43.58399" lon="6.39546">
        <ele>604</ele>
        <time>2022-01-19T15:45:13.000Z</time>
      </trkpt>
      <trkpt lat="43.584" lon="6.39553">
        <ele>603.4</ele>
        <time>2022-01-19T15:45:18.000Z</time>
      </trkpt>
      <trkpt lat="43.58402" lon="6.3956">
        <ele>602.4</ele>
        <time>2022-01-19T15:45:24.000Z</time>
      </trkpt>
      <trkpt lat="43.58403" lon="6.39567">
        <ele>601.8</ele>
        <time>2022-01-19T15:45:28.000Z</time>
      </trkpt>
      <trkpt lat="43.58404" lon="6.39574">
        <ele>600.6</ele>
        <time>2022-01-19T15:45:33.000Z</time>
      </trkpt>
      <trkpt lat="43.58405" lon="6.3958">
        <ele>599.6</ele>
        <time>2022-01-19T15:45:38.000Z</time>
      </trkpt>
      <trkpt lat="43.58406" lon="6.39587">
        <ele>598.6</ele>
        <time>2022-01-19T15:45:44.000Z</time>
      </trkpt>
      <trkpt lat="43.58407" lon="6.39593">
        <ele>597.8</ele>
        <time>2022-01-19T15:45:49.000Z</time>
      </trkpt>
      <trkpt lat="43.5841" lon="6.39599">
        <ele>597</ele>
        <time>2022-01-19T15:45:53.000Z</time>
      </trkpt>
      <trkpt lat="43.58411" lon="6.39606">
        <ele>596.1</ele>
        <time>2022-01-19T15:45:58.000Z</time>
      </trkpt>
      <trkpt lat="43.5841" lon="6.39612">
        <ele>595.2</ele>
        <time>2022-01-19T15:46:03.000Z</time>
      </trkpt>
      <trkpt lat="43.5841" lon="6.39619">
        <ele>594.2</ele>
        <time>2022-01-19T15:46:09.000Z</time>
      </trkpt>
      <trkpt lat="43.58413" lon="6.39624">
        <ele>593.3</ele>
        <time>2022-01-19T15:46:16.000Z</time>
      </trkpt>
      <trkpt lat="43.58418" lon="6.39627">
        <ele>592.5</ele>
        <time>2022-01-19T15:46:24.000Z</time>
      </trkpt>
      <trkpt lat="43.58415" lon="6.39633">
        <ele>591.2</ele>
        <time>2022-01-19T15:47:00.000Z</time>
      </trkpt>
      <trkpt lat="43.58412" lon="6.39638">
        <ele>591.1</ele>
        <time>2022-01-19T15:47:26.000Z</time>
      </trkpt>
      <trkpt lat="43.58414" lon="6.39644">
        <ele>591</ele>
        <time>2022-01-19T15:48:09.000Z</time>
      </trkpt>
      <trkpt lat="43.58413" lon="6.39651">
        <ele>591</ele>
        <time>2022-01-19T15:48:22.000Z</time>
      </trkpt>
      <trkpt lat="43.5841" lon="6.39657">
        <ele>590.8</ele>
        <time>2022-01-19T15:48:27.000Z</time>
      </trkpt>
      <trkpt lat="43.58407" lon="6.39663">
        <ele>590.4</ele>
        <time>2022-01-19T15:48:32.000Z</time>
      </trkpt>
      <trkpt lat="43.58403" lon="6.39669">
        <ele>590</ele>
        <time>2022-01-19T15:48:36.000Z</time>
      </trkpt>
      <trkpt lat="43.584" lon="6.39674">
        <ele>589.8</ele>
        <time>2022-01-19T15:48:40.000Z</time>
      </trkpt>
      <trkpt lat="43.58396" lon="6.39679">
        <ele>589.5</ele>
        <time>2022-01-19T15:48:45.000Z</time>
      </trkpt>
      <trkpt lat="43.58392" lon="6.39683">
        <ele>589.3</ele>
        <time>2022-01-19T15:48:49.000Z</time>
      </trkpt>
      <trkpt lat="43.58388" lon="6.39688">
        <ele>589</ele>
        <time>2022-01-19T15:48:53.000Z</time>
      </trkpt>
      <trkpt lat="43.58385" lon="6.39692">
        <ele>588.7</ele>
        <time>2022-01-19T15:48:57.000Z</time>
      </trkpt>
      <trkpt lat="43.58382" lon="6.39698">
        <ele>588.1</ele>
        <time>2022-01-19T15:49:01.000Z</time>
      </trkpt>
      <trkpt lat="43.58379" lon="6.39704">
        <ele>587.3</ele>
        <time>2022-01-19T15:49:05.000Z</time>
      </trkpt>
      <trkpt lat="43.58376" lon="6.3971">
        <ele>586.7</ele>
        <time>2022-01-19T15:49:09.000Z</time>
      </trkpt>
      <trkpt lat="43.58373" lon="6.39716">
        <ele>586.3</ele>
        <time>2022-01-19T15:49:12.000Z</time>
      </trkpt>
      <trkpt lat="43.58371" lon="6.39722">
        <ele>585.8</ele>
        <time>2022-01-19T15:49:16.000Z</time>
      </trkpt>
      <trkpt lat="43.58367" lon="6.39728">
        <ele>585.3</ele>
        <time>2022-01-19T15:49:20.000Z</time>
      </trkpt>
      <trkpt lat="43.58364" lon="6.39732">
        <ele>584.9</ele>
        <time>2022-01-19T15:49:23.000Z</time>
      </trkpt>
      <trkpt lat="43.58361" lon="6.39737">
        <ele>584.5</ele>
        <time>2022-01-19T15:49:26.000Z</time>
      </trkpt>
      <trkpt lat="43.58357" lon="6.39743">
        <ele>584.1</ele>
        <time>2022-01-19T15:49:30.000Z</time>
      </trkpt>
      <trkpt lat="43.58352" lon="6.39748">
        <ele>583.7</ele>
        <time>2022-01-19T15:49:33.000Z</time>
      </trkpt>
      <trkpt lat="43.58348" lon="6.39753">
        <ele>582.9</ele>
        <time>2022-01-19T15:49:37.000Z</time>
      </trkpt>
      <trkpt lat="43.58344" lon="6.39758">
        <ele>582.1</ele>
        <time>2022-01-19T15:49:41.000Z</time>
      </trkpt>
      <trkpt lat="43.5834" lon="6.39764">
        <ele>581.3</ele>
        <time>2022-01-19T15:49:45.000Z</time>
      </trkpt>
      <trkpt lat="43.58336" lon="6.39769">
        <ele>580.4</ele>
        <time>2022-01-19T15:49:49.000Z</time>
      </trkpt>
      <trkpt lat="43.58333" lon="6.39773">
        <ele>579.8</ele>
        <time>2022-01-19T15:49:52.000Z</time>
      </trkpt>
      <trkpt lat="43.58329" lon="6.39779">
        <ele>579.1</ele>
        <time>2022-01-19T15:49:56.000Z</time>
      </trkpt>
      <trkpt lat="43.58325" lon="6.39785">
        <ele>578.5</ele>
        <time>2022-01-19T15:50:00.000Z</time>
      </trkpt>
      <trkpt lat="43.58321" lon="6.39791">
        <ele>577.8</ele>
        <time>2022-01-19T15:50:04.000Z</time>
      </trkpt>
      <trkpt lat="43.58318" lon="6.39797">
        <ele>577</ele>
        <time>2022-01-19T15:50:08.000Z</time>
      </trkpt>
      <trkpt lat="43.58315" lon="6.39802">
        <ele>576.1</ele>
        <time>2022-01-19T15:50:12.000Z</time>
      </trkpt>
      <trkpt lat="43.58311" lon="6.39807">
        <ele>575.3</ele>
        <time>2022-01-19T15:50:16.000Z</time>
      </trkpt>
      <trkpt lat="43.58308" lon="6.39812">
        <ele>574.8</ele>
        <time>2022-01-19T15:50:19.000Z</time>
      </trkpt>
      <trkpt lat="43.58305" lon="6.39817">
        <ele>574.2</ele>
        <time>2022-01-19T15:50:23.000Z</time>
      </trkpt>
      <trkpt lat="43.58302" lon="6.39822">
        <ele>573.5</ele>
        <time>2022-01-19T15:50:27.000Z</time>
      </trkpt>
      <trkpt lat="43.58299" lon="6.39827">
        <ele>573</ele>
        <time>2022-01-19T15:50:31.000Z</time>
      </trkpt>
      <trkpt lat="43.58295" lon="6.39832">
        <ele>572.2</ele>
        <time>2022-01-19T15:50:37.000Z</time>
      </trkpt>
      <trkpt lat="43.58293" lon="6.39838">
        <ele>571.5</ele>
        <time>2022-01-19T15:50:42.000Z</time>
      </trkpt>
      <trkpt lat="43.5829" lon="6.39843">
        <ele>570.9</ele>
        <time>2022-01-19T15:50:46.000Z</time>
      </trkpt>
      <trkpt lat="43.58286" lon="6.39849">
        <ele>570</ele>
        <time>2022-01-19T15:50:50.000Z</time>
      </trkpt>
      <trkpt lat="43.58283" lon="6.39855">
        <ele>569.1</ele>
        <time>2022-01-19T15:50:54.000Z</time>
      </trkpt>
      <trkpt lat="43.58281" lon="6.39861">
        <ele>568.1</ele>
        <time>2022-01-19T15:50:58.000Z</time>
      </trkpt>
      <trkpt lat="43.58278" lon="6.39867">
        <ele>567.3</ele>
        <time>2022-01-19T15:51:02.000Z</time>
      </trkpt>
      <trkpt lat="43.58275" lon="6.39873">
        <ele>566.7</ele>
        <time>2022-01-19T15:51:06.000Z</time>
      </trkpt>
      <trkpt lat="43.58273" lon="6.39879">
        <ele>566.2</ele>
        <time>2022-01-19T15:51:10.000Z</time>
      </trkpt>
      <trkpt lat="43.58271" lon="6.39885">
        <ele>565.8</ele>
        <time>2022-01-19T15:51:14.000Z</time>
      </trkpt>
      <trkpt lat="43.58268" lon="6.39891">
        <ele>565.5</ele>
        <time>2022-01-19T15:51:18.000Z</time>
      </trkpt>
      <trkpt lat="43.58265" lon="6.39896">
        <ele>565.2</ele>
        <time>2022-01-19T15:51:22.000Z</time>
      </trkpt>
      <trkpt lat="43.58261" lon="6.39902">
        <ele>565</ele>
        <time>2022-01-19T15:51:26.000Z</time>
      </trkpt>
      <trkpt lat="43.58257" lon="6.39907">
        <ele>564.5</ele>
        <time>2022-01-19T15:51:30.000Z</time>
      </trkpt>
      <trkpt lat="43.58253" lon="6.39911">
        <ele>564.1</ele>
        <time>2022-01-19T15:51:33.000Z</time>
      </trkpt>
      <trkpt lat="43.5825" lon="6.39918">
        <ele>563.5</ele>
        <time>2022-01-19T15:51:37.000Z</time>
      </trkpt>
      <trkpt lat="43.58246" lon="6.39923">
        <ele>562.8</ele>
        <time>2022-01-19T15:51:42.000Z</time>
      </trkpt>
      <trkpt lat="43.58241" lon="6.39927">
        <ele>562.3</ele>
        <time>2022-01-19T15:51:46.000Z</time>
      </trkpt>
      <trkpt lat="43.58238" lon="6.39932">
        <ele>561.6</ele>
        <time>2022-01-19T15:51:51.000Z</time>
      </trkpt>
      <trkpt lat="43.58235" lon="6.39938">
        <ele>560.7</ele>
        <time>2022-01-19T15:51:56.000Z</time>
      </trkpt>
      <trkpt lat="43.58231" lon="6.39944">
        <ele>560.2</ele>
        <time>2022-01-19T15:52:00.000Z</time>
      </trkpt>
      <trkpt lat="43.58228" lon="6.39948">
        <ele>559.8</ele>
        <time>2022-01-19T15:52:03.000Z</time>
      </trkpt>
      <trkpt lat="43.58224" lon="6.39953">
        <ele>559.1</ele>
        <time>2022-01-19T15:52:07.000Z</time>
      </trkpt>
      <trkpt lat="43.58219" lon="6.39958">
        <ele>558.3</ele>
        <time>2022-01-19T15:52:11.000Z</time>
      </trkpt>
      <trkpt lat="43.58215" lon="6.39962">
        <ele>557.9</ele>
        <time>2022-01-19T15:52:14.000Z</time>
      </trkpt>
      <trkpt lat="43.58212" lon="6.39966">
        <ele>557.6</ele>
        <time>2022-01-19T15:52:17.000Z</time>
      </trkpt>
      <trkpt lat="43.58207" lon="6.39969">
        <ele>557.3</ele>
        <time>2022-01-19T15:52:20.000Z</time>
      </trkpt>
      <trkpt lat="43.58204" lon="6.39974">
        <ele>557</ele>
        <time>2022-01-19T15:52:23.000Z</time>
      </trkpt>
      <trkpt lat="43.58201" lon="6.3998">
        <ele>556.7</ele>
        <time>2022-01-19T15:52:27.000Z</time>
      </trkpt>
      <trkpt lat="43.58198" lon="6.39986">
        <ele>556.3</ele>
        <time>2022-01-19T15:52:30.000Z</time>
      </trkpt>
      <trkpt lat="43.58196" lon="6.39993">
        <ele>555.7</ele>
        <time>2022-01-19T15:52:34.000Z</time>
      </trkpt>
      <trkpt lat="43.58194" lon="6.4">
        <ele>555.2</ele>
        <time>2022-01-19T15:52:38.000Z</time>
      </trkpt>
      <trkpt lat="43.58191" lon="6.40008">
        <ele>554.8</ele>
        <time>2022-01-19T15:52:42.000Z</time>
      </trkpt>
      <trkpt lat="43.5819" lon="6.40015">
        <ele>554.4</ele>
        <time>2022-01-19T15:52:46.000Z</time>
      </trkpt>
      <trkpt lat="43.5819" lon="6.40023">
        <ele>553.9</ele>
        <time>2022-01-19T15:52:50.000Z</time>
      </trkpt>
      <trkpt lat="43.58189" lon="6.4003">
        <ele>553.5</ele>
        <time>2022-01-19T15:52:54.000Z</time>
      </trkpt>
      <trkpt lat="43.58188" lon="6.40039">
        <ele>553.1</ele>
        <time>2022-01-19T15:52:58.000Z</time>
      </trkpt>
      <trkpt lat="43.58187" lon="6.40046">
        <ele>552.9</ele>
        <time>2022-01-19T15:53:02.000Z</time>
      </trkpt>
      <trkpt lat="43.58187" lon="6.40054">
        <ele>552.7</ele>
        <time>2022-01-19T15:53:06.000Z</time>
      </trkpt>
      <trkpt lat="43.58185" lon="6.40061">
        <ele>552.5</ele>
        <time>2022-01-19T15:53:10.000Z</time>
      </trkpt>
      <trkpt lat="43.58183" lon="6.40068">
        <ele>552.4</ele>
        <time>2022-01-19T15:53:14.000Z</time>
      </trkpt>
      <trkpt lat="43.58182" lon="6.40075">
        <ele>552.2</ele>
        <time>2022-01-19T15:53:18.000Z</time>
      </trkpt>
      <trkpt lat="43.5818" lon="6.40082">
        <ele>551.8</ele>
        <time>2022-01-19T15:53:22.000Z</time>
      </trkpt>
      <trkpt lat="43.58178" lon="6.40088">
        <ele>551.4</ele>
        <time>2022-01-19T15:53:25.000Z</time>
      </trkpt>
      <trkpt lat="43.58177" lon="6.40094">
        <ele>551.2</ele>
        <time>2022-01-19T15:53:28.000Z</time>
      </trkpt>
      <trkpt lat="43.58175" lon="6.401">
        <ele>551</ele>
        <time>2022-01-19T15:53:31.000Z</time>
      </trkpt>
      <trkpt lat="43.58173" lon="6.40108">
        <ele>550.9</ele>
        <time>2022-01-19T15:53:35.000Z</time>
      </trkpt>
      <trkpt lat="43.58171" lon="6.40116">
        <ele>550.7</ele>
        <time>2022-01-19T15:53:39.000Z</time>
      </trkpt>
      <trkpt lat="43.58169" lon="6.40123">
        <ele>550.6</ele>
        <time>2022-01-19T15:53:43.000Z</time>
      </trkpt>
      <trkpt lat="43.58166" lon="6.4013">
        <ele>550.5</ele>
        <time>2022-01-19T15:53:47.000Z</time>
      </trkpt>
      <trkpt lat="43.58164" lon="6.40136">
        <ele>550.4</ele>
        <time>2022-01-19T15:53:51.000Z</time>
      </trkpt>
      <trkpt lat="43.58162" lon="6.40142">
        <ele>550.3</ele>
        <time>2022-01-19T15:53:55.000Z</time>
      </trkpt>
      <trkpt lat="43.58159" lon="6.40148">
        <ele>550.2</ele>
        <time>2022-01-19T15:53:59.000Z</time>
      </trkpt>
      <trkpt lat="43.58157" lon="6.40153">
        <ele>550.1</ele>
        <time>2022-01-19T15:54:03.000Z</time>
      </trkpt>
      <trkpt lat="43.58154" lon="6.40159">
        <ele>549.9</ele>
        <time>2022-01-19T15:54:07.000Z</time>
      </trkpt>
      <trkpt lat="43.5815" lon="6.40164">
        <ele>549.4</ele>
        <time>2022-01-19T15:54:11.000Z</time>
      </trkpt>
      <trkpt lat="43.58147" lon="6.40168">
        <ele>548.9</ele>
        <time>2022-01-19T15:54:15.000Z</time>
      </trkpt>
      <trkpt lat="43.58144" lon="6.40174">
        <ele>548.6</ele>
        <time>2022-01-19T15:54:19.000Z</time>
      </trkpt>
      <trkpt lat="43.58142" lon="6.40181">
        <ele>548.2</ele>
        <time>2022-01-19T15:54:24.000Z</time>
      </trkpt>
      <trkpt lat="43.5814" lon="6.40187">
        <ele>548</ele>
        <time>2022-01-19T15:54:28.000Z</time>
      </trkpt>
      <trkpt lat="43.58139" lon="6.40194">
        <ele>547.7</ele>
        <time>2022-01-19T15:54:32.000Z</time>
      </trkpt>
      <trkpt lat="43.58137" lon="6.402">
        <ele>547.4</ele>
        <time>2022-01-19T15:54:36.000Z</time>
      </trkpt>
      <trkpt lat="43.58135" lon="6.40207">
        <ele>546.9</ele>
        <time>2022-01-19T15:54:40.000Z</time>
      </trkpt>
      <trkpt lat="43.58132" lon="6.40214">
        <ele>546.4</ele>
        <time>2022-01-19T15:54:44.000Z</time>
      </trkpt>
      <trkpt lat="43.5813" lon="6.40221">
        <ele>545.9</ele>
        <time>2022-01-19T15:54:49.000Z</time>
      </trkpt>
      <trkpt lat="43.58127" lon="6.40229">
        <ele>545.5</ele>
        <time>2022-01-19T15:54:53.000Z</time>
      </trkpt>
      <trkpt lat="43.58125" lon="6.40234">
        <ele>544.7</ele>
        <time>2022-01-19T15:54:56.000Z</time>
      </trkpt>
      <trkpt lat="43.58122" lon="6.4024">
        <ele>543.9</ele>
        <time>2022-01-19T15:55:00.000Z</time>
      </trkpt>
      <trkpt lat="43.5812" lon="6.40247">
        <ele>543.2</ele>
        <time>2022-01-19T15:55:04.000Z</time>
      </trkpt>
      <trkpt lat="43.58117" lon="6.40254">
        <ele>542.4</ele>
        <time>2022-01-19T15:55:08.000Z</time>
      </trkpt>
      <trkpt lat="43.58114" lon="6.40262">
        <ele>541.7</ele>
        <time>2022-01-19T15:55:12.000Z</time>
      </trkpt>
      <trkpt lat="43.58111" lon="6.40268">
        <ele>541.2</ele>
        <time>2022-01-19T15:55:16.000Z</time>
      </trkpt>
      <trkpt lat="43.58109" lon="6.40275">
        <ele>540.6</ele>
        <time>2022-01-19T15:55:20.000Z</time>
      </trkpt>
      <trkpt lat="43.58109" lon="6.40282">
        <ele>539.7</ele>
        <time>2022-01-19T15:55:25.000Z</time>
      </trkpt>
      <trkpt lat="43.58109" lon="6.40288">
        <ele>538.9</ele>
        <time>2022-01-19T15:55:29.000Z</time>
      </trkpt>
      <trkpt lat="43.58109" lon="6.40295">
        <ele>537.7</ele>
        <time>2022-01-19T15:55:34.000Z</time>
      </trkpt>
      <trkpt lat="43.58108" lon="6.40303">
        <ele>536.4</ele>
        <time>2022-01-19T15:55:39.000Z</time>
      </trkpt>
      <trkpt lat="43.58107" lon="6.40311">
        <ele>535.6</ele>
        <time>2022-01-19T15:55:43.000Z</time>
      </trkpt>
      <trkpt lat="43.58106" lon="6.40318">
        <ele>535.1</ele>
        <time>2022-01-19T15:55:46.000Z</time>
      </trkpt>
      <trkpt lat="43.58105" lon="6.40325">
        <ele>534.7</ele>
        <time>2022-01-19T15:55:49.000Z</time>
      </trkpt>
      <trkpt lat="43.58103" lon="6.40332">
        <ele>534.4</ele>
        <time>2022-01-19T15:55:52.000Z</time>
      </trkpt>
      <trkpt lat="43.58101" lon="6.40339">
        <ele>534.1</ele>
        <time>2022-01-19T15:55:55.000Z</time>
      </trkpt>
      <trkpt lat="43.58099" lon="6.40345">
        <ele>533.8</ele>
        <time>2022-01-19T15:55:58.000Z</time>
      </trkpt>
      <trkpt lat="43.58097" lon="6.40352">
        <ele>533.5</ele>
        <time>2022-01-19T15:56:02.000Z</time>
      </trkpt>
      <trkpt lat="43.58094" lon="6.40358">
        <ele>533.2</ele>
        <time>2022-01-19T15:56:05.000Z</time>
      </trkpt>
      <trkpt lat="43.58092" lon="6.40363">
        <ele>533.1</ele>
        <time>2022-01-19T15:56:08.000Z</time>
      </trkpt>
      <trkpt lat="43.5809" lon="6.40369">
        <ele>532.8</ele>
        <time>2022-01-19T15:56:11.000Z</time>
      </trkpt>
      <trkpt lat="43.58088" lon="6.40377">
        <ele>532.4</ele>
        <time>2022-01-19T15:56:15.000Z</time>
      </trkpt>
      <trkpt lat="43.58086" lon="6.40384">
        <ele>532.1</ele>
        <time>2022-01-19T15:56:19.000Z</time>
      </trkpt>
      <trkpt lat="43.58083" lon="6.40389">
        <ele>531.9</ele>
        <time>2022-01-19T15:56:22.000Z</time>
      </trkpt>
      <trkpt lat="43.5808" lon="6.40394">
        <ele>531.6</ele>
        <time>2022-01-19T15:56:25.000Z</time>
      </trkpt>
      <trkpt lat="43.58076" lon="6.404">
        <ele>531.4</ele>
        <time>2022-01-19T15:56:29.000Z</time>
      </trkpt>
      <trkpt lat="43.58073" lon="6.40406">
        <ele>531.2</ele>
        <time>2022-01-19T15:56:33.000Z</time>
      </trkpt>
      <trkpt lat="43.58069" lon="6.40412">
        <ele>531.1</ele>
        <time>2022-01-19T15:56:37.000Z</time>
      </trkpt>
      <trkpt lat="43.58066" lon="6.40419">
        <ele>530.9</ele>
        <time>2022-01-19T15:56:41.000Z</time>
      </trkpt>
      <trkpt lat="43.58063" lon="6.40424">
        <ele>530.9</ele>
        <time>2022-01-19T15:56:44.000Z</time>
      </trkpt>
      <trkpt lat="43.5806" lon="6.4043">
        <ele>530.8</ele>
        <time>2022-01-19T15:56:48.000Z</time>
      </trkpt>
      <trkpt lat="43.58056" lon="6.40436">
        <ele>530.6</ele>
        <time>2022-01-19T15:56:52.000Z</time>
      </trkpt>
      <trkpt lat="43.58053" lon="6.40442">
        <ele>530.3</ele>
        <time>2022-01-19T15:56:56.000Z</time>
      </trkpt>
      <trkpt lat="43.5805" lon="6.40448">
        <ele>530.1</ele>
        <time>2022-01-19T15:57:00.000Z</time>
      </trkpt>
      <trkpt lat="43.58046" lon="6.40455">
        <ele>530</ele>
        <time>2022-01-19T15:57:04.000Z</time>
      </trkpt>
      <trkpt lat="43.58042" lon="6.40461">
        <ele>529.9</ele>
        <time>2022-01-19T15:57:08.000Z</time>
      </trkpt>
      <trkpt lat="43.58039" lon="6.40467">
        <ele>529.8</ele>
        <time>2022-01-19T15:57:12.000Z</time>
      </trkpt>
      <trkpt lat="43.58037" lon="6.40473">
        <ele>529.6</ele>
        <time>2022-01-19T15:57:15.000Z</time>
      </trkpt>
      <trkpt lat="43.58034" lon="6.4048">
        <ele>529.4</ele>
        <time>2022-01-19T15:57:19.000Z</time>
      </trkpt>
      <trkpt lat="43.58031" lon="6.40487">
        <ele>529.1</ele>
        <time>2022-01-19T15:57:23.000Z</time>
      </trkpt>
      <trkpt lat="43.58029" lon="6.40493">
        <ele>528.9</ele>
        <time>2022-01-19T15:57:27.000Z</time>
      </trkpt>
      <trkpt lat="43.58026" lon="6.405">
        <ele>528.7</ele>
        <time>2022-01-19T15:57:31.000Z</time>
      </trkpt>
      <trkpt lat="43.58024" lon="6.40505">
        <ele>528.2</ele>
        <time>2022-01-19T15:57:34.000Z</time>
      </trkpt>
      <trkpt lat="43.58022" lon="6.40512">
        <ele>527.7</ele>
        <time>2022-01-19T15:57:38.000Z</time>
      </trkpt>
      <trkpt lat="43.5802" lon="6.40519">
        <ele>527.2</ele>
        <time>2022-01-19T15:57:42.000Z</time>
      </trkpt>
      <trkpt lat="43.58018" lon="6.40527">
        <ele>526.8</ele>
        <time>2022-01-19T15:57:46.000Z</time>
      </trkpt>
      <trkpt lat="43.58016" lon="6.40534">
        <ele>526.4</ele>
        <time>2022-01-19T15:57:50.000Z</time>
      </trkpt>
      <trkpt lat="43.58014" lon="6.40542">
        <ele>526.1</ele>
        <time>2022-01-19T15:57:54.000Z</time>
      </trkpt>
      <trkpt lat="43.58013" lon="6.40549">
        <ele>525.6</ele>
        <time>2022-01-19T15:57:58.000Z</time>
      </trkpt>
      <trkpt lat="43.58011" lon="6.40557">
        <ele>525.1</ele>
        <time>2022-01-19T15:58:02.000Z</time>
      </trkpt>
      <trkpt lat="43.5801" lon="6.40565">
        <ele>524.6</ele>
        <time>2022-01-19T15:58:06.000Z</time>
      </trkpt>
      <trkpt lat="43.58009" lon="6.40573">
        <ele>524.1</ele>
        <time>2022-01-19T15:58:10.000Z</time>
      </trkpt>
      <trkpt lat="43.58008" lon="6.4058">
        <ele>523.3</ele>
        <time>2022-01-19T15:58:14.000Z</time>
      </trkpt>
      <trkpt lat="43.58008" lon="6.40588">
        <ele>522.4</ele>
        <time>2022-01-19T15:58:18.000Z</time>
      </trkpt>
      <trkpt lat="43.58007" lon="6.40595">
        <ele>521.6</ele>
        <time>2022-01-19T15:58:22.000Z</time>
      </trkpt>
      <trkpt lat="43.58006" lon="6.40602">
        <ele>520.8</ele>
        <time>2022-01-19T15:58:26.000Z</time>
      </trkpt>
      <trkpt lat="43.58005" lon="6.40609">
        <ele>520.1</ele>
        <time>2022-01-19T15:58:30.000Z</time>
      </trkpt>
      <trkpt lat="43.58003" lon="6.40616">
        <ele>519.3</ele>
        <time>2022-01-19T15:58:34.000Z</time>
      </trkpt>
      <trkpt lat="43.58001" lon="6.40623">
        <ele>518.7</ele>
        <time>2022-01-19T15:58:38.000Z</time>
      </trkpt>
      <trkpt lat="43.57999" lon="6.4063">
        <ele>518.1</ele>
        <time>2022-01-19T15:58:42.000Z</time>
      </trkpt>
      <trkpt lat="43.57998" lon="6.40636">
        <ele>517.7</ele>
        <time>2022-01-19T15:58:45.000Z</time>
      </trkpt>
      <trkpt lat="43.57995" lon="6.40643">
        <ele>517</ele>
        <time>2022-01-19T15:58:49.000Z</time>
      </trkpt>
      <trkpt lat="43.57993" lon="6.40649">
        <ele>516.3</ele>
        <time>2022-01-19T15:58:53.000Z</time>
      </trkpt>
      <trkpt lat="43.57989" lon="6.40654">
        <ele>515.7</ele>
        <time>2022-01-19T15:58:57.000Z</time>
      </trkpt>
      <trkpt lat="43.57986" lon="6.40661">
        <ele>514.6</ele>
        <time>2022-01-19T15:59:02.000Z</time>
      </trkpt>
      <trkpt lat="43.57984" lon="6.40667">
        <ele>513.4</ele>
        <time>2022-01-19T15:59:06.000Z</time>
      </trkpt>
      <trkpt lat="43.57983" lon="6.40675">
        <ele>512.4</ele>
        <time>2022-01-19T15:59:10.000Z</time>
      </trkpt>
      <trkpt lat="43.57982" lon="6.40682">
        <ele>511.6</ele>
        <time>2022-01-19T15:59:14.000Z</time>
      </trkpt>
      <trkpt lat="43.57982" lon="6.40689">
        <ele>510.7</ele>
        <time>2022-01-19T15:59:18.000Z</time>
      </trkpt>
      <trkpt lat="43.57983" lon="6.40696">
        <ele>510</ele>
        <time>2022-01-19T15:59:21.000Z</time>
      </trkpt>
      <trkpt lat="43.57984" lon="6.40703">
        <ele>508.6</ele>
        <time>2022-01-19T15:59:25.000Z</time>
      </trkpt>
      <trkpt lat="43.57984" lon="6.40711">
        <ele>507.5</ele>
        <time>2022-01-19T15:59:29.000Z</time>
      </trkpt>
      <trkpt lat="43.57984" lon="6.40718">
        <ele>506.2</ele>
        <time>2022-01-19T15:59:33.000Z</time>
      </trkpt>
      <trkpt lat="43.57984" lon="6.40726">
        <ele>505</ele>
        <time>2022-01-19T15:59:37.000Z</time>
      </trkpt>
      <trkpt lat="43.57984" lon="6.40733">
        <ele>504.1</ele>
        <time>2022-01-19T15:59:41.000Z</time>
      </trkpt>
      <trkpt lat="43.57985" lon="6.40741">
        <ele>503.2</ele>
        <time>2022-01-19T15:59:46.000Z</time>
      </trkpt>
      <trkpt lat="43.57986" lon="6.40748">
        <ele>502.5</ele>
        <time>2022-01-19T15:59:50.000Z</time>
      </trkpt>
      <trkpt lat="43.57985" lon="6.40755">
        <ele>501.9</ele>
        <time>2022-01-19T15:59:54.000Z</time>
      </trkpt>
      <trkpt lat="43.57985" lon="6.40761">
        <ele>501.4</ele>
        <time>2022-01-19T15:59:58.000Z</time>
      </trkpt>
      <trkpt lat="43.57983" lon="6.40767">
        <ele>500.5</ele>
        <time>2022-01-19T16:00:04.000Z</time>
      </trkpt>
      <trkpt lat="43.5798" lon="6.40774">
        <ele>499.5</ele>
        <time>2022-01-19T16:00:09.000Z</time>
      </trkpt>
      <trkpt lat="43.57978" lon="6.4078">
        <ele>498.6</ele>
        <time>2022-01-19T16:00:14.000Z</time>
      </trkpt>
      <trkpt lat="43.57976" lon="6.40787">
        <ele>498</ele>
        <time>2022-01-19T16:00:18.000Z</time>
      </trkpt>
      <trkpt lat="43.57975" lon="6.40794">
        <ele>497.3</ele>
        <time>2022-01-19T16:00:22.000Z</time>
      </trkpt>
      <trkpt lat="43.57973" lon="6.408">
        <ele>496.9</ele>
        <time>2022-01-19T16:00:25.000Z</time>
      </trkpt>
      <trkpt lat="43.57972" lon="6.40806">
        <ele>496.5</ele>
        <time>2022-01-19T16:00:28.000Z</time>
      </trkpt>
      <trkpt lat="43.5797" lon="6.40812">
        <ele>496.1</ele>
        <time>2022-01-19T16:00:31.000Z</time>
      </trkpt>
      <trkpt lat="43.57968" lon="6.40818">
        <ele>495.9</ele>
        <time>2022-01-19T16:00:34.000Z</time>
      </trkpt>
      <trkpt lat="43.57965" lon="6.40825">
        <ele>495.5</ele>
        <time>2022-01-19T16:00:37.000Z</time>
      </trkpt>
      <trkpt lat="43.57963" lon="6.40831">
        <ele>495.1</ele>
        <time>2022-01-19T16:00:40.000Z</time>
      </trkpt>
      <trkpt lat="43.57959" lon="6.40835">
        <ele>494.6</ele>
        <time>2022-01-19T16:00:43.000Z</time>
      </trkpt>
      <trkpt lat="43.57955" lon="6.40841">
        <ele>494.1</ele>
        <time>2022-01-19T16:00:47.000Z</time>
      </trkpt>
      <trkpt lat="43.57952" lon="6.40846">
        <ele>493.6</ele>
        <time>2022-01-19T16:00:50.000Z</time>
      </trkpt>
      <trkpt lat="43.57949" lon="6.40852">
        <ele>493</ele>
        <time>2022-01-19T16:00:54.000Z</time>
      </trkpt>
      <trkpt lat="43.57947" lon="6.40858">
        <ele>492.4</ele>
        <time>2022-01-19T16:00:58.000Z</time>
      </trkpt>
      <trkpt lat="43.57943" lon="6.40864">
        <ele>491.6</ele>
        <time>2022-01-19T16:01:02.000Z</time>
      </trkpt>
      <trkpt lat="43.5794" lon="6.40869">
        <ele>491</ele>
        <time>2022-01-19T16:01:06.000Z</time>
      </trkpt>
      <trkpt lat="43.57936" lon="6.40874">
        <ele>490.2</ele>
        <time>2022-01-19T16:01:10.000Z</time>
      </trkpt>
      <trkpt lat="43.57933" lon="6.40879">
        <ele>489.4</ele>
        <time>2022-01-19T16:01:14.000Z</time>
      </trkpt>
      <trkpt lat="43.5793" lon="6.40885">
        <ele>488.7</ele>
        <time>2022-01-19T16:01:18.000Z</time>
      </trkpt>
      <trkpt lat="43.57927" lon="6.40892">
        <ele>488.2</ele>
        <time>2022-01-19T16:01:22.000Z</time>
      </trkpt>
      <trkpt lat="43.57924" lon="6.40896">
        <ele>487.8</ele>
        <time>2022-01-19T16:01:25.000Z</time>
      </trkpt>
      <trkpt lat="43.57921" lon="6.40902">
        <ele>487.3</ele>
        <time>2022-01-19T16:01:29.000Z</time>
      </trkpt>
      <trkpt lat="43.57918" lon="6.40909">
        <ele>487</ele>
        <time>2022-01-19T16:01:33.000Z</time>
      </trkpt>
      <trkpt lat="43.57915" lon="6.40916">
        <ele>486.7</ele>
        <time>2022-01-19T16:01:37.000Z</time>
      </trkpt>
      <trkpt lat="43.57912" lon="6.40922">
        <ele>486.5</ele>
        <time>2022-01-19T16:01:41.000Z</time>
      </trkpt>
      <trkpt lat="43.57909" lon="6.40927">
        <ele>486.3</ele>
        <time>2022-01-19T16:01:44.000Z</time>
      </trkpt>
      <trkpt lat="43.57905" lon="6.40933">
        <ele>486.2</ele>
        <time>2022-01-19T16:01:48.000Z</time>
      </trkpt>
      <trkpt lat="43.57902" lon="6.40938">
        <ele>486.1</ele>
        <time>2022-01-19T16:01:51.000Z</time>
      </trkpt>
      <trkpt lat="43.57899" lon="6.40943">
        <ele>485.9</ele>
        <time>2022-01-19T16:01:54.000Z</time>
      </trkpt>
      <trkpt lat="43.57895" lon="6.40949">
        <ele>485.7</ele>
        <time>2022-01-19T16:01:58.000Z</time>
      </trkpt>
      <trkpt lat="43.57892" lon="6.40954">
        <ele>485.4</ele>
        <time>2022-01-19T16:02:02.000Z</time>
      </trkpt>
      <trkpt lat="43.57889" lon="6.40959">
        <ele>485.1</ele>
        <time>2022-01-19T16:02:05.000Z</time>
      </trkpt>
      <trkpt lat="43.57886" lon="6.40964">
        <ele>484.8</ele>
        <time>2022-01-19T16:02:08.000Z</time>
      </trkpt>
      <trkpt lat="43.57884" lon="6.4097">
        <ele>484.6</ele>
        <time>2022-01-19T16:02:11.000Z</time>
      </trkpt>
      <trkpt lat="43.57882" lon="6.40976">
        <ele>484.4</ele>
        <time>2022-01-19T16:02:14.000Z</time>
      </trkpt>
      <trkpt lat="43.5788" lon="6.40983">
        <ele>484.2</ele>
        <time>2022-01-19T16:02:18.000Z</time>
      </trkpt>
      <trkpt lat="43.57878" lon="6.40989">
        <ele>484.1</ele>
        <time>2022-01-19T16:02:21.000Z</time>
      </trkpt>
      <trkpt lat="43.57876" lon="6.40995">
        <ele>483.8</ele>
        <time>2022-01-19T16:02:25.000Z</time>
      </trkpt>
      <trkpt lat="43.57875" lon="6.41001">
        <ele>483.4</ele>
        <time>2022-01-19T16:02:29.000Z</time>
      </trkpt>
      <trkpt lat="43.57874" lon="6.41008">
        <ele>482.9</ele>
        <time>2022-01-19T16:02:33.000Z</time>
      </trkpt>
      <trkpt lat="43.57872" lon="6.41014">
        <ele>482.4</ele>
        <time>2022-01-19T16:02:37.000Z</time>
      </trkpt>
      <trkpt lat="43.57871" lon="6.4102">
        <ele>482</ele>
        <time>2022-01-19T16:02:41.000Z</time>
      </trkpt>
      <trkpt lat="43.5787" lon="6.41027">
        <ele>481.5</ele>
        <time>2022-01-19T16:02:45.000Z</time>
      </trkpt>
      <trkpt lat="43.57868" lon="6.41034">
        <ele>481.2</ele>
        <time>2022-01-19T16:02:49.000Z</time>
      </trkpt>
      <trkpt lat="43.57867" lon="6.4104">
        <ele>480.9</ele>
        <time>2022-01-19T16:02:53.000Z</time>
      </trkpt>
      <trkpt lat="43.57865" lon="6.41048">
        <ele>480.5</ele>
        <time>2022-01-19T16:02:58.000Z</time>
      </trkpt>
      <trkpt lat="43.57863" lon="6.41054">
        <ele>480.2</ele>
        <time>2022-01-19T16:03:03.000Z</time>
      </trkpt>
      <trkpt lat="43.57861" lon="6.41061">
        <ele>479.8</ele>
        <time>2022-01-19T16:03:08.000Z</time>
      </trkpt>
      <trkpt lat="43.57858" lon="6.41068">
        <ele>479.6</ele>
        <time>2022-01-19T16:03:12.000Z</time>
      </trkpt>
      <trkpt lat="43.57856" lon="6.41075">
        <ele>479.4</ele>
        <time>2022-01-19T16:03:17.000Z</time>
      </trkpt>
      <trkpt lat="43.57854" lon="6.41081">
        <ele>479.2</ele>
        <time>2022-01-19T16:03:22.000Z</time>
      </trkpt>
      <trkpt lat="43.57852" lon="6.41087">
        <ele>478.9</ele>
        <time>2022-01-19T16:03:26.000Z</time>
      </trkpt>
      <trkpt lat="43.5785" lon="6.41093">
        <ele>478.5</ele>
        <time>2022-01-19T16:03:30.000Z</time>
      </trkpt>
      <trkpt lat="43.57848" lon="6.411">
        <ele>478.3</ele>
        <time>2022-01-19T16:03:34.000Z</time>
      </trkpt>
      <trkpt lat="43.57846" lon="6.41106">
        <ele>478.1</ele>
        <time>2022-01-19T16:03:38.000Z</time>
      </trkpt>
      <trkpt lat="43.57844" lon="6.41111">
        <ele>477.9</ele>
        <time>2022-01-19T16:03:42.000Z</time>
      </trkpt>
      <trkpt lat="43.57841" lon="6.41117">
        <ele>477.7</ele>
        <time>2022-01-19T16:03:46.000Z</time>
      </trkpt>
      <trkpt lat="43.57839" lon="6.41124">
        <ele>477.5</ele>
        <time>2022-01-19T16:03:50.000Z</time>
      </trkpt>
      <trkpt lat="43.57837" lon="6.4113">
        <ele>477.1</ele>
        <time>2022-01-19T16:03:54.000Z</time>
      </trkpt>
      <trkpt lat="43.57836" lon="6.41137">
        <ele>476.9</ele>
        <time>2022-01-19T16:03:58.000Z</time>
      </trkpt>
      <trkpt lat="43.57835" lon="6.41143">
        <ele>476.6</ele>
        <time>2022-01-19T16:04:02.000Z</time>
      </trkpt>
      <trkpt lat="43.57834" lon="6.41151">
        <ele>476.3</ele>
        <time>2022-01-19T16:04:06.000Z</time>
      </trkpt>
      <trkpt lat="43.57833" lon="6.41158">
        <ele>475.8</ele>
        <time>2022-01-19T16:04:10.000Z</time>
      </trkpt>
      <trkpt lat="43.57833" lon="6.41165">
        <ele>475.4</ele>
        <time>2022-01-19T16:04:14.000Z</time>
      </trkpt>
      <trkpt lat="43.57833" lon="6.41172">
        <ele>474.9</ele>
        <time>2022-01-19T16:04:18.000Z</time>
      </trkpt>
      <trkpt lat="43.57832" lon="6.41179">
        <ele>474.4</ele>
        <time>2022-01-19T16:04:22.000Z</time>
      </trkpt>
      <trkpt lat="43.57832" lon="6.41186">
        <ele>474</ele>
        <time>2022-01-19T16:04:26.000Z</time>
      </trkpt>
      <trkpt lat="43.57831" lon="6.41194">
        <ele>473.3</ele>
        <time>2022-01-19T16:04:31.000Z</time>
      </trkpt>
      <trkpt lat="43.5783" lon="6.41201">
        <ele>472.8</ele>
        <time>2022-01-19T16:04:35.000Z</time>
      </trkpt>
      <trkpt lat="43.57829" lon="6.41208">
        <ele>472.5</ele>
        <time>2022-01-19T16:04:39.000Z</time>
      </trkpt>
      <trkpt lat="43.57829" lon="6.41215">
        <ele>472.1</ele>
        <time>2022-01-19T16:04:43.000Z</time>
      </trkpt>
      <trkpt lat="43.57828" lon="6.41222">
        <ele>471.5</ele>
        <time>2022-01-19T16:04:47.000Z</time>
      </trkpt>
      <trkpt lat="43.57827" lon="6.41229">
        <ele>470.9</ele>
        <time>2022-01-19T16:04:52.000Z</time>
      </trkpt>
      <trkpt lat="43.57825" lon="6.41234">
        <ele>470.2</ele>
        <time>2022-01-19T16:04:56.000Z</time>
      </trkpt>
      <trkpt lat="43.57822" lon="6.4124">
        <ele>469.3</ele>
        <time>2022-01-19T16:05:01.000Z</time>
      </trkpt>
      <trkpt lat="43.57819" lon="6.41245">
        <ele>468.6</ele>
        <time>2022-01-19T16:05:05.000Z</time>
      </trkpt>
      <trkpt lat="43.57814" lon="6.41249">
        <ele>467.5</ele>
        <time>2022-01-19T16:05:09.000Z</time>
      </trkpt>
      <trkpt lat="43.5781" lon="6.41253">
        <ele>466.3</ele>
        <time>2022-01-19T16:05:14.000Z</time>
      </trkpt>
      <trkpt lat="43.57807" lon="6.41258">
        <ele>465.1</ele>
        <time>2022-01-19T16:05:19.000Z</time>
      </trkpt>
      <trkpt lat="43.57804" lon="6.41263">
        <ele>464</ele>
        <time>2022-01-19T16:05:24.000Z</time>
      </trkpt>
      <trkpt lat="43.57805" lon="6.41269">
        <ele>462.4</ele>
        <time>2022-01-19T16:05:32.000Z</time>
      </trkpt>
      <trkpt lat="43.57807" lon="6.41276">
        <ele>461</ele>
        <time>2022-01-19T16:05:38.000Z</time>
      </trkpt>
      <trkpt lat="43.57809" lon="6.41282">
        <ele>460</ele>
        <time>2022-01-19T16:05:42.000Z</time>
      </trkpt>
      <trkpt lat="43.57811" lon="6.41287">
        <ele>459.2</ele>
        <time>2022-01-19T16:05:46.000Z</time>
      </trkpt>
      <trkpt lat="43.57813" lon="6.41294">
        <ele>457.8</ele>
        <time>2022-01-19T16:05:52.000Z</time>
      </trkpt>
      <trkpt lat="43.57813" lon="6.413">
        <ele>456.9</ele>
        <time>2022-01-19T16:05:56.000Z</time>
      </trkpt>
      <trkpt lat="43.57814" lon="6.41307">
        <ele>455.7</ele>
        <time>2022-01-19T16:06:01.000Z</time>
      </trkpt>
      <trkpt lat="43.57817" lon="6.41314">
        <ele>454.8</ele>
        <time>2022-01-19T16:06:05.000Z</time>
      </trkpt>
      <trkpt lat="43.57819" lon="6.41319">
        <ele>453.5</ele>
        <time>2022-01-19T16:06:10.000Z</time>
      </trkpt>
      <trkpt lat="43.57821" lon="6.41327">
        <ele>452.5</ele>
        <time>2022-01-19T16:06:15.000Z</time>
      </trkpt>
      <trkpt lat="43.57823" lon="6.41334">
        <ele>451.5</ele>
        <time>2022-01-19T16:06:19.000Z</time>
      </trkpt>
      <trkpt lat="43.57824" lon="6.41341">
        <ele>450.6</ele>
        <time>2022-01-19T16:06:23.000Z</time>
      </trkpt>
      <trkpt lat="43.57824" lon="6.41348">
        <ele>449.7</ele>
        <time>2022-01-19T16:06:27.000Z</time>
      </trkpt>
      <trkpt lat="43.57825" lon="6.41355">
        <ele>448.8</ele>
        <time>2022-01-19T16:06:31.000Z</time>
      </trkpt>
      <trkpt lat="43.57826" lon="6.41362">
        <ele>448</ele>
        <time>2022-01-19T16:06:35.000Z</time>
      </trkpt>
      <trkpt lat="43.57826" lon="6.41369">
        <ele>447.4</ele>
        <time>2022-01-19T16:06:38.000Z</time>
      </trkpt>
      <trkpt lat="43.57827" lon="6.41377">
        <ele>446.6</ele>
        <time>2022-01-19T16:06:42.000Z</time>
      </trkpt>
      <trkpt lat="43.57827" lon="6.41384">
        <ele>446.1</ele>
        <time>2022-01-19T16:06:45.000Z</time>
      </trkpt>
      <trkpt lat="43.57828" lon="6.4139">
        <ele>445.5</ele>
        <time>2022-01-19T16:06:49.000Z</time>
      </trkpt>
      <trkpt lat="43.57829" lon="6.41396">
        <ele>445.1</ele>
        <time>2022-01-19T16:06:53.000Z</time>
      </trkpt>
      <trkpt lat="43.57829" lon="6.41403">
        <ele>444.1</ele>
        <time>2022-01-19T16:07:00.000Z</time>
      </trkpt>
      <trkpt lat="43.57831" lon="6.4141">
        <ele>443.5</ele>
        <time>2022-01-19T16:07:04.000Z</time>
      </trkpt>
      <trkpt lat="43.57832" lon="6.41417">
        <ele>442.8</ele>
        <time>2022-01-19T16:07:08.000Z</time>
      </trkpt>
      <trkpt lat="43.57834" lon="6.41423">
        <ele>442.1</ele>
        <time>2022-01-19T16:07:11.000Z</time>
      </trkpt>
      <trkpt lat="43.57836" lon="6.4143">
        <ele>441.5</ele>
        <time>2022-01-19T16:07:14.000Z</time>
      </trkpt>
      <trkpt lat="43.57838" lon="6.41437">
        <ele>440.7</ele>
        <time>2022-01-19T16:07:18.000Z</time>
      </trkpt>
      <trkpt lat="43.5784" lon="6.41444">
        <ele>440.2</ele>
        <time>2022-01-19T16:07:21.000Z</time>
      </trkpt>
      <trkpt lat="43.57843" lon="6.41449">
        <ele>439.7</ele>
        <time>2022-01-19T16:07:24.000Z</time>
      </trkpt>
      <trkpt lat="43.57845" lon="6.41456">
        <ele>438.9</ele>
        <time>2022-01-19T16:07:29.000Z</time>
      </trkpt>
      <trkpt lat="43.57846" lon="6.41463">
        <ele>438.2</ele>
        <time>2022-01-19T16:07:34.000Z</time>
      </trkpt>
      <trkpt lat="43.57848" lon="6.4147">
        <ele>437.3</ele>
        <time>2022-01-19T16:07:39.000Z</time>
      </trkpt>
      <trkpt lat="43.57849" lon="6.41476">
        <ele>436.6</ele>
        <time>2022-01-19T16:07:43.000Z</time>
      </trkpt>
      <trkpt lat="43.5785" lon="6.41483">
        <ele>435.9</ele>
        <time>2022-01-19T16:07:47.000Z</time>
      </trkpt>
      <trkpt lat="43.57851" lon="6.4149">
        <ele>435.1</ele>
        <time>2022-01-19T16:07:51.000Z</time>
      </trkpt>
      <trkpt lat="43.57853" lon="6.41496">
        <ele>434</ele>
        <time>2022-01-19T16:07:56.000Z</time>
      </trkpt>
      <trkpt lat="43.57854" lon="6.41503">
        <ele>432.9</ele>
        <time>2022-01-19T16:08:02.000Z</time>
      </trkpt>
      <trkpt lat="43.57854" lon="6.4151">
        <ele>432.2</ele>
        <time>2022-01-19T16:08:06.000Z</time>
      </trkpt>
      <trkpt lat="43.57855" lon="6.41516">
        <ele>431.3</ele>
        <time>2022-01-19T16:08:10.000Z</time>
      </trkpt>
      <trkpt lat="43.57858" lon="6.41523">
        <ele>430.4</ele>
        <time>2022-01-19T16:08:14.000Z</time>
      </trkpt>
      <trkpt lat="43.5786" lon="6.41529">
        <ele>429.5</ele>
        <time>2022-01-19T16:08:18.000Z</time>
      </trkpt>
      <trkpt lat="43.57861" lon="6.41536">
        <ele>428.3</ele>
        <time>2022-01-19T16:08:23.000Z</time>
      </trkpt>
      <trkpt lat="43.57861" lon="6.41543">
        <ele>427.3</ele>
        <time>2022-01-19T16:08:27.000Z</time>
      </trkpt>
      <trkpt lat="43.57864" lon="6.41549">
        <ele>425.9</ele>
        <time>2022-01-19T16:08:33.000Z</time>
      </trkpt>
      <trkpt lat="43.57865" lon="6.41555">
        <ele>425.1</ele>
        <time>2022-01-19T16:08:38.000Z</time>
      </trkpt>
      <trkpt lat="43.57865" lon="6.41562">
        <ele>424.1</ele>
        <time>2022-01-19T16:08:44.000Z</time>
      </trkpt>
      <trkpt lat="43.57865" lon="6.41569">
        <ele>423.4</ele>
        <time>2022-01-19T16:08:49.000Z</time>
      </trkpt>
      <trkpt lat="43.57866" lon="6.41575">
        <ele>422.6</ele>
        <time>2022-01-19T16:08:53.000Z</time>
      </trkpt>
      <trkpt lat="43.57867" lon="6.41581">
        <ele>421.9</ele>
        <time>2022-01-19T16:08:57.000Z</time>
      </trkpt>
      <trkpt lat="43.57867" lon="6.41588">
        <ele>421</ele>
        <time>2022-01-19T16:09:01.000Z</time>
      </trkpt>
      <trkpt lat="43.57868" lon="6.41596">
        <ele>419.6</ele>
        <time>2022-01-19T16:09:06.000Z</time>
      </trkpt>
      <trkpt lat="43.57868" lon="6.41603">
        <ele>418.2</ele>
        <time>2022-01-19T16:09:11.000Z</time>
      </trkpt>
      <trkpt lat="43.5787" lon="6.4161">
        <ele>417</ele>
        <time>2022-01-19T16:09:16.000Z</time>
      </trkpt>
      <trkpt lat="43.57871" lon="6.41617">
        <ele>416.1</ele>
        <time>2022-01-19T16:09:20.000Z</time>
      </trkpt>
      <trkpt lat="43.57872" lon="6.41624">
        <ele>415.1</ele>
        <time>2022-01-19T16:09:25.000Z</time>
      </trkpt>
      <trkpt lat="43.57875" lon="6.41629">
        <ele>414.4</ele>
        <time>2022-01-19T16:09:29.000Z</time>
      </trkpt>
      <trkpt lat="43.57879" lon="6.41634">
        <ele>413.7</ele>
        <time>2022-01-19T16:09:34.000Z</time>
      </trkpt>
      <trkpt lat="43.57882" lon="6.4164">
        <ele>412.9</ele>
        <time>2022-01-19T16:09:41.000Z</time>
      </trkpt>
      <trkpt lat="43.57886" lon="6.4164">
        <ele>412</ele>
        <time>2022-01-19T16:10:00.000Z</time>
      </trkpt>
      <trkpt lat="43.57885" lon="6.41647">
        <ele>411.5</ele>
        <time>2022-01-19T16:11:40.000Z</time>
      </trkpt>
      <trkpt lat="43.57888" lon="6.41652">
        <ele>411.4</ele>
        <time>2022-01-19T16:11:54.000Z</time>
      </trkpt>
      <trkpt lat="43.57892" lon="6.41652">
        <ele>411.2</ele>
        <time>2022-01-19T16:12:18.000Z</time>
      </trkpt>
      <trkpt lat="43.57897" lon="6.41651">
        <ele>411.1</ele>
        <time>2022-01-19T16:12:33.000Z</time>
      </trkpt>
      <trkpt lat="43.57902" lon="6.41652">
        <ele>411.1</ele>
        <time>2022-01-19T16:13:17.000Z</time>
      </trkpt>
      <trkpt lat="43.57906" lon="6.41656">
        <ele>411.1</ele>
        <time>2022-01-19T16:13:22.000Z</time>
      </trkpt>
      <trkpt lat="43.5791" lon="6.41659">
        <ele>411.1</ele>
        <time>2022-01-19T16:13:26.000Z</time>
      </trkpt>
      <trkpt lat="43.57915" lon="6.41661">
        <ele>411</ele>
        <time>2022-01-19T16:13:30.000Z</time>
      </trkpt>
      <trkpt lat="43.57919" lon="6.41664">
        <ele>411</ele>
        <time>2022-01-19T16:13:34.000Z</time>
      </trkpt>
      <trkpt lat="43.57923" lon="6.41666">
        <ele>410.9</ele>
        <time>2022-01-19T16:13:38.000Z</time>
      </trkpt>
      <trkpt lat="43.57928" lon="6.41668">
        <ele>410.9</ele>
        <time>2022-01-19T16:13:42.000Z</time>
      </trkpt>
      <trkpt lat="43.57933" lon="6.41671">
        <ele>410.8</ele>
        <time>2022-01-19T16:13:46.000Z</time>
      </trkpt>
      <trkpt lat="43.57937" lon="6.41675">
        <ele>410.8</ele>
        <time>2022-01-19T16:13:50.000Z</time>
      </trkpt>
      <trkpt lat="43.57941" lon="6.41678">
        <ele>410.7</ele>
        <time>2022-01-19T16:13:54.000Z</time>
      </trkpt>
      <trkpt lat="43.57945" lon="6.41682">
        <ele>410.7</ele>
        <time>2022-01-19T16:13:58.000Z</time>
      </trkpt>
      <trkpt lat="43.57949" lon="6.41686">
        <ele>410.1</ele>
        <time>2022-01-19T16:14:02.000Z</time>
      </trkpt>
      <trkpt lat="43.57953" lon="6.41689">
        <ele>409.7</ele>
        <time>2022-01-19T16:14:06.000Z</time>
      </trkpt>
      <trkpt lat="43.57958" lon="6.41693">
        <ele>409.4</ele>
        <time>2022-01-19T16:14:10.000Z</time>
      </trkpt>
      <trkpt lat="43.57963" lon="6.41696">
        <ele>409.1</ele>
        <time>2022-01-19T16:14:14.000Z</time>
      </trkpt>
      <trkpt lat="43.57968" lon="6.41699">
        <ele>408.7</ele>
        <time>2022-01-19T16:14:18.000Z</time>
      </trkpt>
      <trkpt lat="43.57973" lon="6.41702">
        <ele>408.3</ele>
        <time>2022-01-19T16:14:22.000Z</time>
      </trkpt>
      <trkpt lat="43.57978" lon="6.41706">
        <ele>407.9</ele>
        <time>2022-01-19T16:14:26.000Z</time>
      </trkpt>
      <trkpt lat="43.57982" lon="6.4171">
        <ele>407.6</ele>
        <time>2022-01-19T16:14:29.000Z</time>
      </trkpt>
      <trkpt lat="43.57986" lon="6.41715">
        <ele>407.1</ele>
        <time>2022-01-19T16:14:33.000Z</time>
      </trkpt>
      <trkpt lat="43.5799" lon="6.4172">
        <ele>406.8</ele>
        <time>2022-01-19T16:14:37.000Z</time>
      </trkpt>
      <trkpt lat="43.57995" lon="6.41723">
        <ele>406.5</ele>
        <time>2022-01-19T16:14:41.000Z</time>
      </trkpt>
      <trkpt lat="43.58" lon="6.41726">
        <ele>406.3</ele>
        <time>2022-01-19T16:14:45.000Z</time>
      </trkpt>
      <trkpt lat="43.58002" lon="6.41732">
        <ele>406</ele>
        <time>2022-01-19T16:14:50.000Z</time>
      </trkpt>
      <trkpt lat="43.58003" lon="6.41738">
        <ele>405.9</ele>
        <time>2022-01-19T16:14:53.000Z</time>
      </trkpt>
      <trkpt lat="43.58006" lon="6.41743">
        <ele>405.7</ele>
        <time>2022-01-19T16:14:57.000Z</time>
      </trkpt>
      <trkpt lat="43.58007" lon="6.41751">
        <ele>404.8</ele>
        <time>2022-01-19T16:15:01.000Z</time>
      </trkpt>
      <trkpt lat="43.5801" lon="6.41757">
        <ele>404.1</ele>
        <time>2022-01-19T16:15:05.000Z</time>
      </trkpt>
      <trkpt lat="43.58012" lon="6.41764">
        <ele>403.2</ele>
        <time>2022-01-19T16:15:09.000Z</time>
      </trkpt>
      <trkpt lat="43.58014" lon="6.4177">
        <ele>402.6</ele>
        <time>2022-01-19T16:15:12.000Z</time>
      </trkpt>
      <trkpt lat="43.58017" lon="6.41775">
        <ele>401.7</ele>
        <time>2022-01-19T16:15:18.000Z</time>
      </trkpt>
      <trkpt lat="43.58022" lon="6.4178">
        <ele>400.7</ele>
        <time>2022-01-19T16:15:23.000Z</time>
      </trkpt>
      <trkpt lat="43.58025" lon="6.41785">
        <ele>399.9</ele>
        <time>2022-01-19T16:15:26.000Z</time>
      </trkpt>
      <trkpt lat="43.5803" lon="6.41789">
        <ele>399.3</ele>
        <time>2022-01-19T16:15:29.000Z</time>
      </trkpt>
      <trkpt lat="43.58033" lon="6.41794">
        <ele>399</ele>
        <time>2022-01-19T16:15:31.000Z</time>
      </trkpt>
      <trkpt lat="43.58036" lon="6.41799">
        <ele>398.5</ele>
        <time>2022-01-19T16:15:35.000Z</time>
      </trkpt>
      <trkpt lat="43.58038" lon="6.41805">
        <ele>397.9</ele>
        <time>2022-01-19T16:15:40.000Z</time>
      </trkpt>
      <trkpt lat="43.58041" lon="6.41811">
        <ele>397.4</ele>
        <time>2022-01-19T16:15:43.000Z</time>
      </trkpt>
      <trkpt lat="43.58046" lon="6.41814">
        <ele>396.7</ele>
        <time>2022-01-19T16:15:48.000Z</time>
      </trkpt>
      <trkpt lat="43.5805" lon="6.41819">
        <ele>396.2</ele>
        <time>2022-01-19T16:15:51.000Z</time>
      </trkpt>
      <trkpt lat="43.58053" lon="6.41823">
        <ele>395.8</ele>
        <time>2022-01-19T16:15:53.000Z</time>
      </trkpt>
      <trkpt lat="43.58057" lon="6.41828">
        <ele>395.3</ele>
        <time>2022-01-19T16:15:56.000Z</time>
      </trkpt>
      <trkpt lat="43.5806" lon="6.41834">
        <ele>395</ele>
        <time>2022-01-19T16:15:59.000Z</time>
      </trkpt>
      <trkpt lat="43.58065" lon="6.4184">
        <ele>394.7</ele>
        <time>2022-01-19T16:16:02.000Z</time>
      </trkpt>
      <trkpt lat="43.58069" lon="6.41844">
        <ele>394.4</ele>
        <time>2022-01-19T16:16:05.000Z</time>
      </trkpt>
      <trkpt lat="43.58073" lon="6.41849">
        <ele>394.2</ele>
        <time>2022-01-19T16:16:08.000Z</time>
      </trkpt>
      <trkpt lat="43.58077" lon="6.41855">
        <ele>393.5</ele>
        <time>2022-01-19T16:16:11.000Z</time>
      </trkpt>
      <trkpt lat="43.5808" lon="6.41861">
        <ele>393</ele>
        <time>2022-01-19T16:16:14.000Z</time>
      </trkpt>
      <trkpt lat="43.58083" lon="6.41866">
        <ele>392.6</ele>
        <time>2022-01-19T16:16:17.000Z</time>
      </trkpt>
      <trkpt lat="43.58086" lon="6.4187">
        <ele>392.3</ele>
        <time>2022-01-19T16:16:20.000Z</time>
      </trkpt>
      <trkpt lat="43.5809" lon="6.41875">
        <ele>392.1</ele>
        <time>2022-01-19T16:16:23.000Z</time>
      </trkpt>
      <trkpt lat="43.58093" lon="6.4188">
        <ele>391.6</ele>
        <time>2022-01-19T16:16:27.000Z</time>
      </trkpt>
      <trkpt lat="43.58095" lon="6.41886">
        <ele>390.9</ele>
        <time>2022-01-19T16:16:32.000Z</time>
      </trkpt>
      <trkpt lat="43.58096" lon="6.41894">
        <ele>390.4</ele>
        <time>2022-01-19T16:16:37.000Z</time>
      </trkpt>
      <trkpt lat="43.58099" lon="6.41901">
        <ele>390.1</ele>
        <time>2022-01-19T16:16:41.000Z</time>
      </trkpt>
      <trkpt lat="43.58103" lon="6.41906">
        <ele>389.8</ele>
        <time>2022-01-19T16:16:45.000Z</time>
      </trkpt>
      <trkpt lat="43.58107" lon="6.41911">
        <ele>389.5</ele>
        <time>2022-01-19T16:16:49.000Z</time>
      </trkpt>
      <trkpt lat="43.5811" lon="6.41916">
        <ele>389.3</ele>
        <time>2022-01-19T16:16:52.000Z</time>
      </trkpt>
      <trkpt lat="43.58112" lon="6.41922">
        <ele>388.9</ele>
        <time>2022-01-19T16:16:56.000Z</time>
      </trkpt>
      <trkpt lat="43.58115" lon="6.41928">
        <ele>388.7</ele>
        <time>2022-01-19T16:16:59.000Z</time>
      </trkpt>
      <trkpt lat="43.58117" lon="6.41935">
        <ele>388.3</ele>
        <time>2022-01-19T16:17:02.000Z</time>
      </trkpt>
      <trkpt lat="43.58121" lon="6.41942">
        <ele>387.8</ele>
        <time>2022-01-19T16:17:05.000Z</time>
      </trkpt>
      <trkpt lat="43.58125" lon="6.41948">
        <ele>387.1</ele>
        <time>2022-01-19T16:17:08.000Z</time>
      </trkpt>
      <trkpt lat="43.58129" lon="6.41954">
        <ele>386.3</ele>
        <time>2022-01-19T16:17:13.000Z</time>
      </trkpt>
      <trkpt lat="43.58132" lon="6.41959">
        <ele>385.5</ele>
        <time>2022-01-19T16:17:17.000Z</time>
      </trkpt>
      <trkpt lat="43.58136" lon="6.41965">
        <ele>384.8</ele>
        <time>2022-01-19T16:17:20.000Z</time>
      </trkpt>
      <trkpt lat="43.5814" lon="6.41971">
        <ele>384.3</ele>
        <time>2022-01-19T16:17:23.000Z</time>
      </trkpt>
      <trkpt lat="43.58144" lon="6.41977">
        <ele>383.8</ele>
        <time>2022-01-19T16:17:26.000Z</time>
      </trkpt>
      <trkpt lat="43.58147" lon="6.41982">
        <ele>383.2</ele>
        <time>2022-01-19T16:17:30.000Z</time>
      </trkpt>
      <trkpt lat="43.5815" lon="6.41987">
        <ele>382.9</ele>
        <time>2022-01-19T16:17:33.000Z</time>
      </trkpt>
      <trkpt lat="43.58154" lon="6.41993">
        <ele>382.5</ele>
        <time>2022-01-19T16:17:36.000Z</time>
      </trkpt>
      <trkpt lat="43.58157" lon="6.41998">
        <ele>382.1</ele>
        <time>2022-01-19T16:17:39.000Z</time>
      </trkpt>
      <trkpt lat="43.5816" lon="6.42004">
        <ele>381.7</ele>
        <time>2022-01-19T16:17:43.000Z</time>
      </trkpt>
      <trkpt lat="43.5816" lon="6.4201">
        <ele>380.7</ele>
        <time>2022-01-19T16:17:48.000Z</time>
      </trkpt>
      <trkpt lat="43.58161" lon="6.42019">
        <ele>380.3</ele>
        <time>2022-01-19T16:17:52.000Z</time>
      </trkpt>
      <trkpt lat="43.5816" lon="6.42026">
        <ele>379.7</ele>
        <time>2022-01-19T16:17:56.000Z</time>
      </trkpt>
      <trkpt lat="43.58159" lon="6.42032">
        <ele>379.2</ele>
        <time>2022-01-19T16:17:59.000Z</time>
      </trkpt>
      <trkpt lat="43.58157" lon="6.42039">
        <ele>378.3</ele>
        <time>2022-01-19T16:18:03.000Z</time>
      </trkpt>
      <trkpt lat="43.58155" lon="6.42045">
        <ele>377.5</ele>
        <time>2022-01-19T16:18:06.000Z</time>
      </trkpt>
      <trkpt lat="43.58152" lon="6.42051">
        <ele>376.7</ele>
        <time>2022-01-19T16:18:09.000Z</time>
      </trkpt>
      <trkpt lat="43.58149" lon="6.42057">
        <ele>375.9</ele>
        <time>2022-01-19T16:18:13.000Z</time>
      </trkpt>
      <trkpt lat="43.58144" lon="6.4206">
        <ele>375</ele>
        <time>2022-01-19T16:18:17.000Z</time>
      </trkpt>
      <trkpt lat="43.58141" lon="6.42065">
        <ele>374.3</ele>
        <time>2022-01-19T16:18:20.000Z</time>
      </trkpt>
      <trkpt lat="43.58137" lon="6.42069">
        <ele>373.7</ele>
        <time>2022-01-19T16:18:23.000Z</time>
      </trkpt>
      <trkpt lat="43.58133" lon="6.42072">
        <ele>373</ele>
        <time>2022-01-19T16:18:27.000Z</time>
      </trkpt>
      <trkpt lat="43.58128" lon="6.42075">
        <ele>372.6</ele>
        <time>2022-01-19T16:18:30.000Z</time>
      </trkpt>
      <trkpt lat="43.58124" lon="6.42076">
        <ele>372.2</ele>
        <time>2022-01-19T16:18:33.000Z</time>
      </trkpt>
      <trkpt lat="43.58118" lon="6.42074">
        <ele>371.9</ele>
        <time>2022-01-19T16:18:37.000Z</time>
      </trkpt>
      <trkpt lat="43.58114" lon="6.4207">
        <ele>371.6</ele>
        <time>2022-01-19T16:18:41.000Z</time>
      </trkpt>
      <trkpt lat="43.58109" lon="6.42066">
        <ele>371.4</ele>
        <time>2022-01-19T16:18:45.000Z</time>
      </trkpt>
      <trkpt lat="43.58103" lon="6.42064">
        <ele>371.2</ele>
        <time>2022-01-19T16:18:49.000Z</time>
      </trkpt>
      <trkpt lat="43.58098" lon="6.42062">
        <ele>371</ele>
        <time>2022-01-19T16:18:53.000Z</time>
      </trkpt>
      <trkpt lat="43.58093" lon="6.4206">
        <ele>370.9</ele>
        <time>2022-01-19T16:18:57.000Z</time>
      </trkpt>
      <trkpt lat="43.58088" lon="6.42056">
        <ele>370.8</ele>
        <time>2022-01-19T16:19:01.000Z</time>
      </trkpt>
      <trkpt lat="43.58083" lon="6.42052">
        <ele>370.7</ele>
        <time>2022-01-19T16:19:05.000Z</time>
      </trkpt>
      <trkpt lat="43.58078" lon="6.42047">
        <ele>370.6</ele>
        <time>2022-01-19T16:19:09.000Z</time>
      </trkpt>
      <trkpt lat="43.58075" lon="6.42042">
        <ele>370.5</ele>
        <time>2022-01-19T16:19:13.000Z</time>
      </trkpt>
      <trkpt lat="43.58072" lon="6.42038">
        <ele>370.4</ele>
        <time>2022-01-19T16:19:17.000Z</time>
      </trkpt>
      <trkpt lat="43.58071" lon="6.42031">
        <ele>370.3</ele>
        <time>2022-01-19T16:19:22.000Z</time>
      </trkpt>
      <trkpt lat="43.58069" lon="6.42025">
        <ele>370.3</ele>
        <time>2022-01-19T16:19:26.000Z</time>
      </trkpt>
      <trkpt lat="43.58066" lon="6.42019">
        <ele>370.2</ele>
        <time>2022-01-19T16:19:30.000Z</time>
      </trkpt>
      <trkpt lat="43.58065" lon="6.42013">
        <ele>370.2</ele>
        <time>2022-01-19T16:19:33.000Z</time>
      </trkpt>
      <trkpt lat="43.58062" lon="6.42008">
        <ele>370.2</ele>
        <time>2022-01-19T16:19:36.000Z</time>
      </trkpt>
      <trkpt lat="43.58061" lon="6.42001">
        <ele>370.1</ele>
        <time>2022-01-19T16:19:39.000Z</time>
      </trkpt>
      <trkpt lat="43.58057" lon="6.41995">
        <ele>370</ele>
        <time>2022-01-19T16:19:42.000Z</time>
      </trkpt>
      <trkpt lat="43.58052" lon="6.41991">
        <ele>369.7</ele>
        <time>2022-01-19T16:19:46.000Z</time>
      </trkpt>
      <trkpt lat="43.58048" lon="6.41987">
        <ele>369.6</ele>
        <time>2022-01-19T16:19:49.000Z</time>
      </trkpt>
      <trkpt lat="43.58043" lon="6.41984">
        <ele>369.4</ele>
        <time>2022-01-19T16:19:53.000Z</time>
      </trkpt>
      <trkpt lat="43.58039" lon="6.4198">
        <ele>368.8</ele>
        <time>2022-01-19T16:19:57.000Z</time>
      </trkpt>
      <trkpt lat="43.58035" lon="6.41977">
        <ele>368.4</ele>
        <time>2022-01-19T16:20:00.000Z</time>
      </trkpt>
      <trkpt lat="43.5803" lon="6.41973">
        <ele>367.8</ele>
        <time>2022-01-19T16:20:04.000Z</time>
      </trkpt>
      <trkpt lat="43.58025" lon="6.41969">
        <ele>367.4</ele>
        <time>2022-01-19T16:20:07.000Z</time>
      </trkpt>
      <trkpt lat="43.58021" lon="6.41966">
        <ele>367.1</ele>
        <time>2022-01-19T16:20:10.000Z</time>
      </trkpt>
      <trkpt lat="43.58016" lon="6.41963">
        <ele>366.7</ele>
        <time>2022-01-19T16:20:13.000Z</time>
      </trkpt>
      <trkpt lat="43.58011" lon="6.41961">
        <ele>366.2</ele>
        <time>2022-01-19T16:20:17.000Z</time>
      </trkpt>
      <trkpt lat="43.58006" lon="6.4196">
        <ele>365.9</ele>
        <time>2022-01-19T16:20:20.000Z</time>
      </trkpt>
      <trkpt lat="43.58001" lon="6.41959">
        <ele>365.7</ele>
        <time>2022-01-19T16:20:23.000Z</time>
      </trkpt>
      <trkpt lat="43.57996" lon="6.41959">
        <ele>365.2</ele>
        <time>2022-01-19T16:20:27.000Z</time>
      </trkpt>
      <trkpt lat="43.57991" lon="6.41957">
        <ele>364.6</ele>
        <time>2022-01-19T16:20:31.000Z</time>
      </trkpt>
      <trkpt lat="43.57986" lon="6.41954">
        <ele>364.2</ele>
        <time>2022-01-19T16:20:34.000Z</time>
      </trkpt>
      <trkpt lat="43.57982" lon="6.41951">
        <ele>364</ele>
        <time>2022-01-19T16:20:37.000Z</time>
      </trkpt>
      <trkpt lat="43.57977" lon="6.41946">
        <ele>363.7</ele>
        <time>2022-01-19T16:20:41.000Z</time>
      </trkpt>
      <trkpt lat="43.57973" lon="6.41943">
        <ele>363.2</ele>
        <time>2022-01-19T16:20:44.000Z</time>
      </trkpt>
      <trkpt lat="43.57969" lon="6.41939">
        <ele>362.9</ele>
        <time>2022-01-19T16:20:47.000Z</time>
      </trkpt>
      <trkpt lat="43.57964" lon="6.41936">
        <ele>362.6</ele>
        <time>2022-01-19T16:20:50.000Z</time>
      </trkpt>
      <trkpt lat="43.5796" lon="6.41933">
        <ele>362.2</ele>
        <time>2022-01-19T16:20:53.000Z</time>
      </trkpt>
      <trkpt lat="43.57956" lon="6.4193">
        <ele>362</ele>
        <time>2022-01-19T16:20:56.000Z</time>
      </trkpt>
      <trkpt lat="43.57951" lon="6.41927">
        <ele>361.9</ele>
        <time>2022-01-19T16:20:59.000Z</time>
      </trkpt>
      <trkpt lat="43.57947" lon="6.41923">
        <ele>361.5</ele>
        <time>2022-01-19T16:21:02.000Z</time>
      </trkpt>
      <trkpt lat="43.57942" lon="6.41921">
        <ele>361.2</ele>
        <time>2022-01-19T16:21:05.000Z</time>
      </trkpt>
      <trkpt lat="43.57938" lon="6.41918">
        <ele>361.1</ele>
        <time>2022-01-19T16:21:08.000Z</time>
      </trkpt>
      <trkpt lat="43.57934" lon="6.41915">
        <ele>360.9</ele>
        <time>2022-01-19T16:21:11.000Z</time>
      </trkpt>
      <trkpt lat="43.5793" lon="6.41913">
        <ele>360.9</ele>
        <time>2022-01-19T16:21:14.000Z</time>
      </trkpt>
      <trkpt lat="43.57925" lon="6.4191">
        <ele>360.8</ele>
        <time>2022-01-19T16:21:18.000Z</time>
      </trkpt>
      <trkpt lat="43.5792" lon="6.41908">
        <ele>360.8</ele>
        <time>2022-01-19T16:21:21.000Z</time>
      </trkpt>
      <trkpt lat="43.57914" lon="6.41907">
        <ele>360.6</ele>
        <time>2022-01-19T16:21:25.000Z</time>
      </trkpt>
      <trkpt lat="43.57908" lon="6.41907">
        <ele>360.7</ele>
        <time>2022-01-19T16:21:29.000Z</time>
      </trkpt>
      <trkpt lat="43.57903" lon="6.41908">
        <ele>360.8</ele>
        <time>2022-01-19T16:21:33.000Z</time>
      </trkpt>
      <trkpt lat="43.57898" lon="6.41907">
        <ele>360.8</ele>
        <time>2022-01-19T16:21:37.000Z</time>
      </trkpt>
      <trkpt lat="43.57894" lon="6.41907">
        <ele>360.8</ele>
        <time>2022-01-19T16:21:40.000Z</time>
      </trkpt>
      <trkpt lat="43.57889" lon="6.41905">
        <ele>360.7</ele>
        <time>2022-01-19T16:21:44.000Z</time>
      </trkpt>
      <trkpt lat="43.57884" lon="6.41903">
        <ele>360.6</ele>
        <time>2022-01-19T16:21:48.000Z</time>
      </trkpt>
      <trkpt lat="43.57879" lon="6.41901">
        <ele>360.5</ele>
        <time>2022-01-19T16:21:51.000Z</time>
      </trkpt>
      <trkpt lat="43.57874" lon="6.419">
        <ele>360.5</ele>
        <time>2022-01-19T16:21:54.000Z</time>
      </trkpt>
      <trkpt lat="43.57868" lon="6.41898">
        <ele>360.5</ele>
        <time>2022-01-19T16:21:58.000Z</time>
      </trkpt>
      <trkpt lat="43.57863" lon="6.41897">
        <ele>360.4</ele>
        <time>2022-01-19T16:22:02.000Z</time>
      </trkpt>
      <trkpt lat="43.57857" lon="6.41897">
        <ele>360.4</ele>
        <time>2022-01-19T16:22:06.000Z</time>
      </trkpt>
      <trkpt lat="43.57852" lon="6.419">
        <ele>360.3</ele>
        <time>2022-01-19T16:22:10.000Z</time>
      </trkpt>
      <trkpt lat="43.57847" lon="6.41904">
        <ele>360.3</ele>
        <time>2022-01-19T16:22:14.000Z</time>
      </trkpt>
      <trkpt lat="43.57841" lon="6.41908">
        <ele>360.1</ele>
        <time>2022-01-19T16:22:18.000Z</time>
      </trkpt>
      <trkpt lat="43.57836" lon="6.41909">
        <ele>359.7</ele>
        <time>2022-01-19T16:22:22.000Z</time>
      </trkpt>
      <trkpt lat="43.57831" lon="6.4191">
        <ele>359.5</ele>
        <time>2022-01-19T16:22:25.000Z</time>
      </trkpt>
      <trkpt lat="43.57825" lon="6.41909">
        <ele>359.4</ele>
        <time>2022-01-19T16:22:29.000Z</time>
      </trkpt>
      <trkpt lat="43.5782" lon="6.41906">
        <ele>359.3</ele>
        <time>2022-01-19T16:22:33.000Z</time>
      </trkpt>
      <trkpt lat="43.57816" lon="6.41902">
        <ele>359</ele>
        <time>2022-01-19T16:22:36.000Z</time>
      </trkpt>
      <trkpt lat="43.57812" lon="6.41896">
        <ele>358.7</ele>
        <time>2022-01-19T16:22:40.000Z</time>
      </trkpt>
      <trkpt lat="43.57809" lon="6.41889">
        <ele>358.4</ele>
        <time>2022-01-19T16:22:44.000Z</time>
      </trkpt>
      <trkpt lat="43.57807" lon="6.41882">
        <ele>358.2</ele>
        <time>2022-01-19T16:22:48.000Z</time>
      </trkpt>
      <trkpt lat="43.57803" lon="6.41875">
        <ele>358.1</ele>
        <time>2022-01-19T16:22:52.000Z</time>
      </trkpt>
      <trkpt lat="43.578" lon="6.41869">
        <ele>358</ele>
        <time>2022-01-19T16:22:56.000Z</time>
      </trkpt>
      <trkpt lat="43.57797" lon="6.41862">
        <ele>357.8</ele>
        <time>2022-01-19T16:23:00.000Z</time>
      </trkpt>
      <trkpt lat="43.57793" lon="6.41856">
        <ele>357.7</ele>
        <time>2022-01-19T16:23:04.000Z</time>
      </trkpt>
      <trkpt lat="43.5779" lon="6.41852">
        <ele>357.6</ele>
        <time>2022-01-19T16:23:07.000Z</time>
      </trkpt>
      <trkpt lat="43.57785" lon="6.41847">
        <ele>357.4</ele>
        <time>2022-01-19T16:23:11.000Z</time>
      </trkpt>
      <trkpt lat="43.5778" lon="6.41843">
        <ele>357.2</ele>
        <time>2022-01-19T16:23:15.000Z</time>
      </trkpt>
      <trkpt lat="43.57775" lon="6.4184">
        <ele>357</ele>
        <time>2022-01-19T16:23:19.000Z</time>
      </trkpt>
      <trkpt lat="43.5777" lon="6.41836">
        <ele>356.7</ele>
        <time>2022-01-19T16:23:23.000Z</time>
      </trkpt>
      <trkpt lat="43.57765" lon="6.41834">
        <ele>356.4</ele>
        <time>2022-01-19T16:23:26.000Z</time>
      </trkpt>
      <trkpt lat="43.5776" lon="6.41831">
        <ele>356.2</ele>
        <time>2022-01-19T16:23:30.000Z</time>
      </trkpt>
      <trkpt lat="43.57756" lon="6.41829">
        <ele>356</ele>
        <time>2022-01-19T16:23:33.000Z</time>
      </trkpt>
      <trkpt lat="43.57751" lon="6.41827">
        <ele>355.8</ele>
        <time>2022-01-19T16:23:36.000Z</time>
      </trkpt>
      <trkpt lat="43.57747" lon="6.41824">
        <ele>355.5</ele>
        <time>2022-01-19T16:23:39.000Z</time>
      </trkpt>
      <trkpt lat="43.57741" lon="6.41821">
        <ele>355.3</ele>
        <time>2022-01-19T16:23:43.000Z</time>
      </trkpt>
      <trkpt lat="43.57737" lon="6.41818">
        <ele>355.1</ele>
        <time>2022-01-19T16:23:46.000Z</time>
      </trkpt>
      <trkpt lat="43.57733" lon="6.41815">
        <ele>355</ele>
        <time>2022-01-19T16:23:49.000Z</time>
      </trkpt>
      <trkpt lat="43.57728" lon="6.41813">
        <ele>354.9</ele>
        <time>2022-01-19T16:23:52.000Z</time>
      </trkpt>
      <trkpt lat="43.57723" lon="6.4181">
        <ele>354.8</ele>
        <time>2022-01-19T16:23:55.000Z</time>
      </trkpt>
      <trkpt lat="43.57718" lon="6.41808">
        <ele>354.8</ele>
        <time>2022-01-19T16:23:59.000Z</time>
      </trkpt>
      <trkpt lat="43.57713" lon="6.41809">
        <ele>354.8</ele>
        <time>2022-01-19T16:24:02.000Z</time>
      </trkpt>
      <trkpt lat="43.57709" lon="6.4181">
        <ele>354.8</ele>
        <time>2022-01-19T16:24:05.000Z</time>
      </trkpt>
      <trkpt lat="43.57704" lon="6.41809">
        <ele>354.7</ele>
        <time>2022-01-19T16:24:08.000Z</time>
      </trkpt>
      <trkpt lat="43.577" lon="6.41807">
        <ele>354.7</ele>
        <time>2022-01-19T16:24:11.000Z</time>
      </trkpt>
      <trkpt lat="43.57695" lon="6.41803">
        <ele>354.3</ele>
        <time>2022-01-19T16:24:15.000Z</time>
      </trkpt>
      <trkpt lat="43.57691" lon="6.41797">
        <ele>353.8</ele>
        <time>2022-01-19T16:24:19.000Z</time>
      </trkpt>
      <trkpt lat="43.57687" lon="6.41791">
        <ele>353.4</ele>
        <time>2022-01-19T16:24:23.000Z</time>
      </trkpt>
      <trkpt lat="43.57684" lon="6.41785">
        <ele>353</ele>
        <time>2022-01-19T16:24:27.000Z</time>
      </trkpt>
      <trkpt lat="43.5768" lon="6.41779">
        <ele>352.4</ele>
        <time>2022-01-19T16:24:31.000Z</time>
      </trkpt>
      <trkpt lat="43.57677" lon="6.41773">
        <ele>351.9</ele>
        <time>2022-01-19T16:24:35.000Z</time>
      </trkpt>
      <trkpt lat="43.57673" lon="6.41767">
        <ele>351.4</ele>
        <time>2022-01-19T16:24:39.000Z</time>
      </trkpt>
      <trkpt lat="43.57671" lon="6.41762">
        <ele>351.1</ele>
        <time>2022-01-19T16:24:42.000Z</time>
      </trkpt>
      <trkpt lat="43.57669" lon="6.41756">
        <ele>350.7</ele>
        <time>2022-01-19T16:24:46.000Z</time>
      </trkpt>
      <trkpt lat="43.57666" lon="6.4175">
        <ele>350.3</ele>
        <time>2022-01-19T16:24:50.000Z</time>
      </trkpt>
      <trkpt lat="43.57663" lon="6.41743">
        <ele>349.9</ele>
        <time>2022-01-19T16:24:54.000Z</time>
      </trkpt>
      <trkpt lat="43.57658" lon="6.41739">
        <ele>349.4</ele>
        <time>2022-01-19T16:24:58.000Z</time>
      </trkpt>
      <trkpt lat="43.57653" lon="6.41735">
        <ele>348.7</ele>
        <time>2022-01-19T16:25:02.000Z</time>
      </trkpt>
      <trkpt lat="43.57648" lon="6.41732">
        <ele>347.9</ele>
        <time>2022-01-19T16:25:06.000Z</time>
      </trkpt>
      <trkpt lat="43.57643" lon="6.41735">
        <ele>346.9</ele>
        <time>2022-01-19T16:25:11.000Z</time>
      </trkpt>
      <trkpt lat="43.5764" lon="6.4174">
        <ele>345.9</ele>
        <time>2022-01-19T16:25:16.000Z</time>
      </trkpt>
      <trkpt lat="43.57638" lon="6.41746">
        <ele>345</ele>
        <time>2022-01-19T16:25:21.000Z</time>
      </trkpt>
      <trkpt lat="43.57635" lon="6.41753">
        <ele>344.2</ele>
        <time>2022-01-19T16:25:26.000Z</time>
      </trkpt>
      <trkpt lat="43.57638" lon="6.41758">
        <ele>341.6</ele>
        <time>2022-01-19T16:25:55.000Z</time>
      </trkpt>
      <trkpt lat="43.57642" lon="6.41761">
        <ele>341.1</ele>
        <time>2022-01-19T16:26:20.000Z</time>
      </trkpt>
      <trkpt lat="43.57637" lon="6.41762">
        <ele>340.6</ele>
        <time>2022-01-19T16:27:09.000Z</time>
      </trkpt>
      <trkpt lat="43.57633" lon="6.41765">
        <ele>340</ele>
        <time>2022-01-19T16:30:20.000Z</time>
      </trkpt>
      <trkpt lat="43.57629" lon="6.41768">
        <ele>339.5</ele>
        <time>2022-01-19T16:30:26.000Z</time>
      </trkpt>
      <trkpt lat="43.57626" lon="6.41773">
        <ele>339.2</ele>
        <time>2022-01-19T16:30:30.000Z</time>
      </trkpt>
      <trkpt lat="43.57623" lon="6.41778">
        <ele>338.7</ele>
        <time>2022-01-19T16:30:34.000Z</time>
      </trkpt>
      <trkpt lat="43.57619" lon="6.41783">
        <ele>337.9</ele>
        <time>2022-01-19T16:30:39.000Z</time>
      </trkpt>
      <trkpt lat="43.57615" lon="6.41788">
        <ele>337</ele>
        <time>2022-01-19T16:30:44.000Z</time>
      </trkpt>
      <trkpt lat="43.57611" lon="6.41793">
        <ele>336.2</ele>
        <time>2022-01-19T16:30:48.000Z</time>
      </trkpt>
      <trkpt lat="43.57609" lon="6.41799">
        <ele>334.9</ele>
        <time>2022-01-19T16:30:52.000Z</time>
      </trkpt>
      <trkpt lat="43.57606" lon="6.41806">
        <ele>333.8</ele>
        <time>2022-01-19T16:30:56.000Z</time>
      </trkpt>
      <trkpt lat="43.57604" lon="6.41813">
        <ele>332.9</ele>
        <time>2022-01-19T16:31:00.000Z</time>
      </trkpt>
      <trkpt lat="43.57602" lon="6.41819">
        <ele>331.9</ele>
        <time>2022-01-19T16:31:03.000Z</time>
      </trkpt>
      <trkpt lat="43.57599" lon="6.41827">
        <ele>330.7</ele>
        <time>2022-01-19T16:31:07.000Z</time>
      </trkpt>
      <trkpt lat="43.57597" lon="6.41833">
        <ele>329.3</ele>
        <time>2022-01-19T16:31:11.000Z</time>
      </trkpt>
      <trkpt lat="43.57595" lon="6.4184">
        <ele>328.1</ele>
        <time>2022-01-19T16:31:15.000Z</time>
      </trkpt>
      <trkpt lat="43.57593" lon="6.41846">
        <ele>327.3</ele>
        <time>2022-01-19T16:31:18.000Z</time>
      </trkpt>
      <trkpt lat="43.57591" lon="6.41854">
        <ele>326.1</ele>
        <time>2022-01-19T16:31:22.000Z</time>
      </trkpt>
      <trkpt lat="43.57589" lon="6.41861">
        <ele>325.1</ele>
        <time>2022-01-19T16:31:26.000Z</time>
      </trkpt>
      <trkpt lat="43.57587" lon="6.41869">
        <ele>324.1</ele>
        <time>2022-01-19T16:31:30.000Z</time>
      </trkpt>
      <trkpt lat="43.57585" lon="6.41876">
        <ele>323.2</ele>
        <time>2022-01-19T16:31:34.000Z</time>
      </trkpt>
      <trkpt lat="43.57583" lon="6.41883">
        <ele>322.4</ele>
        <time>2022-01-19T16:31:38.000Z</time>
      </trkpt>
      <trkpt lat="43.57582" lon="6.4189">
        <ele>321.7</ele>
        <time>2022-01-19T16:31:42.000Z</time>
      </trkpt>
      <trkpt lat="43.5758" lon="6.41898">
        <ele>321</ele>
        <time>2022-01-19T16:31:46.000Z</time>
      </trkpt>
      <trkpt lat="43.57578" lon="6.41904">
        <ele>320.3</ele>
        <time>2022-01-19T16:31:50.000Z</time>
      </trkpt>
      <trkpt lat="43.57577" lon="6.41912">
        <ele>319.6</ele>
        <time>2022-01-19T16:31:54.000Z</time>
      </trkpt>
      <trkpt lat="43.57579" lon="6.4192">
        <ele>318.9</ele>
        <time>2022-01-19T16:31:58.000Z</time>
      </trkpt>
      <trkpt lat="43.57581" lon="6.41927">
        <ele>318.5</ele>
        <time>2022-01-19T16:32:01.000Z</time>
      </trkpt>
      <trkpt lat="43.57583" lon="6.41933">
        <ele>318.1</ele>
        <time>2022-01-19T16:32:04.000Z</time>
      </trkpt>
      <trkpt lat="43.57586" lon="6.41939">
        <ele>317.7</ele>
        <time>2022-01-19T16:32:07.000Z</time>
      </trkpt>
      <trkpt lat="43.57588" lon="6.41946">
        <ele>317</ele>
        <time>2022-01-19T16:32:11.000Z</time>
      </trkpt>
      <trkpt lat="43.57591" lon="6.41953">
        <ele>316.4</ele>
        <time>2022-01-19T16:32:15.000Z</time>
      </trkpt>
      <trkpt lat="43.57591" lon="6.4196">
        <ele>315.5</ele>
        <time>2022-01-19T16:32:19.000Z</time>
      </trkpt>
      <trkpt lat="43.57588" lon="6.41966">
        <ele>314.8</ele>
        <time>2022-01-19T16:32:23.000Z</time>
      </trkpt>
      <trkpt lat="43.57584" lon="6.41969">
        <ele>314.2</ele>
        <time>2022-01-19T16:32:26.000Z</time>
      </trkpt>
      <trkpt lat="43.57579" lon="6.41972">
        <ele>313.4</ele>
        <time>2022-01-19T16:32:30.000Z</time>
      </trkpt>
      <trkpt lat="43.57574" lon="6.41974">
        <ele>312.7</ele>
        <time>2022-01-19T16:32:34.000Z</time>
      </trkpt>
      <trkpt lat="43.5757" lon="6.41979">
        <ele>311.7</ele>
        <time>2022-01-19T16:32:38.000Z</time>
      </trkpt>
      <trkpt lat="43.57568" lon="6.41985">
        <ele>310.8</ele>
        <time>2022-01-19T16:32:42.000Z</time>
      </trkpt>
      <trkpt lat="43.57568" lon="6.41992">
        <ele>309.5</ele>
        <time>2022-01-19T16:32:47.000Z</time>
      </trkpt>
      <trkpt lat="43.5757" lon="6.41998">
        <ele>307.9</ele>
        <time>2022-01-19T16:32:54.000Z</time>
      </trkpt>
      <trkpt lat="43.57573" lon="6.42004">
        <ele>306.7</ele>
        <time>2022-01-19T16:32:58.000Z</time>
      </trkpt>
      <trkpt lat="43.57576" lon="6.42009">
        <ele>305.4</ele>
        <time>2022-01-19T16:33:03.000Z</time>
      </trkpt>
      <trkpt lat="43.5758" lon="6.42016">
        <ele>304.1</ele>
        <time>2022-01-19T16:33:07.000Z</time>
      </trkpt>
      <trkpt lat="43.57581" lon="6.42023">
        <ele>303</ele>
        <time>2022-01-19T16:33:10.000Z</time>
      </trkpt>
      <trkpt lat="43.57583" lon="6.42029">
        <ele>302</ele>
        <time>2022-01-19T16:33:13.000Z</time>
      </trkpt>
      <trkpt lat="43.57585" lon="6.42037">
        <ele>300.8</ele>
        <time>2022-01-19T16:33:17.000Z</time>
      </trkpt>
      <trkpt lat="43.57589" lon="6.42042">
        <ele>299.8</ele>
        <time>2022-01-19T16:33:21.000Z</time>
      </trkpt>
      <trkpt lat="43.57593" lon="6.42046">
        <ele>299</ele>
        <time>2022-01-19T16:33:24.000Z</time>
      </trkpt>
      <trkpt lat="43.57595" lon="6.42052">
        <ele>297.9</ele>
        <time>2022-01-19T16:33:29.000Z</time>
      </trkpt>
      <trkpt lat="43.57595" lon="6.4206">
        <ele>296.9</ele>
        <time>2022-01-19T16:33:33.000Z</time>
      </trkpt>
      <trkpt lat="43.57593" lon="6.42067">
        <ele>295.6</ele>
        <time>2022-01-19T16:33:37.000Z</time>
      </trkpt>
      <trkpt lat="43.57591" lon="6.42074">
        <ele>294.5</ele>
        <time>2022-01-19T16:33:41.000Z</time>
      </trkpt>
      <trkpt lat="43.5759" lon="6.42081">
        <ele>293.1</ele>
        <time>2022-01-19T16:33:45.000Z</time>
      </trkpt>
      <trkpt lat="43.57589" lon="6.42088">
        <ele>292</ele>
        <time>2022-01-19T16:33:48.000Z</time>
      </trkpt>
      <trkpt lat="43.5759" lon="6.42096">
        <ele>290.7</ele>
        <time>2022-01-19T16:33:52.000Z</time>
      </trkpt>
      <trkpt lat="43.57593" lon="6.42101">
        <ele>289.7</ele>
        <time>2022-01-19T16:33:55.000Z</time>
      </trkpt>
      <trkpt lat="43.57595" lon="6.42108">
        <ele>288.6</ele>
        <time>2022-01-19T16:33:59.000Z</time>
      </trkpt>
      <trkpt lat="43.57598" lon="6.42113">
        <ele>287.9</ele>
        <time>2022-01-19T16:34:02.000Z</time>
      </trkpt>
      <trkpt lat="43.57603" lon="6.42118">
        <ele>287.1</ele>
        <time>2022-01-19T16:34:06.000Z</time>
      </trkpt>
      <trkpt lat="43.57608" lon="6.42122">
        <ele>286.5</ele>
        <time>2022-01-19T16:34:10.000Z</time>
      </trkpt>
      <trkpt lat="43.5761" lon="6.42128">
        <ele>285.4</ele>
        <time>2022-01-19T16:34:18.000Z</time>
      </trkpt>
      <trkpt lat="43.57609" lon="6.42135">
        <ele>284.8</ele>
        <time>2022-01-19T16:34:23.000Z</time>
      </trkpt>
      <trkpt lat="43.57607" lon="6.42142">
        <ele>283.9</ele>
        <time>2022-01-19T16:34:27.000Z</time>
      </trkpt>
      <trkpt lat="43.57605" lon="6.42149">
        <ele>283.4</ele>
        <time>2022-01-19T16:34:30.000Z</time>
      </trkpt>
      <trkpt lat="43.57607" lon="6.42155">
        <ele>282.8</ele>
        <time>2022-01-19T16:34:34.000Z</time>
      </trkpt>
      <trkpt lat="43.5761" lon="6.4216">
        <ele>282.3</ele>
        <time>2022-01-19T16:34:38.000Z</time>
      </trkpt>
      <trkpt lat="43.57615" lon="6.42165">
        <ele>281.9</ele>
        <time>2022-01-19T16:34:42.000Z</time>
      </trkpt>
      <trkpt lat="43.57618" lon="6.42169">
        <ele>281.7</ele>
        <time>2022-01-19T16:34:45.000Z</time>
      </trkpt>
      <trkpt lat="43.57622" lon="6.42173">
        <ele>281.5</ele>
        <time>2022-01-19T16:34:48.000Z</time>
      </trkpt>
      <trkpt lat="43.57626" lon="6.42177">
        <ele>281.3</ele>
        <time>2022-01-19T16:34:51.000Z</time>
      </trkpt>
      <trkpt lat="43.57629" lon="6.42183">
        <ele>281.1</ele>
        <time>2022-01-19T16:34:55.000Z</time>
      </trkpt>
      <trkpt lat="43.5763" lon="6.42189">
        <ele>280.7</ele>
        <time>2022-01-19T16:34:58.000Z</time>
      </trkpt>
      <trkpt lat="43.57628" lon="6.42196">
        <ele>279.7</ele>
        <time>2022-01-19T16:35:04.000Z</time>
      </trkpt>
      <trkpt lat="43.57623" lon="6.42195">
        <ele>279.2</ele>
        <time>2022-01-19T16:35:08.000Z</time>
      </trkpt>
      <trkpt lat="43.57618" lon="6.42192">
        <ele>278.7</ele>
        <time>2022-01-19T16:35:12.000Z</time>
      </trkpt>
      <trkpt lat="43.57612" lon="6.42191">
        <ele>278.3</ele>
        <time>2022-01-19T16:35:16.000Z</time>
      </trkpt>
      <trkpt lat="43.57607" lon="6.42189">
        <ele>278</ele>
        <time>2022-01-19T16:35:20.000Z</time>
      </trkpt>
      <trkpt lat="43.57604" lon="6.42184">
        <ele>277.7</ele>
        <time>2022-01-19T16:35:26.000Z</time>
      </trkpt>
      <trkpt lat="43.576" lon="6.42179">
        <ele>277.3</ele>
        <time>2022-01-19T16:35:30.000Z</time>
      </trkpt>
      <trkpt lat="43.57596" lon="6.42174">
        <ele>277</ele>
        <time>2022-01-19T16:35:34.000Z</time>
      </trkpt>
      <trkpt lat="43.57592" lon="6.42171">
        <ele>276.8</ele>
        <time>2022-01-19T16:35:37.000Z</time>
      </trkpt>
      <trkpt lat="43.57588" lon="6.42169">
        <ele>276.4</ele>
        <time>2022-01-19T16:35:40.000Z</time>
      </trkpt>
      <trkpt lat="43.57583" lon="6.4217">
        <ele>275.9</ele>
        <time>2022-01-19T16:35:43.000Z</time>
      </trkpt>
      <trkpt lat="43.57578" lon="6.42173">
        <ele>275.3</ele>
        <time>2022-01-19T16:35:46.000Z</time>
      </trkpt>
      <trkpt lat="43.57574" lon="6.42177">
        <ele>274.4</ele>
        <time>2022-01-19T16:35:50.000Z</time>
      </trkpt>
      <trkpt lat="43.57576" lon="6.42183">
        <ele>273.1</ele>
        <time>2022-01-19T16:35:57.000Z</time>
      </trkpt>
      <trkpt lat="43.57577" lon="6.42189">
        <ele>272.1</ele>
        <time>2022-01-19T16:36:02.000Z</time>
      </trkpt>
      <trkpt lat="43.57582" lon="6.42193">
        <ele>271.2</ele>
        <time>2022-01-19T16:36:06.000Z</time>
      </trkpt>
      <trkpt lat="43.57584" lon="6.42198">
        <ele>270.5</ele>
        <time>2022-01-19T16:36:10.000Z</time>
      </trkpt>
      <trkpt lat="43.57585" lon="6.42204">
        <ele>269.6</ele>
        <time>2022-01-19T16:36:15.000Z</time>
      </trkpt>
      <trkpt lat="43.57585" lon="6.42212">
        <ele>268.8</ele>
        <time>2022-01-19T16:36:19.000Z</time>
      </trkpt>
      <trkpt lat="43.57584" lon="6.4222">
        <ele>267.9</ele>
        <time>2022-01-19T16:36:23.000Z</time>
      </trkpt>
      <trkpt lat="43.57582" lon="6.42226">
        <ele>267.2</ele>
        <time>2022-01-19T16:36:26.000Z</time>
      </trkpt>
      <trkpt lat="43.57581" lon="6.42233">
        <ele>265.9</ele>
        <time>2022-01-19T16:36:31.000Z</time>
      </trkpt>
      <trkpt lat="43.57585" lon="6.42239">
        <ele>265</ele>
        <time>2022-01-19T16:36:35.000Z</time>
      </trkpt>
      <trkpt lat="43.57589" lon="6.42243">
        <ele>264.4</ele>
        <time>2022-01-19T16:36:38.000Z</time>
      </trkpt>
      <trkpt lat="43.57592" lon="6.4225">
        <ele>263.7</ele>
        <time>2022-01-19T16:36:42.000Z</time>
      </trkpt>
      <trkpt lat="43.57596" lon="6.42255">
        <ele>263.3</ele>
        <time>2022-01-19T16:36:45.000Z</time>
      </trkpt>
      <trkpt lat="43.576" lon="6.4226">
        <ele>262.8</ele>
        <time>2022-01-19T16:36:49.000Z</time>
      </trkpt>
      <trkpt lat="43.57601" lon="6.42267">
        <ele>262.4</ele>
        <time>2022-01-19T16:36:53.000Z</time>
      </trkpt>
      <trkpt lat="43.57596" lon="6.42269">
        <ele>261.6</ele>
        <time>2022-01-19T16:36:59.000Z</time>
      </trkpt>
      <trkpt lat="43.5759" lon="6.4227">
        <ele>260.7</ele>
        <time>2022-01-19T16:37:04.000Z</time>
      </trkpt>
      <trkpt lat="43.57585" lon="6.42275">
        <ele>259</ele>
        <time>2022-01-19T16:37:08.000Z</time>
      </trkpt>
      <trkpt lat="43.57581" lon="6.42279">
        <ele>258.5</ele>
        <time>2022-01-19T16:37:13.000Z</time>
      </trkpt>
      <trkpt lat="43.57578" lon="6.42282">
        <ele>257.2</ele>
        <time>2022-01-19T16:37:17.000Z</time>
      </trkpt>
      <trkpt lat="43.57575" lon="6.42287">
        <ele>255.9</ele>
        <time>2022-01-19T16:37:22.000Z</time>
      </trkpt>
      <trkpt lat="43.57576" lon="6.42293">
        <ele>254.7</ele>
        <time>2022-01-19T16:37:27.000Z</time>
      </trkpt>
      <trkpt lat="43.57576" lon="6.42299">
        <ele>253.1</ele>
        <time>2022-01-19T16:37:33.000Z</time>
      </trkpt>
      <trkpt lat="43.57579" lon="6.42305">
        <ele>252.4</ele>
        <time>2022-01-19T16:37:37.000Z</time>
      </trkpt>
      <trkpt lat="43.57577" lon="6.42311">
        <ele>251.8</ele>
        <time>2022-01-19T16:37:41.000Z</time>
      </trkpt>
      <trkpt lat="43.57579" lon="6.42317">
        <ele>251.2</ele>
        <time>2022-01-19T16:37:46.000Z</time>
      </trkpt>
      <trkpt lat="43.57577" lon="6.42323">
        <ele>250.8</ele>
        <time>2022-01-19T16:37:50.000Z</time>
      </trkpt>
      <trkpt lat="43.57578" lon="6.42329">
        <ele>250.4</ele>
        <time>2022-01-19T16:37:57.000Z</time>
      </trkpt>
      <trkpt lat="43.57583" lon="6.42333">
        <ele>250.2</ele>
        <time>2022-01-19T16:38:02.000Z</time>
      </trkpt>
      <trkpt lat="43.57589" lon="6.42335">
        <ele>250.2</ele>
        <time>2022-01-19T16:38:06.000Z</time>
      </trkpt>
      <trkpt lat="43.57594" lon="6.42335">
        <ele>250.1</ele>
        <time>2022-01-19T16:38:10.000Z</time>
      </trkpt>
      <trkpt lat="43.57598" lon="6.42334">
        <ele>250.1</ele>
        <time>2022-01-19T16:38:13.000Z</time>
      </trkpt>
      <trkpt lat="43.57603" lon="6.4233">
        <ele>250.1</ele>
        <time>2022-01-19T16:38:20.000Z</time>
      </trkpt>
      <trkpt lat="43.57608" lon="6.42329">
        <ele>250.2</ele>
        <time>2022-01-19T16:38:24.000Z</time>
      </trkpt>
      <trkpt lat="43.57613" lon="6.42328">
        <ele>250.2</ele>
        <time>2022-01-19T16:38:28.000Z</time>
      </trkpt>
      <trkpt lat="43.57618" lon="6.42327">
        <ele>250.3</ele>
        <time>2022-01-19T16:38:32.000Z</time>
      </trkpt>
      <trkpt lat="43.57623" lon="6.42329">
        <ele>250.3</ele>
        <time>2022-01-19T16:38:37.000Z</time>
      </trkpt>
      <trkpt lat="43.57627" lon="6.42332">
        <ele>250.3</ele>
        <time>2022-01-19T16:38:41.000Z</time>
      </trkpt>
      <trkpt lat="43.57633" lon="6.42334">
        <ele>250.2</ele>
        <time>2022-01-19T16:38:46.000Z</time>
      </trkpt>
      <trkpt lat="43.57637" lon="6.42335">
        <ele>250.1</ele>
        <time>2022-01-19T16:38:50.000Z</time>
      </trkpt>
      <trkpt lat="43.57642" lon="6.42337">
        <ele>250</ele>
        <time>2022-01-19T16:38:54.000Z</time>
      </trkpt>
      <trkpt lat="43.57647" lon="6.42339">
        <ele>250</ele>
        <time>2022-01-19T16:38:58.000Z</time>
      </trkpt>
      <trkpt lat="43.57651" lon="6.42341">
        <ele>249.6</ele>
        <time>2022-01-19T16:39:02.000Z</time>
      </trkpt>
      <trkpt lat="43.57655" lon="6.42344">
        <ele>249.1</ele>
        <time>2022-01-19T16:39:06.000Z</time>
      </trkpt>
      <trkpt lat="43.57658" lon="6.42349">
        <ele>248.6</ele>
        <time>2022-01-19T16:39:12.000Z</time>
      </trkpt>
      <trkpt lat="43.57658" lon="6.42356">
        <ele>248.1</ele>
        <time>2022-01-19T16:39:19.000Z</time>
      </trkpt>
      <trkpt lat="43.57658" lon="6.42363">
        <ele>247.8</ele>
        <time>2022-01-19T16:39:25.000Z</time>
      </trkpt>
      <trkpt lat="43.57657" lon="6.42369">
        <ele>247.6</ele>
        <time>2022-01-19T16:39:30.000Z</time>
      </trkpt>
      <trkpt lat="43.57655" lon="6.42375">
        <ele>247.4</ele>
        <time>2022-01-19T16:39:35.000Z</time>
      </trkpt>
      <trkpt lat="43.57652" lon="6.4238">
        <ele>247.3</ele>
        <time>2022-01-19T16:39:40.000Z</time>
      </trkpt>
      <trkpt lat="43.5765" lon="6.42386">
        <ele>247.3</ele>
        <time>2022-01-19T16:39:45.000Z</time>
      </trkpt>
      <trkpt lat="43.57649" lon="6.42393">
        <ele>247.3</ele>
        <time>2022-01-19T16:39:51.000Z</time>
      </trkpt>
      <trkpt lat="43.57654" lon="6.42392">
        <ele>247.4</ele>
        <time>2022-01-19T16:39:57.000Z</time>
      </trkpt>
      <trkpt lat="43.57659" lon="6.42391">
        <ele>247.6</ele>
        <time>2022-01-19T16:40:02.000Z</time>
      </trkpt>
      <trkpt lat="43.57665" lon="6.42389">
        <ele>248</ele>
        <time>2022-01-19T16:40:08.000Z</time>
      </trkpt>
      <trkpt lat="43.57669" lon="6.4239">
        <ele>248.3</ele>
        <time>2022-01-19T16:40:15.000Z</time>
      </trkpt>
      <trkpt lat="43.57673" lon="6.42389">
        <ele>248.6</ele>
        <time>2022-01-19T16:40:38.000Z</time>
      </trkpt>
    </trkseg>
  </trk>
</gpx>